[[{"header":{"parameterUnit":"m.s-1","parameterCategory":1,"la1":30.6,"la2":28.766,"lo1":-90.7593,"lo2":-88.6598,"dy":0.0162,"dx":0.0183,"nx":116,"ny":114,"refTime":"2023-05-19T00:00:00:Z","depth":0,"parameterNumber":2,"parameterNumberName":"U-component_of_WINDS"},"data":[0.0,0.0,0.0,0.0,0.0,0.0,0.0,0.0,0.0,0.0,0.0,0.0,0.0,0.0,0.0,0.0,0.0,0.0,0.0,0.0,0.0,0.0,0.0,0.0,0.0,0.0,0.0,0.0,0.0,0.0,0.0,0.0,0.0,0.0,0.0,0.0,0.0,0.0,0.0,0.0,0.0,0.0,0.0,0.0,0.0,0.0,0.0,0.0,0.0,0.0,0.0,0.0,0.0,0.0,0.0,0.0,0.0,0.0,0.0,0.0,0.0,0.0,0.0,0.0,0.0,0.0,0.0,0.0,0.0,0.0,0.0,0.0,0.0,0.0,0.0,0.0,0.0,0.0,0.0,0.0,0.0,0.0,0.0,0.0,0.0,0.0,0.0,0.0,0.0,0.0,0.0,0.0,0.0,0.0,0.0,0.0,0.0,0.0,0.0,0.0,0.0,0.0,0.0,0.0,0.0,0.0,0.0,0.0,0.0,0.0,0.0,0.0,0.0,0.0,0.0,0.0,0.0,0.0,0.0,0.0,0.0,0.0,0.0,0.0,0.0,0.0,0.0,0.0,0.0,0.0,0.0,0.0,0.0,0.0,0.0,0.0,0.0,0.0,0.0,0.0,0.0,0.0,0.0,0.0,0.0,0.0,0.0,0.0,0.0,0.0,0.0,0.0,0.0,0.0,0.0,0.0,0.0,0.0,0.0,0.0,0.0,0.0,0.0,0.0,0.0,0.0,0.0,0.0,0.0,0.0,0.0,0.0,0.0,0.0,0.0,0.0,0.0,0.0,0.0,0.0,0.0,0.0,0.0,0.0,0.0,0.0,0.0,0.0,0.0,0.0,0.0,0.0,0.0,0.0,0.0,0.0,0.0,0.0,0.0,0.0,0.0,0.0,0.0,0.0,0.0,0.0,0.0,0.0,0.0,0.0,0.0,0.0,0.0,0.0,0.0,0.0,0.0,0.0,0.0,0.0,0.0,0.0,0.0,0.0,0.0,0.0,0.0,0.0,0.0,0.0,0.0,0.0,0.0,0.0,0.0,0.0,0.0,0.0,0.0,0.0,0.0,0.0,0.0,0.0,0.0,0.0,0.0,0.0,0.0,0.0,0.0,0.0,0.0,0.0,0.0,0.0,0.0,0.0,0.0,0.0,0.0,0.0,0.0,0.0,0.0,0.0,0.0,0.0,0.0,0.0,0.0,0.0,0.0,0.0,0.0,0.0,0.0,0.0,0.0,0.0,0.0,0.0,0.0,0.0,0.0,0.0,0.0,0.0,0.0,0.0,0.0,0.0,0.0,0.0,0.0,0.0,0.0,0.0,0.0,0.0,0.0,0.0,0.0,0.0,0.0,0.0,0.0,0.0,0.0,0.0,0.0,0.0,0.0,0.0,0.0,0.0,0.0,0.0,0.0,0.0,0.0,0.0,0.0,0.0,0.0,0.0,0.0,0.0,0.0,0.0,0.0,0.0,0.0,0.0,0.0,0.0,0.0,0.0,0.0,0.0,0.0,0.0,0.0,0.0,0.0,0.0,0.0,0.0,0.0,0.0,0.0,0.0,0.0,0.0,0.0,0.0,0.0,0.0,0.0,0.0,0.0,0.0,0.0,0.0,0.0,0.0,0.0,0.0,0.0,0.0,0.0,0.0,0.0,0.0,0.0,0.0,0.0,0.0,0.0,0.0,0.0,0.0,0.0,0.0,0.0,0.0,0.0,0.0,0.0,0.0,0.0,0.0,0.0,0.0,0.0,0.0,0.0,0.0,0.0,0.0,0.0,0.0,0.0,0.0,0.0,0.0,0.0,0.0,0.0,0.0,0.0,0.0,0.0,0.0,0.0,0.0,0.0,0.0,0.0,0.0,0.0,0.0,0.0,0.0,0.0,0.0,0.0,0.0,0.0,0.0,0.0,0.0,0.0,0.0,0.0,0.0,0.0,0.0,0.0,0.0,0.0,0.0,0.0,0.0,0.0,0.0,0.0,0.0,0.0,0.0,0.0,0.0,0.0,0.0,0.0,0.0,0.0,0.0,0.0,0.0,0.0,0.0,0.0,0.0,0.0,0.0,0.0,0.0,0.0,0.0,0.0,0.0,0.0,0.0,0.0,0.0,0.0,0.0,0.0,0.0,0.0,0.0,0.0,0.0,0.0,0.0,0.0,0.0,0.0,0.0,0.0,0.0,0.0,0.0,0.0,0.0,0.0,0.0,0.0,0.0,0.0,0.0,0.0,0.0,0.0,0.0,0.0,0.0,0.0,0.0,0.0,0.0,0.0,0.0,0.0,0.0,0.0,0.0,0.0,0.0,0.0,0.0,0.0,0.0,0.0,0.0,0.0,0.0,0.0,0.0,0.0,0.0,0.0,0.0,0.0,0.0,0.0,0.0,0.0,0.0,0.0,0.0,0.0,0.0,0.0,0.0,0.0,0.0,0.0,0.0,0.0,0.0,0.0,0.0,0.0,0.0,0.0,0.0,0.0,0.0,0.0,0.0,0.0,0.0,0.0,0.0,0.0,0.0,0.0,0.0,0.0,0.0,0.0,0.0,0.0,0.0,0.0,0.0,0.0,0.0,0.0,0.0,0.0,0.0,0.0,0.0,0.0,0.0,0.0,0.0,0.0,0.0,0.0,0.0,0.0,0.0,0.0,0.0,0.0,0.0,0.0,0.0,0.0,0.0,0.0,0.0,0.0,0.0,0.0,0.0,0.0,0.0,0.0,0.0,0.0,0.0,0.0,0.0,0.0,0.0,0.0,0.0,0.0,0.0,0.0,0.0,0.0,0.0,0.0,0.0,0.0,0.0,0.0,0.0,0.0,0.0,0.0,0.0,0.0,0.0,0.0,0.0,0.0,0.0,0.0,0.0,0.0,0.0,0.0,0.0,0.0,0.0,0.0,0.0,0.0,0.0,0.0,0.0,0.0,0.0,0.0,0.0,0.0,0.0,0.0,0.0,0.0,0.0,0.0,0.0,0.0,0.0,0.0,0.0,0.0,0.0,0.0,0.0,0.0,0.0,0.0,0.0,0.0,0.0,0.0,0.0,0.0,0.0,0.0,0.0,0.0,0.0,0.0,0.0,0.0,0.0,0.0,0.0,0.0,0.0,0.0,0.0,0.0,0.0,0.0,0.0,0.0,0.0,0.0,0.0,0.0,0.0,0.0,0.0,0.0,0.0,0.0,0.0,0.0,0.0,0.0,0.0,0.0,0.0,0.0,0.0,0.0,0.0,0.0,0.0,0.0,0.0,0.0,0.0,0.0,0.0,0.0,0.0,0.0,0.0,0.0,0.0,0.0,0.0,0.0,0.0,0.0,0.0,0.0,0.0,0.0,0.0,0.0,0.0,0.0,0.0,0.0,0.0,0.0,0.0,0.0,0.0,0.0,0.0,0.0,0.0,0.0,0.0,0.0,0.0,0.0,0.0,0.0,0.0,0.0,0.0,0.0,0.0,0.0,0.0,0.0,0.0,0.0,0.0,0.0,0.0,0.0,0.0,0.0,0.0,0.0,0.0,0.0,0.0,0.0,0.0,0.0,0.0,0.0,0.0,0.0,0.0,0.0,0.0,0.0,0.0,0.0,0.0,0.0,0.0,0.0,0.0,0.0,0.0,0.0,0.0,0.0,0.0,0.0,0.0,0.0,0.0,0.0,0.0,0.0,0.0,0.0,0.0,0.0,0.0,0.0,0.0,0.0,0.0,0.0,0.0,0.0,0.0,0.0,0.0,0.0,0.0,0.0,0.0,0.0,0.0,0.0,0.0,0.0,0.0,0.0,0.0,0.0,0.0,0.0,0.0,0.0,0.0,0.0,0.0,0.0,0.0,0.0,0.0,0.0,0.0,0.0,0.0,0.0,0.0,0.0,0.0,0.0,0.0,0.0,0.0,0.0,0.0,0.0,0.0,0.0,0.0,0.0,0.0,0.0,0.0,0.0,0.0,0.0,0.0,0.0,0.0,0.0,0.0,0.0,0.0,0.0,0.0,0.0,0.0,0.0,0.0,0.0,0.0,0.0,0.0,0.0,0.0,0.0,0.0,0.0,0.0,0.0,0.0,0.0,0.0,0.0,0.0,0.0,0.0,0.0,0.0,0.0,0.0,0.0,0.0,0.0,0.0,0.0,0.0,0.0,0.0,0.0,0.0,0.0,0.0,0.0,0.0,0.0,0.0,0.0,0.0,0.0,0.0,0.0,0.0,0.0,0.0,0.0,0.0,0.0,0.0,0.0,0.0,0.0,0.0,0.0,0.0,0.0,0.0,0.0,0.0,0.0,0.0,0.0,0.0,0.0,0.0,0.0,0.0,0.0,0.0,0.0,0.0,0.0,0.0,0.0,0.0,0.0,0.0,0.0,0.0,0.0,0.0,0.0,0.0,0.0,0.0,0.0,0.0,0.0,0.0,0.0,0.0,0.0,0.0,0.0,0.0,0.0,0.0,0.0,0.0,0.0,0.0,0.0,0.0,0.0,0.0,0.0,0.0,0.0,0.0,0.0,0.0,0.0,0.0,0.0,0.0,0.0,0.0,0.0,0.0,0.0,0.0,0.0,0.0,0.0,0.0,0.0,0.0,0.0,0.0,0.0,0.0,0.0,0.0,0.0,0.0,0.0,0.0,0.0,0.0,0.0,0.0,0.0,0.0,0.0,0.0,0.0,0.0,0.0,0.0,0.0,0.0,0.0,0.0,0.0,0.0,0.0,0.0,0.0,0.0,0.0,0.0,0.0,0.0,0.0,0.0,0.0,0.0,0.0,0.0,0.0,0.0,0.0,0.0,0.0,0.0,0.0,0.0,0.0,0.0,0.0,0.0,0.0,0.0,0.0,0.0,0.0,0.0,0.0,0.0,0.0,0.0,0.0,0.0,0.0,0.0,0.0,0.0,0.0,0.0,0.0,0.0,0.0,0.0,0.0,0.0,0.0,0.0,0.0,0.0,0.0,0.0,0.0,0.0,0.0,0.0,0.0,0.0,0.0,0.0,0.0,0.0,0.0,0.0,0.0,0.0,0.0,0.0,0.0,0.0,0.0,0.0,0.0,0.0,0.0,0.0,0.0,0.0,0.0,0.0,0.0,0.0,0.0,0.0,0.0,0.0,0.0,0.0,0.0,0.0,0.0,0.0,0.0,0.0,0.0,0.0,0.0,0.0,0.0,0.0,0.0,0.0,0.0,0.0,0.0,0.0,0.0,0.0,0.0,0.0,0.0,0.0,0.0,0.0,0.0,0.0,0.0,0.0,0.0,0.0,0.0,0.0,0.0,0.0,0.0,0.0,0.0,0.0,0.0,0.0,0.0,0.0,0.0,0.0,0.0,0.0,0.0,0.0,0.0,0.0,0.0,0.0,0.0,0.0,0.0,0.0,0.0,0.0,0.0,0.0,0.0,0.0,0.0,0.0,0.0,0.0,0.0,0.0,0.0,0.0,0.0,0.0,0.0,0.0,0.0,0.0,0.0,0.0,0.0,0.0,0.0,0.0,0.0,0.0,0.0,0.0,0.0,0.0,0.0,0.0,0.0,0.0,0.0,0.0,0.0,0.0,0.0,0.0,0.0,0.0,0.0,0.0,0.0,0.0,0.0,0.0,0.0,0.0,0.0,0.0,0.0,0.0,0.0,0.0,0.0,0.0,0.0,0.0,0.0,0.0,0.0,0.0,0.0,0.0,0.0,0.0,0.0,0.0,0.0,0.0,0.0,0.0,0.0,0.0,0.0,0.0,0.0,0.0,0.0,0.0,0.0,0.0,0.0,0.0,0.0,0.0,0.0,0.0,0.0,0.0,0.0,0.0,0.0,0.0,0.0,0.0,0.0,0.0,0.0,0.0,0.0,0.0,0.0,0.0,0.0,0.0,0.0,0.0,0.0,0.0,0.0,0.0,0.0,0.0,0.0,0.0,0.0,0.0,0.0,0.0,0.0,0.0,0.0,0.0,0.0,0.0,0.0,0.0,0.0,0.0,0.0,0.0,0.0,0.0,0.0,0.0,0.0,0.0,0.0,0.0,0.0,0.0,0.0,0.0,0.0,0.0,0.0,0.0,0.0,0.0,0.0,0.0,0.0,0.0,0.0,0.0,0.0,0.0,0.0,0.0,0.0,0.0,0.0,0.0,0.0,0.0,0.0,0.0,0.4362,0.0,0.0,0.0,0.0,0.0,0.0,0.0,0.0,0.0,0.0,0.0,0.0,0.0,0.0,0.0,0.0,0.0,0.0,0.0,0.0,0.0,0.0,0.0,0.0,0.0,0.0,0.0,0.0,0.0,0.0,0.0,0.0,0.0,0.0,0.0,0.0,0.0,0.0,0.0,0.0,0.0,0.0,0.0,0.0,0.0,0.0,0.0,0.0,0.0,0.0,0.0,0.0,0.0,0.0,0.0,0.0,0.0,0.0,0.0,0.0,0.0,0.0,0.0,0.0,0.0,0.0,0.0,0.0,0.0,0.0,0.0,0.0,0.0,0.0,0.0,0.0,0.0,0.0,0.0,0.0,0.0,0.0,0.0,0.0,0.0,0.0,0.0,0.0,0.0,0.0,0.0,0.0,0.0,0.0,0.0,0.0,0.0,0.0,0.0,0.0,0.0,0.0,0.0,0.0,0.0,0.0,0.0,0.0,0.0,0.0,0.0,0.0,0.0,0.0,0.0,0.0,0.2624,0.0,0.0,0.0,0.0,0.0,0.0,0.0,0.0,0.0,0.0,0.0,0.0,0.0,0.0,0.0,0.0,0.0,0.0,0.0,0.0,0.0,0.0,0.0,0.0,0.0,0.0,0.0,0.0,0.0,0.0,0.0,0.0,0.0,0.0,0.0,0.0,0.0,0.0,0.0,0.0,0.0,0.0,0.0,0.0,0.0,0.0,0.0,0.0,0.0,0.0,0.0,0.0,0.0,0.0,0.0,0.0,0.0,0.0,0.0,0.0,0.0,0.0,0.0,0.0,0.0,0.0,0.0,0.0,0.0,0.0,0.0,0.0,0.0,0.0,0.0,0.0,0.0,0.0,0.0,0.0,0.0,0.0,0.0,0.0,0.0,0.0,0.0,0.0,0.0,0.0,0.0,0.0,0.0,0.0,0.0,0.0,0.0,0.0,0.0,0.0,0.0,0.0,0.0,0.0,0.0,0.0,0.0,0.0,-0.6836,-0.7241,-0.632,-0.7234,-0.8522,-0.9656,-0.3876,-0.1142,-0.0637,0.1059,0.0,0.0,0.0,0.0,0.0,0.0,0.0,0.0,0.0,0.0,0.0,0.0,0.0,0.0,0.0,0.0,0.0,0.0,0.0,0.0,0.0,0.0,0.0,0.0,0.0,0.0,0.0,0.0,0.0,0.0,0.0,0.0,0.0,0.0,0.0,0.0,0.0,3.1836,3.3258,3.3341,3.378,3.4348,3.2036,0.0,0.0,0.0,0.0,0.0,0.0,0.0,0.0,0.0,0.0,0.0,0.0,0.0,0.0,0.0,0.0,0.0,0.0,0.0,0.0,0.0,0.0,0.0,0.0,0.0,0.0,0.0,0.0,0.0,0.0,0.0,0.0,0.0,0.0,0.0,0.0,0.0,0.0,0.0,0.0,0.0,0.0,0.0,1.0696,0.8835,0.0,0.0,0.0,0.0,0.0,0.0,0.0,0.0,0.0,0.0,0.0,0.0,0.0,-0.5102,-0.7342,-0.6753,-0.6903,-0.771,-0.8644,-0.8995,-0.8995,-0.9217,-0.9665,-1.0071,-0.8686,0.0,-0.4156,-0.3052,0.0,0.0,0.0,0.0,0.0,0.0,0.0,0.0,0.0,0.0,0.0,0.0,0.0,0.0,0.0,0.0,0.0,0.0,0.0,0.0,0.0,0.0,0.0,0.0,0.0,0.0,0.0,0.0,0.0,0.0,0.0,0.0,0.0,0.0,0.0,0.0,3.2291,3.3577,3.424,3.4666,3.5332,3.6061,3.4933,3.3698,3.2383,3.1372,0.0,0.0,0.0,0.0,0.0,0.0,0.0,0.0,0.0,0.0,0.0,0.0,0.0,0.0,0.0,0.0,0.0,0.0,0.0,0.0,0.0,0.0,0.0,0.0,0.0,0.0,0.0,0.0,0.0,0.0,0.0,0.0,0.0,0.0,0.0,0.0,0.0,0.0,0.0,1.0992,0.8635,0.6651,0.6328,0.5755,0.0,0.0,0.0,0.0,0.0,0.0,0.0,0.0,0.0,-0.5347,-0.6234,-0.7463,-0.9177,-0.9305,-0.9725,-1.0299,-1.0647,-1.0973,-1.111,-1.1327,-1.1451,-1.1549,-1.0823,-0.9548,-0.8003,-0.5683,-0.4143,-0.3185,0.0,0.0,0.0,0.0,-0.0865,-0.1012,0.0,0.0,0.0,0.0,0.0,0.0,0.0,0.0,0.0,0.0,0.0,0.0,0.0,0.0,0.0,3.1746,0.0,0.0,0.0,0.0,0.0,0.0,0.0,0.0,0.0,0.0,0.0,3.179,3.3749,3.4969,3.553,3.6127,3.6725,3.7268,3.6985,3.5756,3.393,3.2816,3.1362,0.0,0.0,0.0,0.0,0.0,0.0,0.0,0.0,0.0,0.0,0.0,0.0,0.0,0.0,0.0,0.0,0.0,0.0,0.0,0.0,0.0,0.0,0.0,0.0,0.0,0.0,0.0,0.0,0.0,0.0,0.0,0.0,0.0,0.0,0.0,0.0,0.0,0.0,0.7851,0.6162,0.4396,0.4025,0.3336,0.0,0.0,0.0,0.0,0.0,0.0,-0.5931,-0.6084,-0.6741,-0.8212,-0.8834,-0.9737,-1.0972,-1.1415,-1.1944,-1.2483,-1.2651,-1.275,-1.2939,-1.3088,-1.317,-1.3244,-1.2244,-1.1629,-1.1148,-0.7919,-0.6437,-0.6069,-0.433,-0.354,-0.3314,-0.331,-0.3198,-0.313,0.0,0.0,0.0,0.0,0.0,0.0,0.0,0.0,0.0,0.0,0.0,0.0,0.0,0.0,3.1838,3.343,3.216,3.1519,0.0,0.0,0.0,0.0,0.0,0.0,0.0,0.0,0.0,3.3369,3.4207,3.5799,3.8011,3.8047,3.8083,3.8101,3.686,3.5881,3.5075,3.4237,3.2727,3.0781,0.0,0.0,0.0,0.0,0.0,0.0,0.0,0.0,0.0,0.0,0.0,0.0,0.0,0.0,0.0,0.0,0.0,0.0,0.0,0.0,0.0,0.0,0.0,0.0,0.0,0.0,0.0,0.0,0.0,0.0,0.0,0.0,0.0,0.0,0.0,0.0,0.0,0.0,0.0,0.1014,0.0084,0.0,0.0,0.0,0.0,-0.3749,-0.4791,-0.7052,-1.084,-0.9642,-0.9743,-1.1465,-1.1585,-1.2331,-1.3777,-1.3074,-1.3278,-1.4475,-1.4366,-1.4366,-1.4379,-1.4366,-1.4539,-1.4698,-1.354,-1.3124,-1.3031,-1.0113,-0.8732,-0.834,-0.824,-0.761,-0.6912,-0.7175,-0.6839,-0.6218,0.0,0.0,0.0,0.0,0.0,0.0,0.0,0.0,0.0,0.0,0.0,0.0,0.0,3.2071,3.2769,3.2863,3.2824,3.2445,3.1579,0.0,0.0,0.0,0.0,0.0,0.0,0.0,3.2657,3.3504,3.529,3.6322,3.6678,3.7196,3.7685,3.8192,3.7954,3.7288,3.6233,3.416,3.2317,3.0664,2.9723,2.8742,0.0,0.0,0.0,0.0,0.0,0.0,0.0,0.0,0.0,0.0,0.0,0.0,0.0,0.0,0.0,0.0,0.0,0.0,0.0,0.0,0.0,0.0,0.0,0.0,0.0,0.0,0.0,0.0,0.0,0.0,0.0,0.0,0.0,0.0,0.0,0.0,0.0,-0.0276,-0.2341,0.0,-0.381,-0.5297,-0.6498,-0.7209,-0.7735,-0.9151,-1.1531,-1.1749,-1.2248,-1.3171,-1.3863,-1.4546,-1.5393,-1.5575,-1.5752,-1.5938,-1.6077,-1.5694,-1.4878,-1.5,-1.458,-1.3659,-1.351,-1.3152,-1.2492,-1.1552,-1.0781,-0.9981,-0.9363,-0.8912,-0.8543,-0.847,-0.8123,-0.766,0.0,0.0,0.0,0.0,0.0,0.0,0.0,0.0,0.0,0.0,0.0,3.1092,3.145,3.277,3.3658,3.3677,3.3411,3.29,3.2013,0.0,0.0,0.0,2.953,0.0,0.0,3.2183,3.3356,3.3855,3.5442,3.6064,3.5815,3.634,3.6884,3.738,3.7595,3.7117,3.6078,3.4219,3.2574,3.1113,3.0497,2.9534,2.8317,0.0,0.0,0.0,0.0,0.0,0.0,0.0,0.0,0.0,0.0,0.0,0.0,0.0,0.0,0.0,0.0,0.0,0.0,0.0,0.0,0.0,0.0,0.0,0.0,0.0,0.0,0.0,0.0,0.0,0.0,0.0,0.0,0.0,0.0,-0.0177,-0.222,-0.231,-0.4648,-0.621,-0.597,-0.8051,-0.9524,-0.9845,-1.0776,-1.1743,-1.2757,-1.3646,-1.4479,-1.5133,-1.5766,-1.6373,-1.7002,-1.7202,-1.7281,-1.712,-1.7023,-1.6592,-1.574,-1.5759,-1.5196,-1.4257,-1.4044,-1.3613,-1.304,-1.2792,-1.2228,-1.1493,-1.0616,-1.0014,-0.9611,-0.9423,-0.8888,-0.825,0.0,0.0,0.0,0.0,0.0,0.0,0.0,0.0,0.0,0.0,3.049,3.1449,3.2315,3.3203,3.4377,3.5969,3.3847,3.273,3.3469,3.1185,0.0,0.0,0.0,0.0,3.1102,3.1901,3.3075,3.4557,3.4575,3.4998,3.5725,3.5751,3.5755,3.577,3.5704,3.5247,3.4579,3.4531,3.3643,3.2256,3.1432,3.0572,2.9666,0.0,0.0,0.0,0.0,0.0,0.0,0.0,0.0,0.0,0.0,0.0,0.0,0.0,0.0,0.0,0.0,0.0,0.0,0.0,0.0,0.0,0.0,0.0,0.0,0.0,0.0,0.0,0.0,0.0,0.0,0.0,0.0,0.0,-0.1323,-0.2347,-0.3613,-0.526,-0.6885,-0.8095,-0.8754,-1.0384,-1.1558,-1.1793,-1.362,-1.4727,-1.4715,-1.5494,-1.6337,-1.7267,-1.7368,-1.7766,-1.8515,-1.7866,-1.7611,-1.7979,-1.7442,-1.7144,-1.7008,-1.6639,-1.6548,-1.6556,-1.5234,-1.4772,-1.4757,-1.3751,-1.3145,-1.2837,-1.2192,-1.1227,-1.0255,-1.0242,-0.9342,-0.7962,0.0,0.0,0.0,0.0,0.0,0.0,0.0,0.0,0.0,0.0,3.0865,3.1958,3.2279,3.3677,3.451,3.4396,3.3164,3.2237,3.1805,0.0,0.0,0.0,0.0,0.0,3.1937,3.2708,3.3325,3.3712,3.4322,3.4413,3.4062,3.4654,3.4915,3.4938,3.4907,3.4811,3.4579,3.4531,3.3947,3.3085,3.2774,3.1849,3.052,0.0,0.0,0.0,0.0,0.0,0.0,0.0,0.0,0.0,0.0,0.0,0.0,0.0,0.0,0.0,0.0,0.0,0.0,0.0,0.0,0.0,0.0,0.0,0.0,0.0,0.0,0.0,0.0,0.0,0.0,0.0,-0.0927,-0.2431,-0.2767,-0.4917,-0.6567,-0.7123,-0.904,-1.025,-1.0184,-1.1642,-1.2886,-1.3408,-1.4458,-1.5206,-1.5261,-1.6555,-1.7304,-1.7339,-1.8474,-1.9065,-1.9109,-1.9281,-1.9297,-1.9241,-1.9164,-1.868,-1.7726,-1.7667,-1.6978,-1.5914,-1.5867,-1.5251,-1.422,-1.3814,-1.313,-1.2381,-1.2311,-1.1908,-1.1404,-1.1393,-1.0399,-0.8935,0.0,0.0,0.0,0.0,0.0,0.0,0.0,0.0,0.0,0.0,3.0771,3.1676,3.1788,3.3033,3.3657,3.3202,3.2387,3.167,3.1126,0.0,0.0,0.0,0.0,3.1538,3.2744,3.3187,3.3587,3.3903,3.4019,3.3876,3.3411,3.3869,3.4027,3.3867,3.4023,3.4016,3.39,3.4328,3.4252,3.3897,3.4132,3.3304,3.1775,3.1416,3.0825,3.0186,2.9888,2.9772,2.9615,2.8987,0.0,0.0,0.0,0.0,0.0,0.0,0.0,0.0,0.0,0.0,0.0,0.0,0.0,0.0,0.0,0.0,0.0,0.0,0.0,0.0,0.0,0.0,0.0,0.0,-0.3381,-0.4797,-0.5628,-0.7198,-0.8434,-0.9036,-1.0577,-1.158,-1.1755,-1.3109,-1.4227,-1.4526,-1.5868,-1.6587,-1.655,-1.7663,-1.8474,-1.8592,-1.9453,-1.9815,-1.9755,-1.9925,-1.9887,-1.9711,-1.9373,-1.8873,-1.8239,-1.8176,-1.7488,0.0,-1.6542,-1.5791,-1.4441,-1.4013,-1.3218,0.0,0.0,0.0,0.0,0.0,-1.0695,-0.9773,0.0,0.0,0.0,0.0,0.0,0.0,0.0,0.0,0.0,0.0,0.0,3.1035,3.1087,3.1784,3.2274,3.2274,3.1517,3.1009,0.0,0.0,0.0,3.0265,3.1564,3.2653,3.3375,3.3393,3.3749,3.4467,3.3749,3.3393,3.3393,3.3393,3.3196,3.2816,3.3142,3.3066,3.2831,3.3896,3.437,3.4438,3.5284,3.4661,3.3148,3.2495,3.245,3.2613,3.2067,3.1818,3.1636,3.099,0.0,0.0,0.0,0.0,0.0,0.0,0.0,0.0,0.0,0.0,0.0,0.0,0.0,0.0,0.0,0.0,0.0,0.0,0.0,0.0,0.0,0.0,0.0,0.0,-0.5633,-0.758,-0.9012,-0.9224,-0.9699,-1.0834,-1.1591,-1.2378,-1.3137,-1.4521,-1.5382,-1.544,-1.7244,-1.8254,-1.7903,0.0,0.0,0.0,0.0,-2.0081,-2.0037,-1.991,-1.9697,-1.9543,-1.8745,-1.8431,-1.8623,-1.835,-1.7925,-1.7468,-1.7225,-1.6328,-1.5036,-1.4355,-1.3412,-1.2438,-1.1985,-1.1681,-1.1498,-1.08,-1.0485,-1.0421,0.0,0.0,0.0,0.0,0.0,0.0,0.0,0.0,0.0,2.9588,3.0434,3.1035,3.1087,3.1292,3.144,3.144,3.0648,3.0122,0.0,0.0,3.066,3.1283,3.1944,3.2653,3.3375,3.3393,3.349,3.3647,3.349,3.3393,3.3393,3.3393,3.3201,3.2791,3.2595,3.2301,3.2021,3.3131,3.3609,3.3744,3.5081,3.4964,3.3952,3.3801,3.3317,3.2746,3.321,3.2994,3.2464,3.2315,3.1388,3.0179,2.945,2.8626,0.0,0.0,0.0,0.0,0.0,0.0,0.0,0.0,0.0,0.0,0.0,0.0,0.0,0.0,0.0,0.0,0.0,0.0,0.0,-0.4905,-0.6731,-0.8416,-1.0356,-1.0773,-1.0949,-1.1184,-1.2134,-1.2986,-1.3537,-1.4933,-1.597,-1.65,-1.7475,-1.802,-1.7953,-1.8985,-1.9272,-1.8717,-1.9491,-1.974,-1.923,-1.9219,-1.9206,-1.9331,0.0,0.0,-1.8814,-1.8245,-1.7921,-1.7755,-1.7338,-1.6381,-1.5103,-1.4959,-1.399,-1.25,-1.1907,-1.1619,-1.1498,-1.08,-1.0485,-1.0421,0.0,0.0,0.0,0.0,0.0,0.0,0.0,0.0,0.0,0.0,2.9944,3.0114,2.9792,3.0185,3.011,2.9278,2.9202,0.0,0.0,3.0632,3.1277,3.1452,3.2462,3.3176,3.3393,3.3393,3.3393,3.3393,3.3393,3.3393,3.3393,3.3393,3.3099,3.2548,3.235,3.2176,3.2042,3.2998,3.3609,3.4049,3.5165,3.5284,3.4829,3.4784,3.4585,3.4336,3.4336,3.4104,3.3673,3.2945,3.1967,3.0898,3.0195,2.9386,2.858,0.0,0.0,0.0,0.0,0.0,0.0,0.0,0.0,0.0,0.0,0.0,0.0,0.0,0.0,0.6436,0.2825,0.0,-0.2657,-0.6232,-0.8051,-0.9389,-1.0632,-1.1709,-1.2169,-1.166,-1.266,-1.3471,-1.3755,-1.5313,-1.647,-1.6815,-1.7755,-1.8486,-1.8804,-1.9092,-1.921,-1.9086,-1.9354,-1.9278,-1.9014,-1.9,-1.9036,-1.9088,-1.8655,-1.8414,-1.8385,-1.793,-1.7506,-1.7232,-1.7294,-1.6384,-1.478,-1.4076,-1.33,-1.2421,-1.2002,-1.1872,-1.1809,-1.1303,-1.124,-1.124,0.0,0.0,0.0,0.0,0.0,0.0,0.0,0.0,0.0,0.0,2.9381,2.9064,2.8462,2.8744,2.85,0.0,0.0,0.0,0.0,3.1066,3.1837,3.1452,3.2959,3.3698,3.3481,3.3422,3.3393,3.3393,3.3393,3.3393,3.3393,3.3393,3.3039,3.2382,3.2539,3.2596,3.2605,3.3386,3.4075,3.4686,3.5362,3.5549,3.5429,3.5186,3.5302,3.5544,3.4899,3.4502,3.4104,3.3044,3.2017,3.1064,3.0659,2.9972,2.9123,2.8199,2.7963,0.0,0.0,0.0,0.0,0.0,0.0,0.0,0.0,1.5677,1.3593,1.1344,0.852,0.5384,0.1815,-0.0835,-0.365,-0.7334,-0.9013,-1.0042,-1.0748,-1.214,-1.2925,-1.2344,-1.3296,-1.4103,-1.4147,-1.5798,-1.7043,-1.7203,-1.8203,-1.895,-1.9426,-1.9288,-1.924,-1.9572,-1.9151,-1.8875,-1.8701,-1.8705,-1.8685,-1.8586,-1.8031,-1.7839,-1.7819,-1.7553,-1.7144,-1.6698,-1.69,-1.6104,-1.4551,-1.3108,-1.2467,-1.2461,-1.2212,-1.2182,-1.2189,-1.1934,-1.1934,-1.2127,0.0,0.0,0.0,0.0,0.0,0.0,0.0,0.0,0.0,0.0,0.0,0.0,0.0,0.0,0.0,0.0,0.0,0.0,2.9625,3.1127,3.2004,3.2002,3.3155,3.3807,3.3753,3.352,3.3393,3.3393,3.3393,3.3393,3.3393,3.3393,3.3171,3.2763,3.3484,3.3632,3.3439,3.4523,3.5036,3.5132,3.5477,3.5503,3.527,3.4554,3.4308,3.4176,3.4001,3.3077,3.205,3.2531,3.1338,2.9764,3.0344,2.9972,2.9187,2.8199,2.7786,2.7219,2.5168,2.3347,2.1835,2.1094,1.9875,1.8337,0.0,1.4164,1.2035,0.9994,0.6756,0.3591,0.1023,-0.1458,-0.4241,-0.7872,-0.9069,-1.013,-1.1671,-1.2265,-1.2736,-1.3022,-1.4497,-1.5304,-1.4916,-1.6366,-1.7694,-1.8432,-1.8789,-1.9034,-1.9034,-1.9383,-1.9228,-1.8529,-1.876,-1.8547,-1.7777,-1.7935,-1.778,-1.7389,-1.7478,-1.7553,-1.7532,-1.7386,-1.7266,-1.7134,-1.5674,-1.5055,-1.501,-1.3285,-1.2782,-1.2933,-1.2492,-1.2367,-1.2498,-1.2182,-1.2065,-1.2127,0.0,0.0,0.0,0.0,0.0,0.0,0.0,0.0,0.0,0.0,0.0,0.0,0.0,0.0,0.0,0.0,0.0,0.0,2.8946,3.1017,3.2202,3.2103,3.3486,3.4197,3.4049,3.3907,3.3779,3.3622,3.3622,3.3567,3.3393,3.3393,3.3442,3.352,3.3854,3.4331,3.4846,3.5109,3.5462,3.5852,3.5865,3.544,3.4656,3.3617,3.2849,3.232,3.1971,3.1094,0.0,3.0112,2.9573,2.8976,2.9208,2.9413,2.9208,2.7653,2.7713,2.7731,2.5063,2.3464,2.2234,2.1162,2.0203,1.9051,1.7306,1.4959,1.256,1.0605,0.7282,0.3939,0.1133,-0.1838,-0.4835,-0.7975,-0.9662,-1.0885,-1.1837,-1.2547,-1.3001,-1.2982,-1.423,-1.5045,-1.4596,-1.6126,-1.7114,-1.7182,-1.7591,-1.8091,-1.8533,-1.8668,-1.8572,-1.8271,-1.8299,-1.8005,-1.7376,-1.7567,-1.7539,-1.7346,-1.7389,-1.7386,-1.7376,-1.7143,-1.6875,-1.6554,-1.5478,-1.4909,-1.4698,-1.3579,-1.3186,-1.331,-1.3091,-1.292,-1.2805,-1.2367,-1.2313,-1.2375,0.0,0.0,0.0,0.0,0.0,0.0,0.0,0.0,0.0,0.0,0.0,0.0,0.0,0.0,0.0,0.0,0.0,0.0,0.0,3.0486,3.1826,3.2144,3.3515,3.4252,3.4316,3.4235,3.4105,3.3927,3.3907,3.3811,3.3622,3.3777,3.4018,3.4299,3.4663,3.5316,3.613,3.5754,3.6012,3.6557,3.5958,3.5326,3.4465,3.2918,3.1696,3.0768,3.0061,2.9353,2.8665,2.813,2.7893,2.7873,2.7992,2.839,2.8549,2.7062,2.7171,2.7243,2.4762,2.3578,2.2679,2.1281,2.0278,1.9218,1.79,1.5422,1.2929,1.1148,0.7811,0.4372,0.1302,-0.2001,-0.515,-0.817,-1.01,-1.1401,-1.1997,-1.2864,-1.3252,-1.2955,-1.4086,-1.4872,-1.4793,-1.613,-1.6828,-1.6593,-1.7079,-1.759,-1.8014,-1.793,-1.7908,-1.7903,-1.7875,-1.7567,-1.7112,-1.7287,-1.7349,-1.7276,-1.7124,-1.7084,-1.6946,-1.6613,-1.6285,-1.5999,-1.5352,-1.4883,-1.4469,-1.3803,-1.3511,-1.3511,-1.3511,-1.3277,-1.2989,-1.2613,-1.256,-1.2621,0.0,0.0,0.0,0.0,0.0,0.0,0.0,0.0,0.0,0.0,0.0,0.0,0.0,0.0,2.4849,2.576,2.5903,2.6611,2.8204,2.9341,3.0672,3.2241,3.2973,3.3717,3.4583,3.4316,3.4213,3.4203,3.4191,3.4192,3.4182,3.4726,3.4962,3.5024,3.6345,3.6939,3.6949,3.6761,3.6943,3.721,3.5514,3.5015,3.5025,3.2686,3.1082,2.9901,2.8699,2.806,2.7786,2.7444,2.6722,2.6114,2.6895,2.7033,2.6802,2.651,2.5847,2.5019,2.4133,2.325,2.2268,2.1168,1.9637,1.8086,1.6947,1.4841,1.2529,1.0895,0.7718,0.4253,0.1249,-0.1914,-0.5116,-0.8484,-1.0139,-1.1327,-1.2159,-1.3034,-1.3461,-1.3214,-1.4296,-1.5411,-1.6175,-1.6729,-1.727,-1.7639,-1.8067,-1.7995,-1.7375,-1.7504,-1.7501,-1.7219,-1.7439,-1.7277,-1.6818,-1.6937,-1.6888,-1.6623,-1.6602,-1.642,-1.6134,-1.5768,-1.5768,-1.5874,-1.5059,-1.4715,-1.4647,-1.3803,-1.3511,-1.3511,-1.3511,-1.3277,-1.2989,-1.2989,-1.2805,-1.2621,0.0,0.0,0.0,0.0,0.0,0.0,0.0,0.0,0.0,0.0,0.0,0.0,0.0,0.0,0.0,0.0,2.5662,2.6271,2.6865,2.8859,3.025,3.0739,3.2101,3.3203,3.3998,3.3898,3.4047,3.4468,3.3883,3.3801,3.4207,3.4379,3.4946,3.5836,3.6835,3.7453,3.7724,3.6773,3.7086,3.7942,3.5142,3.4227,3.4268,3.1461,2.9799,2.8768,0.0,2.6806,2.659,2.6643,2.6495,2.633,2.6507,2.6759,2.6896,2.6438,2.5982,2.5466,2.4684,2.4326,2.3882,2.2789,2.1313,2.0005,1.9364,1.681,1.4059,1.2177,0.9407,0.6207,0.2535,-0.0722,-0.3891,-0.6947,-0.9299,-1.1235,-1.284,-1.2844,-1.3078,-1.4081,-1.4122,-1.4463,-1.5529,-1.579,-1.6225,-1.6978,-1.6544,-1.6326,-1.6628,-1.6805,-1.693,-1.6911,-1.7093,-1.6987,-1.6696,-1.6696,-1.6738,-1.6751,-1.6797,-1.6504,-1.5932,-1.6141,-1.5931,-1.54,-1.5177,-1.4834,-1.4556,-1.4258,-1.4139,-1.4139,-1.4139,-1.395,-1.3649,-1.3649,-1.3459,-1.3094,0.0,0.0,0.0,0.0,0.0,0.0,0.0,0.0,0.0,0.0,0.0,0.0,0.0,0.0,0.0,0.0,0.0,2.5899,2.6544,2.7913,2.9083,2.9934,3.108,3.2203,3.3294,3.3031,3.3183,3.3809,3.3004,3.2909,3.3525,3.3771,3.4285,3.5066,3.6076,3.6644,3.6847,3.606,3.6096,3.6453,3.4023,3.2931,3.2527,3.0244,2.8947,0.0,2.6962,2.64,2.6206,2.6295,2.6183,2.6034,2.6016,2.616,2.627,2.605,2.5974,2.5894,2.5297,2.5091,2.4822,2.3657,2.1978,2.05,1.997,1.7335,1.4453,1.2597,1.0318,0.7492,0.3761,0.038,-0.2689,-0.5594,-0.8225,-1.0506,-1.2221,-1.2536,-1.2885,-1.3989,-1.4128,-1.4473,-1.5425,-1.5368,-1.5546,-1.6347,-1.588,-1.5782,-1.6138,-1.6316,-1.6494,-1.6681,-1.6739,-1.6711,-1.6581,-1.657,-1.661,-1.6629,-1.6599,-1.6252,-1.5605,-1.5796,-1.5536,-1.4951,-1.4951,-1.4784,-1.4515,-1.4515,-1.4515,-1.4515,-1.4515,-1.4327,-1.3992,-1.3859,-1.3647,-1.339,0.0,0.0,0.0,0.0,0.0,0.0,0.0,0.0,0.0,0.0,0.0,0.0,0.0,0.0,0.0,0.0,0.0,0.0,2.7145,2.6588,2.7258,2.962,2.9889,3.0753,3.2374,3.1664,3.1597,3.2276,3.1566,3.1564,3.2234,3.2918,3.3122,3.2952,3.4268,3.4731,3.4559,3.4603,3.4102,3.3145,3.2213,3.1217,3.0127,2.9127,2.8429,2.7946,2.7262,2.6792,2.6485,2.6435,2.5949,2.5364,2.553,2.5313,2.5102,2.5433,2.5901,2.6218,2.5893,2.5604,2.5113,2.3914,2.1765,1.9711,1.8892,1.6436,1.3917,1.2336,1.0547,0.8191,0.4765,0.1561,-0.1503,-0.4423,-0.7066,-0.9254,-1.0834,-1.2141,-1.2949,-1.3153,-1.4418,-1.5444,-1.5808,-1.5488,-1.5438,-1.5773,0.0,-1.6168,-1.5934,-1.6009,-1.6181,-1.6374,-1.6431,-1.6477,-1.6637,-1.6606,-1.6496,-1.6278,-1.6038,-1.5632,-1.5149,-1.4732,-1.4506,-1.4515,-1.4515,-1.4515,-1.4515,-1.4488,-1.4478,-1.4478,-1.446,-1.4204,-1.3903,-1.3482,-1.3403,-1.3416,0.0,0.0,0.0,0.0,0.0,0.0,0.0,0.0,0.0,0.0,0.0,0.0,0.0,0.0,0.0,0.0,0.0,0.0,2.6441,2.6448,2.6689,2.7271,2.7962,2.8782,2.9749,2.9565,2.9817,3.0538,3.0303,3.0541,3.1205,3.1958,3.2505,3.2849,3.3655,3.3876,3.3581,3.2706,3.2864,3.3481,3.0783,3.0211,3.0786,2.8586,2.7618,2.7392,2.7058,2.6775,2.6606,2.6775,2.6995,2.7129,2.6737,2.6664,2.6776,2.7251,2.7324,2.7281,2.7366,2.7189,2.6725,2.5807,2.3781,2.174,2.0806,1.8159,1.5329,1.3166,1.1727,0.9818,0.6346,0.2603,-0.0826,-0.3426,-0.7266,-1.0643,-1.2473,-1.2946,-1.3446,-1.4481,-1.4696,-1.4926,-1.5204,-1.57,-1.5924,-1.5772,-1.5782,-1.5908,-1.6009,-1.6056,-1.6181,-1.6374,-1.6477,-1.6581,-1.6761,-1.6611,-1.631,-1.5911,-1.5862,-1.5431,-1.4702,-1.4936,-1.4843,-1.4515,-1.4515,-1.4515,-1.4488,-1.4176,-1.4047,-1.4011,-1.3717,-1.3309,-1.288,-1.2785,-1.2586,-1.2486,0.0,0.0,0.0,0.0,0.0,0.0,0.0,0.0,0.0,0.0,0.0,0.0,0.0,0.0,0.0,0.0,0.0,0.0,0.0,2.6187,2.6008,2.6365,2.6873,2.7491,2.8303,2.8324,2.8488,2.8844,2.9166,2.9485,2.9814,3.0603,3.1054,3.1255,3.1942,3.2037,3.1689,3.1327,3.1253,0.0,0.0,2.8938,2.8914,2.7736,2.7198,2.7087,2.6942,2.6842,2.6809,2.7097,2.7267,2.7351,2.7221,2.7321,2.7544,2.7964,2.7867,2.7639,2.779,2.7442,2.6827,2.5945,2.4039,2.2142,2.1081,1.8614,1.6043,1.4297,1.2828,1.0966,0.8021,0.3687,-0.0196,-0.2512,-0.6856,-1.0591,-1.2376,-1.3006,-1.3589,-1.4594,-1.5142,-1.5458,-1.5488,-1.5979,-1.6265,-1.6181,-1.6239,-1.6228,-1.6114,-1.6181,-1.6306,-1.6384,-1.6524,-1.6684,-1.6909,-1.6873,-1.6624,-1.6127,-1.5748,-1.5219,-1.4566,-1.441,-1.4344,-1.4231,0.0,-1.4341,-1.4478,-1.4057,-1.3882,-1.3864,-1.3635,-1.3267,-1.2848,-1.2737,-1.2586,-1.2339,0.0,0.0,0.0,0.0,0.0,0.0,0.0,0.0,0.0,0.0,0.0,0.0,0.0,0.0,0.0,0.0,0.0,0.0,0.0,0.0,0.0,0.0,2.6288,2.6593,2.7358,2.7363,2.73,2.7163,2.8063,2.8366,2.8143,2.9045,2.9249,2.8899,2.9684,2.9765,2.9404,3.0122,2.944,2.7982,2.8443,2.7687,2.6394,0.0,0.0,2.7007,2.6926,2.6942,2.7027,2.7289,2.7242,2.7046,2.752,2.7808,2.7961,2.8207,2.8012,2.7697,2.7599,2.7094,2.6378,2.5464,2.3654,2.1811,2.0706,1.85,1.638,1.5292,1.3782,1.1884,0.9296,0.4766,0.0497,-0.2128,-0.6384,-0.9958,-1.1833,-1.2902,-1.3785,-1.447,-1.5734,-1.6404,-1.6259,-1.6436,-1.6652,-1.6807,-1.6957,-1.6768,-1.6171,-1.6306,-1.641,-1.6348,-1.6434,-1.6581,-1.6847,-1.6917,-1.6721,-1.6246,-1.5427,-1.4824,-1.4397,-1.3666,-1.3479,-1.38,-1.38,0.0,-1.4396,-1.3974,-1.3837,-1.3873,-1.3761,-1.3421,-1.3049,-1.2649,-1.2522,-1.2314,0.0,0.0,0.0,0.0,0.0,0.0,0.0,0.0,0.0,0.0,2.6753,2.768,0.0,0.0,0.0,0.0,0.0,0.0,0.0,0.0,0.0,0.0,2.5729,2.5478,2.5631,2.5631,2.5545,2.534,2.6767,2.6983,2.6135,2.7619,2.7851,2.7077,2.7798,2.7912,2.7661,2.8172,2.8094,2.7604,2.7639,2.7411,2.7123,0.0,0.0,0.0,2.6942,2.6842,2.6843,2.7324,2.7931,2.8561,2.896,2.9075,2.9092,2.9161,2.8741,2.8145,2.7737,2.7565,2.7396,2.665,2.4509,2.2469,2.1961,1.9297,1.6598,1.5337,1.4542,1.2805,0.8737,0.5078,0.1225,-0.3286,-0.7124,-1.0622,-1.3696,-1.4048,-1.4604,-1.6307,-1.6489,-1.6576,-1.6842,-1.76,-1.7765,-1.6864,-1.7124,-1.7014,-1.64,-1.6374,-1.6311,-1.6134,-1.5797,-1.5765,-1.6016,-1.5321,-1.4976,-1.4933,-1.4062,-1.3604,-1.3504,-1.335,-1.3332,-1.3396,-1.3396,0.0,-1.3956,-1.3561,-1.3589,-1.3789,-1.2932,-1.2265,-1.1688,-1.0902,-1.0609,-1.0488,0.0,0.0,0.0,0.0,0.0,0.0,0.0,2.6808,2.6867,2.6243,2.704,2.7262,2.6162,2.6114,0.0,0.0,0.0,0.0,0.0,0.0,0.0,0.0,0.0,0.0,2.5043,2.5531,2.5704,2.5582,0.0,2.6925,2.6448,2.7081,2.7126,2.6673,2.7416,2.756,2.7248,2.7861,2.7876,2.7496,2.7438,2.7362,0.0,0.0,0.0,0.0,2.7007,2.6909,2.6927,2.7431,2.7702,2.7977,2.8677,2.887,2.8953,2.9317,2.8638,2.7921,2.8394,2.8149,2.747,2.6421,2.465,2.2875,2.1759,1.9413,1.7269,1.6596,1.5441,1.3669,1.0749,0.6714,0.2737,-0.0794,-0.5487,-1.0046,-1.375,-1.4676,-1.541,-1.6612,-1.7299,-1.761,-1.7579,-1.7765,-1.7722,-1.7312,-1.6906,-1.649,-1.6078,-1.5784,-1.5719,-1.5743,-1.5509,-1.5551,-1.5775,-1.5162,-1.4852,-1.4912,-1.3841,-1.3346,-1.3327,-1.2859,-1.2773,-1.2965,-1.2965,0.0,-1.3135,-1.2752,-1.2473,-1.2338,-1.1822,-1.142,-1.1099,-1.0609,-1.0473,-1.0421,0.0,0.0,0.0,0.0,0.0,0.0,0.0,2.769,2.7879,2.7181,2.7295,2.689,2.5486,2.5482,2.5875,0.0,0.0,0.0,0.0,0.0,0.0,0.0,0.0,0.0,0.0,0.0,0.0,2.6162,2.7003,0.0,0.0,0.0,0.0,0.0,2.7264,2.7283,2.6745,2.7637,2.7731,0.0,0.0,2.7362,0.0,0.0,0.0,0.0,0.0,2.6975,2.701,2.7181,2.6962,2.6757,2.7334,2.7836,2.8284,2.8605,2.8086,2.7673,2.8593,2.8298,2.74,2.6083,2.4626,2.3107,2.1555,1.9501,1.7893,1.7747,1.6261,1.4404,1.2447,0.8384,0.4391,0.156,-0.3429,-0.8593,-1.3264,-1.4796,-1.5772,-1.6797,-1.8058,-1.8678,-1.8313,-1.7941,-1.7667,-1.77,-1.6549,-1.5838,-1.5701,-1.5152,-1.4945,-1.5141,-1.5046,-1.5097,-1.5265,-1.4892,-1.4666,-1.4655,-1.3606,-1.3097,-1.3087,-1.2314,-1.209,-1.238,-1.2268,0.0,0.0,-1.1828,-1.1486,-1.112,-1.102,-1.095,-1.0926,-1.062,-1.0646,-1.0753,0.0,0.0,0.0,0.0,0.0,0.0,0.0,2.7789,2.7664,2.6933,2.7032,2.6626,2.5277,2.5362,2.5576,0.0,0.0,0.0,0.0,0.0,0.0,0.0,0.0,0.0,0.0,0.0,0.0,2.6014,2.7419,0.0,0.0,0.0,0.0,0.0,0.0,2.6089,2.5111,2.6504,0.0,0.0,0.0,0.0,0.0,0.0,0.0,0.0,0.0,2.6959,2.6808,2.5966,2.5728,2.5673,2.4923,2.6017,2.7417,2.6654,2.713,2.7837,2.7257,2.7623,2.7866,2.6645,2.473,2.2966,2.2335,1.999,1.7963,1.7733,1.6777,1.4946,1.167,0.9064,0.5806,0.0841,-0.2153,-0.6119,-1.264,-1.3894,-1.5179,-1.7993,-1.8931,-1.9215,-1.894,-1.8667,-1.8278,-1.7722,-1.6117,-1.5287,-1.567,-1.4852,-1.4316,-1.4205,-1.3805,-1.355,-1.3555,-1.3124,-1.2924,-1.2917,-1.2475,-1.223,-1.2181,-1.1637,-1.1394,-1.142,-1.0836,0.0,0.0,-1.1078,-1.1255,-1.148,-1.0918,-1.0885,-1.1012,-1.0117,-1.0154,-1.06,0.0,0.0,0.0,0.0,0.0,0.0,2.7672,2.7677,2.7631,2.7515,2.7636,2.7191,2.5798,2.6236,2.6143,2.4912,0.0,0.0,0.0,0.0,0.0,0.0,0.0,0.0,0.0,0.0,2.632,2.7326,2.7382,0.0,0.0,0.0,0.0,0.0,0.0,2.5977,2.5351,2.6375,0.0,0.0,0.0,0.0,0.0,0.0,0.0,0.0,0.0,0.0,2.7038,2.6453,2.5868,2.5279,2.4669,2.4811,2.5272,2.5995,2.6289,2.6584,2.746,2.7683,2.7437,2.657,2.4854,2.3178,2.239,2.046,1.8774,1.8493,1.7853,1.6561,1.3976,1.1376,0.8358,0.4445,0.0544,-0.4146,-1.0504,-1.2735,-1.471,-1.7398,-1.9057,-1.9781,-1.9202,-1.9168,-1.8701,-1.7512,-1.618,-1.537,-1.5277,-1.4397,-1.3744,-1.3431,-1.3415,-1.3415,-1.35,-1.2949,-1.2713,-1.2717,-1.2299,-1.2076,-1.2076,-1.1528,-1.1326,-1.1267,-1.0677,0.0,0.0,-1.0257,-1.0156,-1.012,-0.9904,-0.9987,-1.0193,-0.9843,-1.0053,-1.0577,0.0,0.0,0.0,0.0,0.0,2.7386,2.7569,2.7557,2.7587,2.7853,2.794,2.7538,2.6419,2.6903,2.6644,2.4977,2.5882,0.0,0.0,0.0,0.0,0.0,0.0,0.0,0.0,0.0,2.6956,2.8138,2.7707,2.7798,0.0,0.0,2.6567,2.5433,0.0,0.0,0.0,0.0,0.0,0.0,0.0,0.0,0.0,0.0,0.0,0.0,0.0,0.0,0.0,0.0,0.0,2.5259,2.4518,2.4035,2.391,2.5142,2.5463,2.5793,2.7226,2.7514,2.7158,2.6046,2.472,2.3318,2.2056,2.0497,1.9295,1.914,1.8338,1.7179,1.5648,1.2852,0.9788,0.6785,0.2033,-0.3094,-0.8404,-1.2107,-1.4841,-1.6401,-1.894,-2.02,-1.9364,-1.9162,-1.8582,-1.7279,-1.6074,-1.5148,-1.4576,-1.3731,-1.3213,-1.2987,-1.2987,-1.3084,-1.3142,-1.2715,-1.2529,-1.2529,-1.2224,-1.2076,-1.2076,-1.136,-1.1006,-1.1006,-1.0226,0.0,0.0,-0.9453,-0.9231,-0.9064,-0.915,-0.9419,-0.9693,-0.9538,-0.9816,-1.0268,0.0,0.0,0.0,0.0,0.0,0.0,2.7376,2.7452,2.7526,2.7587,2.7659,2.7518,2.705,2.7058,2.6835,2.6136,2.6162,0.0,0.0,0.0,0.0,0.0,0.0,0.0,0.0,0.0,2.7989,2.8007,2.8668,2.8998,2.8975,2.8718,2.7682,2.608,0.0,0.0,0.0,0.0,0.0,0.0,0.0,0.0,0.0,0.0,0.0,0.0,0.0,0.0,0.0,0.0,0.0,0.0,0.0,2.3749,2.3843,2.3608,2.4645,2.5957,2.6225,2.6989,2.717,2.5049,2.4171,2.3293,2.1443,2.0072,1.9281,1.9522,1.7905,1.6293,1.5792,1.2865,0.9518,0.6582,0.1615,-0.313,-0.6627,-1.2296,-1.5875,-1.5272,-1.8639,-2.0554,-1.9497,-1.8482,-1.7733,-1.7257,-1.5655,0.0,-1.3476,-1.2908,-1.2725,-1.2891,-1.2372,-1.2126,-1.2126,-1.2126,-1.2126,-1.2126,-1.2076,-1.2076,-1.2076,-1.0931,-1.0415,0.0,0.0,0.0,0.0,-0.8811,-0.8811,-0.8838,-0.907,-0.9419,-0.9661,-0.9271,-0.9289,-0.9518,0.0,0.0,0.0,0.0,0.0,0.0,0.0,2.7152,2.7247,2.7496,2.7569,2.7408,2.6851,2.7396,2.7504,2.6783,2.6886,0.0,0.0,0.0,0.0,0.0,0.0,0.0,0.0,0.0,0.0,2.8481,2.87,2.8718,2.8594,2.8458,2.7771,2.6551,2.6446,2.5711,0.0,0.0,0.0,0.0,0.0,0.0,0.0,0.0,0.0,0.0,0.0,0.0,0.0,0.0,0.0,0.0,0.0,0.0,0.0,2.3185,2.3607,2.4355,2.4696,2.5045,2.5088,2.4246,2.3596,2.2963,2.2192,2.1337,2.0616,2.0296,1.9163,1.7664,1.5795,1.3016,0.941,0.439,0.0483,-0.3899,-0.9568,-1.2521,-1.4953,-1.7176,-1.8992,-2.0118,-2.0256,-1.8541,-1.7501,-1.7809,-1.5827,-1.4563,-1.4655,-1.345,-1.2597,-1.2094,-1.2076,-1.2175,-1.2372,-1.2175,-1.2076,-1.2076,-1.1728,-1.1569,-1.1519,-1.0379,-0.9865,0.0,0.0,0.0,0.0,-0.8891,-0.8704,-0.8544,-0.8632,-0.8549,-0.8381,-0.8349,-0.8522,-0.8784,0.0,0.0,0.0,0.0,0.0,0.0,0.0,2.6908,2.699,2.7293,2.7417,2.7335,2.7075,2.7582,2.7776,2.7371,2.7468,0.0,0.0,0.0,0.0,0.0,0.0,0.0,0.0,2.8021,2.8209,2.8594,2.8543,2.844,2.8335,2.8119,2.7543,2.6599,2.6205,2.5495,0.0,0.0,0.0,0.0,0.0,0.0,2.6347,0.0,0.0,0.0,0.0,0.0,0.0,0.0,0.0,0.0,0.0,0.0,0.0,0.0,2.2733,2.3105,2.3745,2.3993,2.3934,2.3358,2.3061,2.2698,2.2102,2.1552,2.0959,2.0333,1.9411,1.7954,1.5444,1.1455,0.6973,0.2211,-0.2709,-0.7387,-1.1455,-1.3878,-1.6125,-1.861,-1.8986,-1.922,-1.9793,-1.8224,-1.7213,-1.7401,-1.5603,-1.4471,-1.4345,-1.3345,-1.2416,-1.1773,-1.1899,-1.2076,-1.2332,-1.1977,-1.1778,-1.1769,-1.1209,-1.0947,-1.0947,-1.0028,-0.9614,0.0,0.0,0.0,0.0,-0.8884,-0.8577,-0.8239,-0.8342,-0.8085,-0.7655,-0.7634,-0.773,-0.7887,0.0,0.0,0.0,0.0,0.0,0.0,0.0,2.6691,2.6758,2.7038,2.7149,2.7293,2.7531,2.7619,2.7736,2.7871,0.0,0.0,0.0,0.0,0.0,0.0,0.0,0.0,0.0,2.8414,2.837,2.837,2.8228,2.8146,2.8119,2.7748,2.7121,2.6248,2.5426,2.4528,0.0,0.0,0.0,0.0,0.0,0.0,0.0,0.0,0.0,0.0,0.0,0.0,0.0,0.0,0.0,0.0,0.0,0.0,0.0,0.0,0.0,0.0,0.0,2.3586,2.3424,2.2525,2.2505,2.2467,2.1374,2.0959,0.0,1.9858,1.8829,1.7209,1.4347,0.8485,0.2947,-0.0469,-0.7416,-1.2467,-1.2666,-1.6128,-1.8824,-1.947,-1.8773,-1.8307,-1.8535,-1.7729,-1.6957,-1.6373,-1.5148,-1.4069,-1.3171,-1.2739,-1.2297,-1.189,-1.173,-1.1805,-1.2076,-1.1578,-1.1326,-1.1267,-1.0635,-1.0364,-1.0312,-0.9762,-0.9458,0.0,0.0,0.0,0.0,-0.8699,-0.8315,-0.7788,-0.8147,-0.7863,-0.7343,-0.69,-0.6813,-0.6837,0.0,0.0,0.0,0.0,0.0,0.0,0.0,0.0,0.0,0.0,2.6989,2.7166,2.7198,2.747,2.7607,0.0,0.0,0.0,0.0,0.0,0.0,0.0,0.0,0.0,0.0,2.8335,2.821,2.801,2.7915,2.7806,2.7569,2.7496,2.6957,2.6061,2.5815,0.0,0.0,0.0,0.0,0.0,0.0,0.0,0.0,0.0,0.0,0.0,2.4422,2.4261,0.0,0.0,0.0,0.0,0.0,0.0,0.0,0.0,2.1998,2.2061,2.2245,0.0,2.2305,2.2178,2.2249,2.2204,0.0,2.1685,2.1486,2.0169,1.8775,1.5697,0.8747,0.6357,0.2022,-0.848,-0.9692,-1.1289,-1.6927,-1.8725,-1.9376,-1.9026,-1.9185,-1.9228,-1.8891,-1.7816,-1.6858,-1.6317,-1.4914,-1.4136,-1.4155,-1.3041,-1.2464,-1.2649,-1.1651,-1.1438,-1.2076,-1.1578,-1.1326,-1.1267,-1.0285,-0.9762,-0.9762,-0.8764,-0.8296,0.0,0.0,0.0,-0.7515,-0.7515,-0.7133,-0.6588,-0.6693,-0.6435,-0.5997,-0.5793,-0.588,-0.6125,0.0,0.0,0.0,0.0,0.0,0.0,0.0,0.0,0.0,0.0,0.0,0.0,0.0,0.0,0.0,0.0,0.0,0.0,0.0,0.0,0.0,0.0,0.0,0.0,2.7989,2.7847,2.7713,2.7517,2.7365,2.7195,2.6971,2.6923,2.6434,2.5558,2.4787,0.0,0.0,0.0,0.0,0.0,2.5403,0.0,0.0,0.0,0.0,0.0,2.3311,2.3112,0.0,2.2646,2.2742,2.2798,0.0,0.0,0.0,0.0,2.1751,2.1764,2.1869,2.2015,2.2118,2.213,2.2287,2.2343,2.1986,2.1774,2.1315,2.0088,1.9409,1.6909,0.9851,0.5685,0.012,-0.9499,-1.2278,-1.4609,-1.8495,-1.9287,-1.935,-1.9046,-1.8715,-1.8304,-1.7797,-1.6872,-1.5975,-1.5061,-1.4401,-1.3821,-1.345,-1.2955,-1.2453,-1.2011,-1.1448,-1.1296,-1.1559,-1.0877,-1.0549,-1.0498,-0.9621,-0.9099,-0.8823,-0.819,-0.7765,0.0,0.0,0.0,-0.7085,-0.7085,-0.6756,-0.6209,-0.6209,-0.5899,-0.5426,-0.5333,-0.5474,-0.5769,0.0,0.0,0.0,0.0,0.0,0.0,0.0,0.0,0.0,0.0,0.0,0.0,0.0,0.0,0.0,0.0,0.0,0.0,0.0,0.0,0.0,0.0,0.0,2.7434,2.7434,2.723,2.7085,2.7038,2.6791,2.6607,2.6471,2.6349,2.5794,2.4811,2.3293,2.2621,0.0,0.0,0.0,0.0,2.4898,0.0,0.0,0.0,0.0,0.0,0.0,0.0,0.0,2.1353,2.144,2.1655,2.1018,0.0,0.0,0.0,0.0,0.0,2.1645,2.174,2.1864,2.2158,2.2343,2.2426,2.2101,2.1486,2.0622,1.9426,1.9446,1.767,1.109,0.4445,-0.231,-0.9372,-1.5421,-1.9035,-1.8376,-1.859,-1.885,-1.902,-1.7897,-1.6954,-1.6471,-1.5951,-1.5108,-1.3803,-1.3881,-1.3459,-1.2297,-1.2589,-1.225,-1.1088,-1.1145,-1.1002,-1.0585,-0.9842,-0.9458,-0.9458,-0.8844,-0.8262,-0.7771,-0.7658,-0.7396,-0.6972,0.0,0.0,-0.6815,-0.6815,-0.6539,-0.605,-0.605,-0.5727,-0.5187,-0.5242,-0.5352,-0.5487,0.0,0.0,0.0,0.0,0.0,0.0,0.0,0.0,0.0,0.0,0.0,0.0,0.0,0.0,0.0,0.0,0.0,0.0,0.0,0.0,0.0,0.0,2.7006,2.707,2.707,2.6891,2.6758,2.6758,2.6556,2.6418,2.6314,2.633,2.5459,2.3867,2.27,2.2061,2.1802,2.2243,2.2778,2.3332,2.3705,0.0,0.0,0.0,0.0,0.0,0.0,0.0,0.0,2.0267,2.0218,2.0246,2.0308,0.0,0.0,0.0,0.0,0.0,2.0812,1.9831,1.9458,2.179,2.1928,2.1413,2.1022,2.0879,2.0066,1.7357,1.6071,1.1953,0.0534,-0.1259,-0.5198,-1.8082,-2.0092,-1.9309,-1.7183,-1.7196,-1.7587,-1.813,-1.7593,-1.7132,-1.7049,-1.6768,-1.6083,-1.4765,-1.4282,-1.3674,-1.2895,-1.2158,-1.1618,-1.1399,-1.0467,-0.9697,-0.9112,-0.8991,-0.8928,-0.8935,-0.7877,-0.7295,-0.7187,-0.6696,-0.6426,-0.6317,0.0,-0.5567,-0.5567,-0.5567,-0.5517,-0.5458,-0.5458,-0.5128,-0.4684,-0.5132,-0.5018,-0.4779,0.0,0.0,0.0,0.0,0.0,0.0,0.0,0.0,0.0,0.0,0.0,0.0,0.0,0.0,0.0,0.0,0.0,0.0,0.0,0.0,0.0,2.626,2.6279,2.6436,2.6775,2.6487,2.6279,2.626,2.5994,2.5775,2.5647,2.4668,2.3815,2.2996,2.1842,2.126,2.1161,2.1892,2.2308,2.2554,0.0,0.0,0.0,0.0,0.0,0.0,0.0,0.0,0.0,0.0,1.9574,1.9543,1.9687,0.0,0.0,0.0,0.0,0.0,2.0261,1.9721,1.9286,1.9275,1.8007,1.6702,1.6306,1.5167,1.4035,1.3619,1.1982,0.8346,0.0991,-0.2102,-0.7152,-1.8192,-1.9984,-1.937,-1.7568,-1.7882,-1.8323,-1.8371,0.0,-1.7266,-1.6285,-1.6005,-1.5206,-1.3511,-1.3433,-1.3,-1.2035,-1.167,-1.1286,-1.0746,-1.0234,-0.946,-0.8567,-0.8263,-0.8015,-0.7877,-0.7348,-0.6918,-0.6593,-0.6317,-0.605,-0.5673,0.0,-0.5297,-0.5297,-0.5297,-0.5297,-0.5297,-0.5297,-0.5242,-0.5124,-0.5234,-0.5009,-0.4656,0.0,0.0,0.0,0.0,0.0,0.0,0.0,0.0,0.0,0.0,0.0,0.0,0.0,0.0,0.0,0.0,0.0,0.0,0.0,0.0,2.5696,2.568,2.5497,2.5721,2.6349,2.5957,2.5717,2.5642,2.5301,2.5068,2.4879,2.3343,2.2616,2.2532,2.1333,2.0855,2.0985,2.1608,2.1903,2.1945,0.0,0.0,0.0,0.0,0.0,0.0,0.0,0.0,0.0,0.0,0.0,0.0,0.0,0.0,0.0,1.9376,1.9573,1.9752,1.9579,1.9287,1.8469,1.6204,1.4352,1.2827,1.1875,0.9431,0.7608,0.8518,0.6678,0.3784,0.0197,-0.5068,-1.0877,-1.7192,-1.9095,-1.9376,-1.8157,-1.8558,-1.8758,-1.8362,-1.7921,-1.7049,-1.5467,-1.5216,-1.446,-1.2658,-1.2773,-1.2336,-1.1052,-1.0982,-1.0622,-0.9723,-0.9589,-0.9073,-0.808,-0.7453,-0.7031,-0.6691,-0.6534,-0.615,-0.5605,-0.5605,-0.5336,-0.4908,-0.4908,-0.4908,-0.4908,-0.4908,-0.4908,-0.4908,-0.5073,-0.5293,-0.5458,-0.5171,-0.4823,-0.4684,0.0,0.0,0.0,0.0,0.0,0.0,0.0,0.0,0.0,0.0,0.0,0.0,0.0,0.0,0.0,0.0,0.0,0.0,0.0,0.0,2.5091,2.4981,2.4784,2.4981,2.568,2.523,2.4958,2.4895,2.4533,2.4385,2.4328,2.3412,2.294,2.2829,2.1613,2.1262,2.1585,2.1173,2.1232,2.1582,2.1272,0.0,0.0,0.0,0.0,0.0,0.0,0.0,0.0,0.0,0.0,0.0,0.0,0.0,1.8646,1.8238,1.8496,1.8812,1.8511,1.7128,1.5246,1.3289,1.311,1.2672,1.0019,0.6619,0.3524,0.1724,-0.0564,-0.3889,-0.9226,-1.4817,-1.8686,-1.8807,-1.9333,-1.9387,-1.848,-1.8034,-1.7642,-1.718,-1.6693,-1.6145,-1.5477,-1.5137,-1.4715,-1.3914,-1.3053,-1.195,-1.0577,-0.9958,-0.9314,-0.8656,-0.8215,-0.7666,-0.6992,-0.6538,-0.5996,-0.5425,-0.4948,-0.4346,-0.379,-0.379,-0.3735,-0.3738,-0.3738,-0.3738,-0.3738,-0.3738,-0.3738,-0.379,-0.4453,-0.4897,-0.5069,-0.4512,-0.4359,-0.4643,0.0,0.0,0.0,0.0,0.0,0.0,0.0,0.0,0.0,0.0,0.0,0.0,0.0,0.0,0.0,0.0,0.0,0.0,0.0,0.0,2.4639,2.4583,2.4395,2.4395,2.4542,2.4461,2.4395,2.4354,2.412,2.3809,2.3463,2.2553,2.1784,2.1097,2.075,2.0484,2.0299,2.0422,2.0535,2.0521,1.976,1.9057,0.0,0.0,0.0,0.0,0.0,0.0,0.0,0.0,1.703,1.6773,1.7079,1.7231,1.7354,1.7462,1.7626,1.7706,1.7435,1.5622,1.3222,1.0855,0.8069,0.5554,0.3934,0.0113,-0.3201,-0.3412,-0.6609,-1.0712,-1.5131,-1.8381,-2.0456,-2.0548,-1.9993,-1.9512,-1.9315,-1.8905,-1.8499,-1.8109,-1.7693,-1.6796,-1.5303,-1.4787,-1.3657,-1.168,-1.1322,-1.0696,-0.9314,-0.9,-0.8748,-0.849,-0.8312,-0.7639,-0.6344,-0.6191,-0.5254,-0.3671,-0.4233,-0.4405,-0.4128,-0.3793,-0.3624,-0.3624,-0.3624,-0.3624,-0.3624,-0.3624,-0.3624,-0.3624,-0.4177,-0.4401,-0.4353,-0.4073,-0.3845,-0.3768,0.0,0.0,0.0,0.0,0.0,0.0,0.0,0.0,0.0,0.0,0.0,0.0,0.0,0.0,0.0,0.0,0.0,0.0,0.0,2.3886,2.393,2.3716,2.3408,2.3238,2.3094,2.3152,2.3327,2.3681,2.3155,2.2644,2.2214,2.1379,2.0617,1.9921,1.9754,1.9495,1.9185,1.9253,1.9146,1.8932,1.8382,1.7808,0.0,0.0,0.0,0.0,0.0,0.0,0.0,0.0,1.6073,1.5896,1.6157,1.6244,1.6343,1.6625,1.6175,1.5555,1.528,1.393,1.1725,0.8232,0.4706,0.1406,-0.1019,-0.5271,-0.8751,-0.9032,-1.218,-1.5925,-1.9208,-2.0244,-2.0926,-2.1942,-2.1041,-2.0216,-2.0184,-1.9998,-1.947,-1.8476,-1.7924,-1.6781,-1.4721,-1.399,-1.2679,-1.0325,-1.0388,0.0,0.0,-0.7827,-0.7632,-0.7172,-0.7113,-0.6535,-0.5378,-0.5322,-0.452,-0.3014,-0.3627,-0.3852,-0.363,-0.3239,-0.3016,-0.3016,-0.3016,-0.3016,-0.3016,-0.3128,-0.335,-0.3683,-0.3959,-0.4073,-0.4073,-0.3962,-0.3682,-0.3435,0.0,0.0,0.0,0.0,0.0,0.0,0.0,0.0,0.0,0.0,0.0,0.0,0.0,0.0,0.0,0.0,0.0,0.0,0.0,2.3363,2.298,2.2204,2.1758,2.1464,2.1316,2.1181,2.1597,2.2694,2.1465,2.0809,2.0552,1.9876,1.9678,1.9716,1.8721,1.8417,1.861,1.769,1.7071,1.6711,1.7168,1.6665,1.5682,0.0,0.0,0.0,0.0,0.0,0.0,0.0,1.5394,1.5311,1.5389,1.5567,1.5744,1.5623,1.4113,1.2336,1.1874,1.1888,1.0785,0.5444,0.3764,0.1845,-0.4128,-0.8725,-1.2525,-1.5345,-1.7342,-1.9317,-2.1598,-2.0936,-2.0726,-2.2863,-2.2435,-2.1622,-2.1094,-2.1077,-2.0281,-1.7904,-1.7004,-1.576,-1.3734,-1.2879,-1.195,-1.0577,0.0,0.0,0.0,-0.6375,-0.5727,-0.4353,-0.4102,-0.3987,-0.3875,-0.3757,-0.3634,-0.3572,-0.2959,-0.235,-0.1797,-0.1797,-0.1797,-0.1797,-0.1797,-0.1797,-0.1853,-0.2074,-0.2852,-0.3796,-0.3796,-0.3959,-0.4177,-0.4177,-0.3965,-0.373,0.0,0.0,0.0,0.0,0.0,0.0,0.0,0.0,0.0,0.0,0.0,0.0,0.0,0.0,0.0,0.0,0.0,0.0,0.0,2.2873,2.2651,2.2374,2.2041,2.1764,2.1671,2.1042,2.0969,2.1373,2.074,2.0013,1.9166,1.8999,1.852,1.7812,1.7709,1.7384,1.6885,1.6485,1.6203,1.5966,1.5521,1.527,1.514,0.0,0.0,0.0,0.0,0.0,0.0,0.0,0.0,0.0,1.464,1.4834,1.5017,1.53,1.4778,1.4141,1.4089,1.1173,0.7555,0.493,0.0768,-0.405,-0.9342,-1.0945,-1.2382,-1.614,-1.8505,-2.042,-2.1925,-2.2325,-2.273,-2.3676,-2.2795,-2.1741,-2.1008,-2.0167,-1.9089,-1.7741,-1.6346,-1.509,-1.4013,-1.261,-1.0815,-0.85,0.0,0.0,0.0,-0.4942,-0.4746,-0.4287,-0.4251,-0.3719,-0.2791,-0.3084,-0.2625,-0.1332,-0.1566,-0.1948,-0.2406,-0.202,-0.1797,-0.1797,-0.2018,-0.2074,-0.213,-0.241,-0.2854,-0.3297,-0.3297,-0.3522,-0.3747,-0.3519,-0.3522,-0.3618,0.0,0.0,0.0,0.0,0.0,0.0,0.0,0.0,0.0,0.0,0.0,0.0,0.0,0.0,0.0,0.0,0.0,0.0,0.0,0.0,2.1647,2.1349,2.0877,2.0597,2.0585,2.018,1.9875,1.9638,1.9344,1.8661,1.7675,1.7812,1.7355,1.6473,1.653,1.6137,1.5453,1.5056,1.4666,1.4336,1.4208,1.4101,1.4001,0.0,0.0,0.0,0.0,0.0,0.0,0.0,0.0,0.0,1.3742,1.3988,1.4251,1.4521,1.3105,1.1545,1.2265,0.8568,0.3903,0.1304,-0.197,-0.6037,-1.1668,-1.3726,-1.5061,-1.7532,-1.9141,-2.046,-2.1801,-2.2292,-2.282,-2.3748,-2.2643,-2.1411,-2.0801,-1.9304,-1.7747,-1.6371,-1.4792,-1.3314,-1.1989,-1.0628,-0.8954,0.0,0.0,0.0,0.0,-0.3685,-0.3418,-0.3084,-0.2882,-0.238,-0.1543,-0.1865,-0.15,-0.0412,-0.0707,-0.1215,-0.1789,-0.1737,-0.1738,-0.1738,-0.2186,-0.2464,-0.2573,-0.2798,-0.3023,-0.3299,-0.3299,-0.3413,-0.3583,-0.3357,-0.3413,-0.3613,0.0,0.0,0.0,0.0,0.0,0.0,0.0,0.0,0.0,0.0,0.0,0.0,0.0,0.0,0.0,0.0,0.0,0.0,0.0,0.0,2.0324,1.9737,1.8982,1.8516,1.8524,1.8726,1.8489,1.7662,1.7529,1.7051,1.6268,1.6408,1.6149,1.5601,1.5164,1.4726,1.4188,1.3507,1.2828,1.2308,1.3144,1.3119,1.253,1.2814,0.0,0.0,0.0,0.0,0.0,0.0,0.0,0.0,1.2764,1.3112,1.359,1.3564,1.0181,0.6743,0.811,0.5058,0.0363,-0.3774,-0.4559,-0.5891,-1.2194,-1.6423,-1.9052,-1.9052,-1.9251,-1.9901,-2.1328,-2.1403,-2.169,-2.3069,-2.1941,-2.0695,-2.0077,-1.8272,-1.6179,-1.4055,-1.2562,-1.0863,-0.8648,-0.7777,0.0,0.0,0.0,0.0,0.0,-0.2549,-0.188,-0.121,-0.0806,-0.0465,-0.0323,-0.0323,-0.0314,0.0,-0.0296,-0.0291,-0.0225,-0.1064,-0.1511,-0.1621,-0.2408,-0.2912,-0.313,-0.313,-0.3302,-0.3585,-0.3585,-0.3585,-0.3585,-0.3585,-0.3585,-0.3602,0.0,0.0,0.0,0.0,0.0,0.0,0.0,0.0,0.0,0.0,0.0,0.0,0.0,0.0,0.0,0.0,0.0,0.0,0.0,0.0,2.0411,1.9935,1.9384,1.8379,1.7012,1.7569,1.7165,1.5593,1.6154,1.6282,1.5981,1.5039,1.4643,1.48,1.3796,1.3114,1.2768,1.2051,1.1639,1.1456,1.1763,1.1744,1.1628,1.2035,1.1939,0.0,0.0,0.0,0.0,0.0,0.0,0.0,1.2316,1.2764,1.3344,1.3555,1.1309,0.8869,0.9286,0.5091,-0.0,-0.221,-0.6702,-1.1458,-1.4482,-1.6714,-1.8047,-1.7881,-1.9101,-2.0308,-2.0746,-2.1202,-2.1403,-2.1,-2.0427,-1.9202,-1.707,-1.5562,-1.4055,-1.2226,-1.0822,-0.9629,-0.8531,-0.7777,0.0,0.0,0.0,0.0,-0.2487,-0.1478,-0.0739,-0.0269,-0.0739,-0.0603,0.0133,-0.0,0.0393,0.0,0.0309,0.0421,0.1453,-0.0,-0.0952,-0.1566,-0.2521,-0.314,-0.3471,-0.3471,-0.3527,-0.3585,-0.3585,-0.3585,-0.3585,-0.3585,-0.3585,-0.3602,0.0,0.0,0.0,0.0,0.0,0.0,0.0,0.0,0.0,0.0,0.0,0.0,0.0,0.0,0.0,0.0,0.0,0.0,0.0,0.0,0.0,1.8462,1.7861,1.7151,1.6406,1.6543,1.6175,1.519,1.4948,1.4877,1.505,1.4198,1.3802,1.3809,1.2763,1.2011,1.1623,1.1215,1.0891,1.0674,1.0965,1.1076,1.0975,1.1062,1.0986,1.0785,1.0961,0.0,0.0,0.0,0.0,0.0,0.0,0.0,1.2558,1.2881,1.1088,0.8434,0.6095,0.26,-0.1227,-0.4732,-0.8595,-1.2066,-1.44,-1.5514,-1.6141,-1.6416,-1.8437,-2.0042,-1.9762,-2.0168,-2.023,-1.9471,-1.8412,-1.7158,-1.5522,-1.3567,-1.1515,-0.9391,-0.8281,-0.7066,-0.5687,0.0,0.0,0.0,0.0,-0.2009,-0.1412,-0.1008,-0.0403,0.047,0.047,0.0806,0.141,0.1343,0.1588,0.2189,0.1521,0.1475,0.1937,0.0739,-0.0448,-0.1679,-0.2406,-0.3077,-0.3585,-0.3585,-0.3585,-0.3585,-0.3585,-0.3357,-0.3074,-0.3471,-0.3585,-0.3593,0.0,0.0,0.0,0.0,0.0,0.0,0.0,0.0,0.0,0.0,0.0,0.0,0.0,0.0,0.0,0.0,0.0,0.0,0.0,0.0,0.0,0.0,1.6028,1.578,1.5782,1.5397,1.509,1.4819,1.3665,1.3313,1.3781,1.3313,1.3003,1.2772,1.1842,1.1137,1.0595,1.0523,1.0258,0.9904,1.0314,1.0345,1.0205,0.992,0.9834,0.9918,0.9729,0.9646,0.9725,0.9621,0.0,0.0,0.0,0.0,1.1514,1.1973,1.0287,0.7296,0.3019,-0.0062,-0.3197,-0.8143,-0.9755,-1.0815,-1.3417,-1.4082,-1.4359,-1.5215,-1.7433,-1.8984,-1.8337,-1.8584,-1.8637,-1.7848,-1.6367,-1.5012,-1.4188,-1.16,-0.8995,-0.6703,-0.5759,-0.4596,-0.2683,0.0,0.0,0.0,0.0,-0.047,0.0269,-0.0134,0.0134,0.1412,0.2084,0.2488,0.2686,0.2753,0.2786,0.2785,0.2823,0.2546,0.1996,0.1252,0.0056,-0.1342,-0.2011,-0.2794,-0.3588,-0.3585,-0.3585,-0.3585,-0.336,-0.3021,-0.2683,-0.336,-0.3585,-0.3585,0.0,0.0,0.0,0.0,0.0,0.0,0.0,0.0,0.0,0.0,0.0,0.0,0.0,0.0,0.0,0.0,0.0,0.0,1.8363,0.0,0.0,1.5976,1.6022,1.5329,1.3753,1.3745,1.3394,1.253,1.207,1.1936,1.211,1.169,1.1684,1.1897,1.0831,1.0194,0.9906,0.9669,0.9364,0.8979,0.9029,0.8947,0.8784,0.855,0.8555,0.8702,0.8852,0.8805,0.8618,0.8858,0.8883,0.0,0.0,0.0,1.0387,1.1116,0.9516,0.7324,0.636,0.031,-0.6171,-0.827,-0.9244,-1.0349,-1.3074,-1.4013,-1.4554,-1.5272,-1.609,-1.6504,-1.5936,-1.6594,-1.6749,-1.5186,-1.4501,-1.3483,-1.1381,-0.8822,-0.6776,-0.5829,-0.4797,-0.368,-0.2616,0.0,0.0,0.0,-0.0538,0.1412,0.3576,0.2757,0.2417,0.2889,0.3025,0.2958,0.2686,0.2956,0.3218,0.3398,0.3751,0.3227,0.1996,0.1252,0.0785,0.0448,-0.1174,-0.2521,-0.3596,-0.3588,-0.3588,-0.3482,-0.2464,-0.2633,-0.3426,-0.354,-0.3591,-0.3585,0.0,0.0,0.0,0.0,0.0,0.0,0.0,0.0,0.0,0.0,0.0,0.0,0.0,0.0,0.0,1.8081,1.756,1.707,1.6599,1.6016,1.5476,1.4926,1.4644,1.4001,1.2933,1.2756,1.2305,1.1516,1.1156,1.1008,1.0954,1.0269,1.0345,1.0905,1.0032,0.9327,0.8819,0.8788,0.8452,0.797,0.8019,0.7637,0.7066,0.753,0.7363,0.6949,0.7485,0.7622,0.7537,0.7484,0.7711,0.8031,0.8343,0.0,0.0,0.0,1.0115,0.8804,0.5442,-0.0556,-0.6284,-0.7957,-0.8849,-0.973,-1.1257,-1.2089,-1.2472,-1.2546,-1.2635,-1.2844,-1.328,-1.4317,-1.4354,-1.2142,-1.1348,-1.0327,-0.8573,-0.6371,-0.4492,-0.306,-0.2134,-0.1136,-0.0201,0.0,0.0,0.0,0.1006,0.2284,0.4185,0.384,0.3632,0.383,0.383,0.3761,0.3627,0.3761,0.383,0.3959,0.4068,0.3737,0.3017,0.1225,0.0399,0.0336,-0.1175,-0.2465,-0.3596,-0.3588,-0.3591,-0.354,-0.3026,-0.2745,-0.2691,-0.3365,-0.3588,-0.3585,0.0,0.0,0.0,0.0,0.0,0.0,0.0,0.0,0.0,0.0,0.0,0.0,0.0,0.0,0.0,0.0,1.6369,1.5706,1.5177,1.4688,1.4236,1.3892,1.3357,1.283,1.2167,1.1688,1.1196,1.0682,1.0227,1.0,0.9824,0.9075,0.9005,0.95,0.9198,0.859,0.7865,0.797,0.7683,0.7107,0.6932,0.6248,0.5491,0.5986,0.5647,0.5015,0.5885,0.6137,0.617,0.6193,0.6598,0.7065,0.734,0.7853,0.0,0.0,0.0,1.0157,0.5167,0.0722,-0.3155,-0.5962,-0.7121,-0.7964,-0.9446,-1.0262,-1.0591,-0.9958,-0.9679,-0.9762,-1.0187,-1.1554,-1.1829,-0.9421,-0.8499,-0.7575,-0.6043,-0.4025,-0.2125,-0.0669,0.0267,0.1138,0.0,0.0,0.0,0.0,0.2684,0.3157,0.4241,0.4311,0.4308,0.43,0.43,0.43,0.43,0.43,0.43,0.43,0.4153,0.4037,0.3822,0.1833,0.0573,-0.0056,-0.1287,-0.2465,-0.3596,-0.3588,-0.3591,-0.3599,-0.3593,-0.2856,-0.1958,-0.3137,-0.3604,-0.3623,0.0,0.0,0.0,0.0,0.0,0.0,0.0,0.0,0.0,0.0,0.0,0.0,1.749,1.6789,1.628,1.6177,1.5603,1.5031,1.4588,1.4213,1.3747,1.3104,1.273,0.0,1.0994,1.0387,0.9909,0.9492,0.901,0.8725,0.8619,0.8242,0.7782,0.7372,0.7967,0.7907,0.7251,0.7456,0.7256,0.6658,0.5394,0.4797,0.4446,0.329,0.2806,0.2918,0.4055,0.4252,0.4231,0.5343,0.576,0.5819,0.6054,0.6388,0.6946,0.0,0.0,0.0,0.7706,0.6172,0.4127,-0.1167,-0.2837,-0.4215,-0.8334,-0.9673,-0.9724,-0.8692,-0.8495,-0.8045,-0.651,-0.8233,-0.9301,-0.7495,-0.6961,-0.6043,-0.4098,-0.1594,0.0133,0.02,0.1338,0.2484,0.0,0.0,0.0,0.0,0.4169,0.4233,0.4303,0.4303,0.43,0.43,0.43,0.43,0.43,0.43,0.43,0.4298,0.4132,0.4016,0.388,0.3545,0.214,-0.0056,-0.1287,-0.2465,-0.3596,-0.3588,-0.3591,-0.3599,-0.3607,-0.2865,-0.1959,-0.3144,-0.3659,-0.3787,0.0,0.0,0.0,0.0,0.0,0.0,0.0,0.0,0.0,0.0,0.0,0.0,0.0,1.5613,1.5099,1.4904,1.4195,1.3614,1.3147,1.2773,1.2411,1.1928,1.1533,1.0909,1.0006,0.9381,0.8789,0.8143,0.7852,0.7611,0.7321,0.706,0.6662,0.6203,0.6929,0.6929,0.6338,0.6272,0.5947,0.5422,0.4342,0.3405,0.2598,0.2394,0.1856,0.1403,0.2408,0.2995,0.336,0.3805,0.4309,0.4813,0.5133,0.5546,0.6146,0.7444,0.9192,1.0037,0.7136,0.573,0.4417,0.1672,-0.0971,-0.3224,-0.4593,-0.6527,-0.7931,-0.7543,-0.6416,-0.5432,-0.4989,-0.5952,-0.6526,-0.5501,-0.4298,-0.2973,-0.1328,0.0334,0.1607,0.2009,0.2817,0.3422,0.0,0.0,0.0,0.0,0.0,0.43,0.43,0.43,0.43,0.43,0.43,0.43,0.43,0.43,0.4262,0.4183,0.4105,0.3608,0.2749,0.3341,0.2291,-0.0056,-0.1431,-0.263,-0.3596,-0.3588,-0.3302,-0.2854,-0.3373,-0.3312,-0.3023,-0.3418,-0.3613,-0.364,0.0,0.0,0.0,0.0,0.0,0.0,0.0,0.0,0.0,0.0,0.0,0.0,0.0,0.0,1.3734,1.3243,1.2696,1.2151,1.1725,1.1358,1.0996,1.0643,1.0207,0.9556,0.871,0.8323,0.7795,0.6949,0.6937,0.6705,0.6254,0.611,0.5741,0.515,0.5617,0.5679,0.5477,0.5352,0.5024,0.4558,0.3345,0.2477,0.194,0.1574,0.0976,0.0455,0.14,0.1833,0.2084,0.2374,0.2882,0.3516,0.3792,0.4419,0.5274,0.651,0.7991,0.8848,0.7291,0.6693,0.6124,0.4346,0.2055,-0.024,-0.2217,-0.419,-0.5743,-0.6229,-0.5256,-0.4196,-0.3735,-0.3659,-0.3454,-0.2865,-0.1797,-0.0532,0.1068,0.2338,0.3355,0.3866,0.4613,0.5017,0.0,0.0,0.0,0.0,0.0,0.0,0.43,0.43,0.43,0.43,0.43,0.43,0.43,0.43,0.4259,0.4178,0.4081,0.3605,0.2857,0.3375,0.1774,-0.145,-0.1895,-0.2702,-0.3721,-0.3637,-0.3124,-0.254,-0.3482,-0.3831,-0.3765,-0.3765,-0.3787,-0.3757,0.0,0.0,0.0,0.0,0.0,0.0,0.0,0.0,0.0,1.4588,0.0,0.0,0.0,0.0,0.0,1.1365,1.1108,1.085,1.0451,1.0021,0.9586,0.926,0.8746,0.8029,0.7115,0.7188,0.6837,0.6072,0.6332,0.6077,0.5389,0.5274,0.4882,0.4287,0.4092,0.4161,0.4558,0.4558,0.4425,0.4154,0.2278,0.2013,0.242,0.0672,-0.0,0.0067,0.0939,0.0805,0.0401,0.1104,0.1572,0.1926,0.2131,0.3004,0.4119,0.4971,0.6108,0.7346,0.0,0.0,0.0,0.6882,0.6303,0.4889,-0.1276,-0.2861,-0.3414,-0.4754,-0.5001,-0.4475,-0.2748,-0.1343,-0.0268,0.0267,0.0334,0.1002,0.2947,0.4403,0.5382,0.5675,0.6656,0.7278,0.0,0.0,0.0,0.0,0.5289,0.503,0.4375,0.4308,0.4303,0.43,0.43,0.43,0.43,0.43,0.43,0.4295,0.4056,0.4073,0.4268,0.3648,0.0556,-0.4215,-0.278,-0.2857,-0.3921,-0.3668,-0.3208,-0.2707,-0.3835,-0.4209,-0.4075,-0.4075,-0.4083,-0.4094,0.0,0.0,0.0,0.0,0.0,0.0,0.0,0.0,0.0,0.0,0.0,0.0,1.2528,1.1834,1.1149,1.0591,1.0281,0.9958,0.9436,0.9186,0.8768,0.8196,0.7646,0.7197,0.673,0.6272,0.5844,0.5501,0.0,0.0,0.0,0.0,0.4223,0.3892,0.3558,0.3493,0.3558,0.3558,0.3694,0.3627,0.1745,0.102,0.0829,-0.0339,-0.0816,-0.076,-0.0541,-0.0336,-0.0067,0.0266,0.0867,0.1602,0.2186,0.239,0.2516,0.3232,0.4472,0.575,0.6185,0.0,0.0,0.0,0.0,0.0,0.3613,0.0903,-0.1517,-0.2493,-0.2494,-0.2347,-0.2417,-0.1074,0.0268,0.0938,0.1339,0.2143,0.3751,0.4737,0.5519,0.623,0.6865,0.7331,0.0,0.0,0.0,0.0,0.5182,0.4762,0.4626,0.4471,0.4384,0.4303,0.43,0.43,0.43,0.43,0.4259,0.4178,0.4175,0.4051,0.3636,-0.0316,-0.2902,-0.4282,-0.3859,-0.3872,-0.4159,-0.392,-0.3087,-0.2156,-0.3712,-0.4209,-0.4072,-0.4005,-0.3958,-0.392,0.0,0.0,0.0,0.0,0.0,0.0,1.2573,1.2143,1.1903,0.0,0.0,0.0,1.0773,1.0262,0.9755,0.9384,0.9064,0.8742,0.8291,0.7832,0.7442,0.7055,0.6557,0.6213,0.5895,0.5546,0.0,0.0,0.0,0.0,0.0,0.0,0.0,0.3355,0.3157,0.3025,0.2893,0.2824,0.2893,0.2963,0.1429,0.0759,0.0629,-0.0418,-0.0843,-0.0994,-0.1327,-0.1172,-0.0821,-0.1093,-0.0538,0.0394,0.0892,0.0924,0.0893,0.1561,0.2596,0.3749,0.4563,0.6234,0.7848,0.8315,0.0,0.0,0.3951,0.1968,-0.0,-0.2378,-0.2441,-0.208,-0.1947,-0.0873,0.0269,0.1139,0.2011,0.2948,0.4151,0.5401,0.6386,0.6984,0.7766,0.8354,0.0,0.7507,0.6729,0.6376,0.5581,0.4988,0.4649,0.451,0.4417,0.4306,0.43,0.43,0.43,0.4306,0.4276,0.4148,0.3072,0.1717,0.0256,-0.1628,-0.3193,-0.431,-0.4313,-0.4276,-0.4268,-0.3742,-0.3005,-0.2362,-0.3073,-0.3714,-0.416,-0.4091,-0.4085,-0.4085,0.0,0.0,0.0,1.2182,1.1725,1.1329,1.1329,1.1031,1.0856,0.0,0.0,0.957,0.8924,0.8667,0.8291,0.7852,0.7647,0.7386,0.7007,0.6342,0.6013,0.5947,0.5488,0.5166,0.4849,0.496,0.0,0.0,0.0,0.0,0.0,0.0,0.0,0.0,0.0,0.269,0.2357,0.2221,0.2158,0.21,0.111,0.0772,0.0848,-0.0145,-0.0655,-0.0944,-0.1663,-0.1708,-0.1534,-0.2504,-0.2154,-0.1287,-0.1128,-0.093,-0.0612,-0.0,0.0635,0.1458,0.3207,0.4443,0.5534,0.6776,0.8069,0.0,0.2452,0.1898,0.1392,-0.2458,-0.2834,-0.2117,-0.0994,-0.0265,0.053,0.1723,0.2856,0.3666,0.4217,0.6067,0.7536,0.7831,0.8864,0.0,0.9715,0.8742,0.7746,0.6857,0.606,0.5281,0.4588,0.4512,0.4452,0.4325,0.4322,0.4247,0.403,0.4244,0.4115,0.378,0.0872,-0.1813,-0.4193,-0.1614,-0.1814,-0.4043,-0.4247,-0.4314,-0.4244,-0.3422,-0.2948,-0.2813,-0.248,-0.3155,-0.43,-0.43,-0.43,-0.43,0.0,0.0,1.1525,1.1157,1.08,1.0478,1.0332,1.0021,0.9646,0.925,0.8731,0.8285,0.7962,0.7507,0.712,0.6728,0.6408,0.6086,0.5756,0.5488,0.5223,0.5093,0.4697,0.4553,0.4656,0.4348,0.4138,0.0,0.0,0.0,0.0,0.0,0.0,0.0,0.0,0.2288,0.2221,0.1884,0.1362,0.0765,0.028,-0.0431,-0.1117,-0.1394,-0.1531,-0.1526,-0.1707,-0.1665,-0.1626,-0.2097,-0.2415,-0.2455,-0.1913,-0.1362,-0.0955,-0.1133,-0.107,-0.0624,0.0588,0.138,0.2388,0.4677,0.5412,0.0,0.7132,0.5555,0.3727,0.315,0.252,0.2083,0.2187,0.3229,0.4479,0.5778,0.5689,0.5172,0.4403,0.6067,0.7588,0.8096,0.8459,0.0,0.9357,0.7694,0.6561,0.6381,0.5628,0.5042,0.477,0.477,0.4675,0.4455,0.4383,0.3714,0.2551,0.3708,0.3165,0.0804,-0.2084,-0.378,-0.426,-0.3706,-0.3092,-0.2618,-0.377,-0.4311,-0.4303,-0.4105,-0.336,-0.2347,-0.3424,-0.403,-0.43,-0.43,-0.43,-0.43,1.1338,1.0982,1.0627,1.034,0.9913,0.9466,0.9128,0.8801,0.842,0.7897,0.7307,0.685,0.6662,0.6338,0.6075,0.5745,0.5488,0.5292,0.5096,0.4758,0.4558,0.4564,0.4231,0.4028,0.4028,0.383,0.3696,0.0,0.0,0.0,0.0,0.0,0.0,0.0,0.2018,0.1817,0.1481,0.1501,0.1046,0.0357,-0.0,-0.095,-0.2343,-0.2495,-0.2872,-0.339,-0.3791,-0.3608,-0.3072,-0.2238,-0.2495,-0.3078,-0.2259,-0.2239,-0.2336,-0.2014,-0.1997,-0.1911,-0.1642,-0.0958,-0.0,0.1751,0.2577,0.0,0.0,0.359,0.3256,0.3759,0.3109,0.2598,0.3049,0.4011,0.5191,0.6449,0.5883,0.5318,0.5607,0.6375,0.6995,0.7256,0.7706,0.0,0.8349,0.7131,0.6086,0.5625,0.5246,0.4963,0.4841,0.4766,0.4735,0.4493,0.4356,0.3253,0.1072,0.0336,-0.0336,-0.1072,-0.323,-0.4319,-0.4314,-0.4314,-0.3632,-0.2547,-0.3763,-0.4306,-0.43,-0.4306,-0.3832,-0.3288,-0.403,-0.43,-0.43,-0.43,-0.43,-0.43,1.0657,1.0208,0.9775,0.9521,0.8955,0.8359,0.7982,0.7642,0.7251,0.6662,0.6036,0.5593,0.5529,0.5363,0.5248,0.5039,0.4772,0.456,0.4467,0.4128,0.3996,0.4134,0.384,0.3567,0.3389,0.3372,0.3228,0.3025,0.0,0.0,0.0,0.0,0.0,0.1355,0.1627,0.1428,0.0958,0.1049,0.0788,0.022,-0.0147,-0.1266,-0.2821,-0.3579,-0.4217,-0.4889,-0.5631,-0.542,-0.46,-0.2987,-0.3022,-0.3686,-0.2967,-0.3244,-0.363,-0.2992,-0.2814,-0.2857,-0.3205,-0.2735,-0.192,-0.0983,-0.006,0.0473,0.0,0.0,0.0,0.3004,0.2763,0.2741,0.3669,0.4494,0.553,0.6899,0.0,0.0,0.0,0.714,0.0,0.6436,0.692,0.0,0.0,0.6561,0.5757,0.5082,0.4996,0.495,0.4874,0.4801,0.4781,0.4635,0.3331,0.1533,-0.0811,-0.3105,-0.3708,-0.2549,-0.3699,-0.4172,-0.4028,-0.4241,-0.3899,-0.3215,-0.3961,-0.43,-0.43,-0.43,-0.43,-0.43,-0.43,-0.43,-0.43,-0.43,-0.43,-0.43,0.9585,0.9259,0.8699,0.8278,0.7861,0.7395,0.6959,0.6666,0.6268,0.5415,0.5002,0.4807,0.5011,0.4983,0.4842,0.4842,0.4265,0.3792,0.3422,0.3557,0.3628,0.3698,0.3269,0.3057,0.2995,0.2858,0.2686,0.2484,0.0,0.0,0.0,0.0,0.0,0.1605,0.1116,0.1131,0.1373,0.0435,-0.0,-0.0151,-0.083,-0.1607,-0.2427,-0.4714,-0.4807,-0.3931,-0.4722,-0.4953,-0.4861,0.0,-0.4705,-0.4765,-0.4806,-0.4267,-0.3743,-0.4333,-0.4018,-0.3494,-0.3637,-0.3648,-0.3495,-0.2724,-0.202,-0.1157,0.0243,0.0,0.2266,0.3831,0.0,0.5732,0.6416,0.0,0.0,1.0232,0.926,0.0,1.0272,0.8961,0.7572,0.6574,0.6454,0.0,0.0,0.5669,0.5138,0.5226,0.4991,0.4896,0.4991,0.5004,0.4953,0.4975,-0.044,-0.345,-0.3781,-0.4165,-0.4244,-0.403,-0.4233,-0.3894,-0.3082,-0.3894,-0.4233,-0.4164,-0.4233,-0.43,-0.43,-0.43,-0.43,-0.43,-0.43,-0.43,-0.43,-0.43,-0.43,-0.43,0.8719,0.8534,0.8147,0.7724,0.7246,0.6692,0.6252,0.5333,0.4616,0.4228,0.3869,0.3714,0.3841,0.4018,0.401,0.3717,0.3176,0.2651,0.2294,0.2614,0.2824,0.3008,0.2725,0.2512,0.2581,0.2482,0.2398,0.2328,0.2083,0.0,0.0,0.0,0.0,0.1219,0.0788,0.0577,0.0584,0.0148,-0.015,-0.0379,-0.0846,-0.1868,-0.3217,-0.4784,-0.56,-0.5911,-0.5698,-0.5663,-0.5573,0.0,-0.4989,0.0,0.0,-0.4283,-0.4154,-0.4111,-0.4198,-0.427,-0.445,-0.4235,-0.3842,0.0,0.0,0.0,-0.1698,0.0,0.0239,0.0,0.0,0.0,0.0,0.0,0.0,0.0,0.8043,0.7666,0.0,0.0,0.6768,0.7466,0.0,0.0,0.0,0.0,0.0,0.0,0.4902,0.479,0.4915,0.4996,0.4119,0.2194,-0.2322,-0.4621,-0.4426,-0.4439,-0.4376,-0.43,-0.43,-0.4097,-0.3756,-0.4097,-0.43,-0.43,-0.43,-0.43,-0.43,-0.43,-0.43,-0.43,-0.43,-0.43,-0.43,-0.43,-0.43,-0.43,0.7684,0.7654,0.752,0.7054,0.6436,0.5806,0.517,0.4097,0.3287,0.3133,0.2964,0.2795,0.2759,0.2865,0.2708,0.218,0.1767,0.1388,0.1203,0.1468,0.1752,0.2005,0.2006,0.1924,0.162,0.2109,0.2247,0.2189,0.1789,0.0,0.0,0.0,0.0,0.0,0.0663,0.037,-0.0,-0.0304,-0.0612,-0.0919,-0.1092,-0.2195,-0.3917,-0.4924,-0.624,-0.7403,-0.6784,-0.6402,-0.6098,-0.5591,-0.5328,0.0,-0.4428,-0.4404,-0.4568,-0.4009,-0.4024,-0.4398,-0.4945,0.0,0.0,0.0,0.0,0.0,0.0,0.0,0.0,0.0,0.0,0.0,0.0,0.0,0.588,0.6982,0.0,0.6559,0.8074,0.7118,0.6688,0.0,0.0,0.0,0.0,0.0,0.0,0.0,0.0,0.0,0.4194,0.3836,0.2078,-0.1285,-0.3711,-0.4828,-0.4534,-0.4499,-0.442,-0.43,-0.43,-0.43,-0.43,-0.43,-0.43,-0.43,-0.43,-0.43,-0.43,-0.43,-0.43,-0.43,-0.43,-0.43,-0.43,-0.43,-0.43,-0.43,0.6388,0.6472,0.6503,0.6122,0.5352,0.4489,0.336,0.3052,0.2737,0.232,0.2197,0.2246,0.2192,0.1712,0.1055,0.0162,0.0083,0.0083,0.0081,0.0079,0.0157,0.047,0.1241,0.1149,-0.0,0.1514,0.2133,0.1824,0.0947,0.0,0.0,0.0,0.0,0.0,0.0983,0.0767,-0.0078,-0.1177,-0.1805,-0.2042,-0.2118,-0.282,-0.3986,0.0,-0.6707,-0.7484,-0.748,0.0,0.0,-0.6483,-0.6398,0.0,0.0,0.0,0.0,0.0,0.0,0.0,0.0,0.0,0.0,-0.5365,0.0,0.0,0.0,0.0,-0.2441,0.0,0.0,0.0797,0.1657,0.2446,0.356,0.5147,0.5853,0.0,0.0,0.8197,0.8143,0.7187,0.0,0.0,0.0,0.0,0.0,0.0,0.0,0.0,0.262,0.1042,-0.1358,-0.4709,-0.4855,-0.4712,-0.4514,-0.4534,-0.4414,-0.43,-0.43,-0.43,-0.43,-0.43,-0.43,-0.43,-0.43,-0.43,-0.43,-0.43,-0.43,-0.43,-0.43,-0.43,-0.43,-0.43,-0.43,-0.43,0.547,0.5395,0.5306,0.5337,0.464,0.384,0.2999,0.2505,0.2268,0.2214,0.21,0.1989,0.1881,0.1873,0.1583,0.0916,0.034,-0.0256,-0.0917,-0.0652,-0.0402,-0.0241,0.0232,0.0534,0.0465,0.0993,0.1597,0.2225,0.1433,0.0,0.0,0.0,0.0,0.0,0.0466,0.0156,-0.0314,-0.11,-0.165,-0.2044,-0.2744,-0.3366,-0.4066,0.0,0.0,-0.6707,-0.7326,-0.7326,0.0,-0.7176,-0.6788,-0.6163,-0.5931,-0.5386,-0.4761,-0.4645,-0.4327,0.0,0.0,0.0,-0.3955,-0.475,0.0,0.0,0.0,0.0,0.0,0.0,0.0,0.0,0.0,0.1298,0.2455,0.2741,0.4198,0.5342,0.0,0.6563,0.7166,0.6911,0.7308,0.781,0.0,0.0,0.0,0.0,0.0,0.0,0.0,-0.177,-0.3785,-0.4852,-0.4923,-0.4863,-0.4659,-0.4613,-0.4493,-0.43,-0.43,-0.43,-0.43,-0.43,-0.43,-0.43,-0.43,-0.43,-0.43,-0.43,-0.43,-0.43,-0.43,-0.43,-0.43,-0.43,-0.43,-0.43,0.4774,0.4309,0.4073,0.4382,0.3759,0.3042,0.2382,0.2134,0.1979,0.1841,0.1558,0.1266,0.1043,0.124,0.1263,0.0842,0.0172,-0.0521,-0.1121,-0.1006,-0.091,-0.0834,-0.0637,-0.0314,0.008,0.0393,0.086,0.1592,0.1087,0.0541,0.0,0.0,0.0,0.0,-0.0,-0.0314,-0.055,-0.1178,-0.165,-0.1886,-0.2666,-0.3212,0.0,0.0,-0.5154,-0.6009,0.0,-0.6784,-0.7015,-0.7015,-0.6861,-0.663,-0.6318,-0.5774,-0.5154,-0.4921,-0.4535,-0.4224,-0.4538,-0.3997,0.0,-0.4365,-0.4193,0.0,-0.4229,0.0,-0.3889,0.0,0.0,0.0,0.0,0.0202,0.1171,0.1547,0.2673,0.3677,0.0,0.4927,0.5682,0.5986,0.6935,0.7726,0.8215,0.0,0.0,0.0,0.0,0.0,0.0,0.0,-0.4798,-0.4867,-0.4936,-0.492,-0.4719,-0.4745,-0.4553,-0.436,-0.4319,-0.43,-0.43,-0.43,-0.43,-0.43,-0.43,-0.43,-0.43,-0.43,-0.43,-0.43,-0.43,-0.43,-0.43,-0.43,-0.43,-0.4306,0.4079,0.3374,0.2902,0.3292,0.2665,0.2041,0.1653,0.1844,0.1776,0.1188,0.0656,0.0249,-0.0159,-0.0082,-0.0084,-0.0169,-0.0516,-0.0702,-0.0715,-0.1123,-0.1365,-0.1392,-0.1361,-0.1337,-0.126,-0.0472,-0.0078,-0.0,-0.0,-0.0,0.0,0.0,0.0,-0.0079,-0.0471,-0.0628,-0.0707,-0.1493,-0.1807,-0.165,-0.2041,-0.2353,-0.2588,-0.3443,-0.4453,-0.5467,-0.5079,-0.5467,-0.6163,-0.6163,-0.6707,-0.7326,-0.6472,-0.6163,-0.6009,-0.5234,-0.4455,-0.3988,-0.4691,-0.4076,-0.3402,-0.4227,0.0,0.0,0.0,0.0,-0.3061,0.0,0.0,0.0,0.0,0.0,-0.0267,0.1358,0.1414,0.1714,0.3079,0.3395,0.3778,0.4489,0.6085,0.7246,0.762,0.6338,0.0,0.0,0.0,0.2622,0.0,0.0,-0.4387,-0.4901,-0.4971,-0.4953,-0.4836,-0.4713,-0.4662,-0.4469,-0.4355,-0.43,-0.43,-0.43,-0.43,-0.4367,-0.43,-0.43,-0.4367,-0.43,-0.43,-0.43,-0.43,-0.43,-0.43,-0.43,-0.4306,-0.4325,0.3217,0.2512,0.2043,0.2277,0.1727,0.1343,0.177,0.1053,0.0493,0.0254,0.0086,-0.0259,-0.0955,-0.1038,-0.095,-0.095,-0.1128,-0.1222,-0.1228,-0.1322,-0.1406,-0.1391,-0.1341,-0.1313,-0.1314,-0.111,-0.0627,-0.0,-0.0,-0.0,-0.0,0.0,-0.0314,-0.0943,-0.11,-0.1257,-0.1415,-0.1415,-0.1572,-0.1807,-0.2119,-0.2511,-0.2904,0.0,-0.3214,-0.3841,-0.4693,-0.516,-0.5312,-0.5312,-0.5854,-0.6472,-0.624,-0.6163,-0.6009,-0.5234,-0.4455,-0.3677,-0.329,-0.2887,-0.2862,-0.3567,-0.3533,-0.3497,0.0,0.0,0.0,0.0,0.0,0.0,0.0,0.0,0.0,-0.0601,-0.0,0.0705,0.165,0.1786,0.2004,0.2576,0.3129,0.3939,0.5209,0.4417,0.0,0.0,0.0,0.0,0.0,0.0,0.0,-0.3564,-0.4428,-0.4866,-0.4833,-0.4713,-0.4662,-0.4469,-0.4355,-0.43,-0.43,-0.43,-0.4498,-0.4891,-0.4498,-0.4498,-0.4891,-0.4431,-0.43,-0.43,-0.43,-0.43,-0.43,-0.43,-0.4355,-0.4431,0.3104,0.2233,0.1437,0.1117,0.0718,0.0561,0.0813,0.0328,-0.0084,-0.026,-0.0522,-0.0871,-0.1309,-0.1285,-0.1269,-0.1269,-0.1354,-0.1365,-0.1391,-0.1395,-0.1401,-0.141,-0.137,-0.1352,-0.1361,-0.1318,-0.1053,-0.0567,-0.016,-0.0159,-0.055,-0.055,-0.0707,-0.1021,-0.1178,-0.1415,-0.1493,-0.1493,-0.165,-0.1886,-0.2119,-0.2431,0.0,-0.2589,-0.2668,-0.2904,-0.368,-0.4146,-0.4455,-0.4455,-0.4999,-0.5699,-0.5699,-0.5699,-0.5622,-0.516,-0.4455,-0.3677,-0.321,-0.2823,-0.2579,-0.3006,-0.2994,-0.2983,-0.3392,-0.3383,-0.3247,0.0,0.0,0.0,0.0,0.0,0.0,-0.169,-0.1061,-0.0392,0.0193,0.013,0.0262,0.0856,0.0799,0.1071,0.1935,0.0,0.0,0.0,0.0,0.0,0.0,0.0,0.0,-0.3781,-0.4523,-0.4915,-0.4915,-0.4792,-0.467,-0.4618,-0.4706,-0.4684,-0.4628,-0.4897,-0.5027,-0.5087,-0.4761,-0.4724,-0.4842,-0.4507,-0.4406,-0.4455,-0.4455,-0.4455,-0.4455,-0.4455,-0.4461,-0.4485,0.301,0.1879,0.0818,-0.0,-0.0245,-0.0327,0.0,-0.0416,0.0,-0.0608,0.0,-0.1378,-0.1267,-0.1321,-0.1303,-0.1303,-0.1306,-0.133,-0.1381,-0.1369,-0.1382,-0.1433,-0.1383,-0.1377,-0.1428,-0.1376,-0.1261,-0.1258,-0.0493,-0.0482,-0.1178,-0.1257,-0.11,-0.0707,-0.11,-0.1335,-0.1335,-0.1493,-0.1729,-0.1964,-0.2118,-0.2353,-0.2511,-0.2511,-0.2511,-0.2511,-0.2511,-0.2978,-0.3599,-0.3599,-0.4144,-0.4846,-0.4846,-0.4927,-0.5002,-0.4846,-0.4377,-0.3752,-0.3675,-0.3054,-0.2511,-0.2511,-0.2511,-0.2511,-0.2511,-0.2511,-0.2511,-0.2511,-0.2392,-0.2035,0.0,0.0,0.0,-0.2185,-0.1836,-0.1482,-0.1052,-0.1334,-0.1406,-0.0849,-0.1192,0.0,0.0,0.0,0.0,0.0,0.0,0.0,0.0,0.0,0.0,-0.474,-0.4938,0.0,-0.5015,0.0,-0.4847,-0.4867,-0.5163,-0.5297,-0.5223,-0.5711,-0.5641,-0.5223,-0.5176,-0.4916,-0.461,-0.4541,-0.4613,-0.4726,-0.4726,-0.4726,-0.4726,-0.4742,-0.461,-0.4548,0.0918,0.0335,-0.0,-0.0502,-0.0921,-0.1172,-0.1256,-0.1176,-0.1104,-0.1216,-0.1286,-0.1354,-0.1264,-0.1321,-0.1303,-0.1303,-0.1326,-0.1344,-0.1354,-0.1396,-0.1425,-0.1435,-0.1401,-0.1387,-0.1397,-0.1365,-0.1336,-0.1311,-0.0897,-0.0643,-0.0707,0.0,-0.1257,-0.1178,-0.1257,-0.1415,-0.1572,-0.1572,0.0,-0.2118,-0.2195,-0.2353,-0.2511,-0.2511,-0.2511,-0.2511,-0.2511,-0.2588,-0.2743,-0.2743,-0.3288,-0.3986,-0.3986,-0.4455,-0.4846,-0.4222,-0.3908,-0.3675,-0.2899,-0.2588,-0.2511,-0.2511,-0.2511,-0.2511,-0.2511,-0.2511,-0.2511,-0.2511,-0.211,-0.1778,-0.2037,0.0,0.0,0.0,0.0,0.0,0.0,-0.2039,-0.2638,-0.2979,-0.3199,-0.3025,0.0,0.0,0.0,0.0,0.0,0.0,0.0,0.0,0.0,0.0,-0.4773,0.0,0.0,0.0,-0.5069,-0.5584,-0.5374,-0.5433,-0.576,-0.6022,-0.6011,-0.5763,-0.5491,-0.5283,-0.5095,-0.468,-0.4613,-0.4726,-0.4726,-0.4726,-0.4737,-0.4765,-0.479,-0.4776,0.0842,-0.0255,-0.0857,-0.1028,-0.1274,0.0,0.0,-0.1343,-0.1335,-0.1366,-0.1343,-0.1324,-0.1324,-0.1297,-0.1279,-0.1279,-0.1292,-0.1314,-0.1261,-0.1288,-0.1403,-0.1433,-0.1421,-0.1413,-0.1413,-0.1384,-0.1355,-0.1326,0.0,0.0,0.0,0.0,-0.1335,-0.1335,-0.1415,-0.1493,-0.165,0.0,0.0,-0.2196,-0.2353,-0.2431,-0.2511,-0.2511,-0.2511,-0.2511,-0.2511,-0.2511,-0.2511,-0.2511,-0.2744,-0.3132,-0.3132,-0.3366,-0.36,-0.321,-0.3132,-0.3056,-0.2588,-0.2511,-0.2511,-0.2511,-0.2511,-0.2511,-0.2511,-0.2511,-0.2511,-0.2511,-0.2275,-0.218,-0.266,-0.2446,0.0,0.0,0.0,0.0,0.0,-0.2884,-0.3061,-0.239,-0.333,-0.39,-0.3502,0.0,0.0,-0.2874,-0.4648,0.0,0.0,0.0,0.0,0.0,0.0,0.0,0.0,0.0,0.0,-0.5768,-0.6208,-0.651,-0.6623,-0.6982,-0.6973,-0.6627,-0.6433,-0.6231,-0.5957,-0.5453,-0.5084,-0.4841,-0.4841,-0.4841,-0.4849,-0.4906,-0.4928,-0.4928,0.1624,-0.0,-0.105,-0.1132,-0.1287,-0.1361,-0.137,-0.1332,-0.1311,-0.1335,-0.1311,-0.1293,-0.1293,-0.1271,-0.1335,-0.1335,-0.1263,-0.1287,-0.1335,-0.126,-0.1371,-0.1423,-0.1425,-0.1425,-0.1425,-0.1408,-0.138,0.0,0.0,0.0,0.0,0.0,0.0,0.0,0.0,0.0,0.0,0.0,-0.2196,-0.2275,-0.2431,-0.2511,-0.2511,-0.2511,-0.2511,-0.2511,-0.2511,-0.2511,-0.2511,-0.2511,-0.2511,-0.2511,-0.2511,-0.2511,-0.2511,-0.2511,-0.2511,-0.2511,-0.2511,-0.2511,-0.2511,-0.2511,-0.2511,-0.2511,-0.2511,-0.2511,-0.2511,-0.2511,-0.2511,-0.2574,-0.2832,-0.255,0.0,0.0,0.0,0.0,0.0,0.0,-0.3201,-0.1983,-0.3377,-0.4444,-0.4389,0.0,0.0,0.0,0.0,0.0,0.0,0.0,0.0,0.0,0.0,-0.5421,-0.5631,0.0,-0.6173,0.0,-0.7068,-0.7466,-0.7456,-0.7966,-0.7819,-0.7249,-0.7325,-0.7005,-0.6477,-0.5956,-0.5401,-0.5018,-0.5018,-0.5018,-0.5018,-0.5018,-0.5018,-0.5018,0.2852,0.1428,0.0267,0.0,0.0,-0.1369,-0.1318,-0.1306,-0.1303,-0.1307,-0.128,-0.1262,-0.1262,-0.1338,-0.1335,-0.1335,-0.1282,-0.1301,-0.1307,-0.1333,-0.1362,-0.1393,-0.1394,-0.1394,-0.1394,-0.1418,-0.139,0.0,0.0,-0.1314,0.0,0.0,0.0,0.0,0.0,0.0,0.0,-0.2195,-0.2275,-0.251,-0.2511,-0.2511,-0.2511,-0.2511,-0.2511,-0.2511,-0.2511,-0.2511,-0.2511,-0.2511,-0.2511,-0.2511,-0.2511,-0.2511,-0.2511,-0.2511,-0.2511,-0.2511,-0.2511,-0.2511,-0.2511,-0.2511,-0.2511,-0.2511,-0.2511,-0.2511,-0.2511,-0.2511,-0.2511,-0.251,-0.2503,-0.2497,-0.2806,0.0,0.0,0.0,0.0,0.0,-0.3581,-0.415,-0.4553,-0.4783,-0.4576,-0.562,0.0,0.0,-0.6732,0.0,0.0,0.0,0.0,-0.6083,0.0,-0.7222,-0.7553,-0.7015,0.0,-0.7582,-0.7512,-0.7618,-0.7751,-0.8198,-0.7879,-0.7074,-0.7402,-0.6896,-0.5809,-0.5271,-0.5018,-0.5018,-0.5018,-0.5018,-0.5018,-0.5018,-0.5018,-0.5018,0.0,0.0,0.0,0.0,0.0,0.0,0.0,-0.1287,-0.1275,-0.1275,-0.1265,-0.1335,-0.1335,-0.1335,-0.1335,-0.1335,-0.1269,-0.1283,-0.1301,-0.1314,-0.1334,-0.1363,-0.1365,-0.1365,-0.1365,-0.1358,-0.1338,0.0,0.0,0.0,0.0,0.0,0.0,0.0,0.0,-0.1965,-0.2125,-0.2338,-0.2484,-0.2561,-0.2525,-0.2511,-0.2511,-0.2511,-0.2511,-0.2511,-0.2511,-0.2511,-0.2511,-0.2511,-0.2511,-0.2511,-0.2511,-0.2511,-0.2511,-0.2511,-0.2511,-0.2511,-0.2511,-0.2511,-0.2511,-0.2511,-0.2511,-0.2511,-0.2511,-0.2511,-0.2511,-0.2511,-0.2511,-0.2511,-0.2511,-0.2902,-0.345,0.0,0.0,0.0,0.0,0.0,-0.4273,-0.4613,-0.4567,-0.4511,-0.4445,-0.6341,0.0,0.0,0.0,0.0,0.0,0.0,0.0,-0.7467,0.0,-0.7271,-0.7869,-0.7606,-0.7592,-0.7824,-0.8054,-0.8268,-0.834,-0.8505,-0.8342,-0.8052,-0.8207,-0.7593,-0.6467,-0.6224,-0.5709,-0.5018,-0.5018,-0.5018,-0.5018,-0.5018,-0.5018,-0.5018,0.3094,0.0,0.1844,0.0,0.0328,-0.0243,-0.0806,-0.1112,-0.1335,-0.1335,-0.1335,-0.1335,-0.1335,-0.1335,-0.1335,-0.1335,-0.1335,-0.1266,-0.1288,-0.1289,-0.1303,-0.1333,-0.1335,0.0,-0.1335,-0.1322,-0.1311,-0.1303,-0.1303,0.0,0.0,0.0,0.0,0.0,-0.1726,-0.1978,-0.2058,-0.2349,-0.2495,-0.2571,-0.2527,-0.2511,-0.2511,-0.2511,-0.2511,-0.2511,-0.2511,-0.2511,-0.2511,-0.2511,-0.2511,-0.2511,-0.2511,-0.2511,-0.2511,-0.2511,-0.2511,-0.2511,-0.2511,-0.2511,-0.2511,-0.2511,-0.2511,-0.2511,-0.2511,-0.2511,-0.2511,-0.2511,-0.2511,-0.2511,-0.2511,-0.2979,-0.3528,-0.3763,0.0,0.0,0.0,-0.4917,0.0,-0.4686,-0.449,-0.437,-0.4314,-0.6433,0.0,0.0,0.0,0.0,0.0,0.0,0.0,0.0,0.0,0.0,0.0,-0.8077,-0.8089,-0.8089,-0.8475,-0.867,-0.8614,-0.8614,-0.8647,-0.8699,-0.8546,-0.7859,-0.6861,-0.671,-0.5941,-0.5018,-0.5018,-0.5018,-0.5018,-0.5018,-0.5018,-0.5018,0.4036,0.3193,0.2583,0.2606,0.1135,-0.0,-0.0,-0.0785,-0.1335,-0.1335,-0.1335,-0.1335,-0.1335,-0.1335,-0.1335,-0.1335,-0.1335,-0.1335,-0.1336,-0.1336,-0.1271,0.0,0.0,-0.1303,-0.1303,-0.1332,-0.1333,-0.1303,0.0,0.0,-0.1301,0.0,-0.1433,-0.1626,-0.159,-0.1807,-0.2198,-0.2198,-0.2354,-0.2511,-0.2511,-0.2511,-0.2511,-0.2511,-0.2511,-0.2511,-0.2511,-0.2511,-0.2511,-0.2511,-0.2511,-0.2511,-0.2511,-0.2511,-0.2511,-0.2511,-0.2511,-0.2511,-0.2511,-0.2511,-0.2511,-0.2511,-0.2511,-0.2511,-0.2511,-0.2511,-0.2511,-0.2511,-0.2511,-0.2511,-0.2511,-0.2511,-0.2824,-0.3684,0.0,0.0,0.0,-0.4912,0.0,-0.474,-0.4615,-0.4425,-0.4311,-0.5352,0.0,0.0,0.0,0.0,0.0,0.0,0.0,-0.6455,-0.7668,0.0,-0.8385,-0.8623,-0.8699,-0.8699,-0.8703,-0.8595,-0.8406,-0.8406,-0.8514,-0.8703,-0.8089,-0.7476,-0.6865,-0.617,-0.5556,-0.5018,-0.5018,-0.5018,-0.5018,-0.5018,-0.5018,-0.5018,0.4024,0.3649,0.3199,0.2619,0.2062,0.1344,0.0157,-0.0235,-0.0628,-0.1257,-0.1335,-0.1335,-0.1335,-0.1335,-0.1335,0.0,-0.1335,-0.1335,0.0,-0.1335,-0.1262,-0.1271,-0.1271,-0.1271,-0.1271,-0.1281,-0.1362,-0.151,0.0,0.0,0.0,-0.1817,-0.1818,-0.1914,-0.1983,-0.214,-0.2301,-0.2427,-0.2492,-0.2568,-0.2527,-0.2511,-0.2511,-0.2511,-0.2511,-0.2511,-0.2511,-0.2511,-0.2511,-0.2511,-0.2511,-0.2511,-0.2511,-0.2511,-0.2511,-0.2511,-0.2511,-0.2511,-0.2511,-0.2511,-0.2511,-0.2511,-0.2511,-0.2511,-0.2511,-0.2511,-0.2353,-0.196,-0.2196,-0.2511,-0.2511,-0.2746,-0.3139,-0.3684,-0.3997,0.0,0.0,0.0,-0.4727,-0.477,-0.4594,-0.4488,0.0,-0.5571,0.0,0.0,0.0,0.0,0.0,0.0,0.0,0.0,-0.8732,0.0,-0.9301,-0.8923,-0.8703,-0.8703,-0.8703,-0.867,-0.8609,-0.8609,-0.8642,-0.8699,-0.8475,-0.8089,-0.7476,-0.6861,-0.617,-0.5553,-0.5171,-0.5018,-0.5018,-0.5018,-0.5018,-0.5018,0.3928,0.3801,0.3606,0.3059,0.2744,0.2038,0.0705,0.0235,-0.0313,-0.1178,-0.1335,-0.1335,-0.1335,-0.1335,0.0,-0.1335,-0.1335,-0.1335,-0.1335,-0.1335,-0.1335,-0.1335,-0.1335,-0.1335,-0.1335,0.0,0.0,-0.1593,-0.1697,-0.1802,-0.1992,-0.1976,-0.1977,-0.1991,-0.2058,-0.2215,-0.2293,-0.2421,-0.2487,-0.2564,-0.2526,-0.2511,-0.2511,-0.2511,-0.2511,-0.2511,-0.2511,-0.2511,-0.2511,-0.2511,-0.2511,-0.2511,-0.2511,-0.2511,-0.2511,-0.2511,-0.2511,-0.2511,-0.2511,-0.2511,-0.2511,-0.2511,-0.2511,-0.2431,-0.2196,-0.2353,-0.2353,-0.1724,-0.2117,-0.2511,-0.2511,-0.2668,-0.3061,-0.3684,-0.3995,-0.4387,-0.4937,0.0,-0.4749,0.0,0.0,0.0,0.0,-0.5371,-0.6026,0.0,0.0,0.0,0.0,0.0,0.0,-0.9038,-0.8611,0.0,-0.8975,-0.877,-0.8703,-0.8703,-0.8703,-0.8703,-0.8703,-0.8703,-0.8703,-0.8703,-0.8703,-0.8394,-0.7783,-0.7169,-0.6479,-0.5864,-0.5249,-0.5018,-0.5018,-0.5018,-0.5018,-0.5018,0.3841,0.3763,0.0,0.0,0.3136,0.0,0.1489,0.0705,-0.0157,-0.1099,-0.1178,-0.1257,-0.1257,-0.1335,-0.1335,-0.1335,0.0,0.0,0.0,-0.1335,-0.1335,-0.1335,-0.1335,-0.1335,-0.1335,-0.1335,-0.143,-0.1543,-0.1706,-0.1787,-0.1786,-0.183,-0.1911,-0.1866,-0.1905,-0.2042,-0.2196,-0.2196,-0.2353,-0.2511,-0.2511,-0.2511,-0.2511,-0.2511,-0.2511,-0.2511,-0.2511,-0.2511,-0.2511,-0.2511,-0.2511,-0.2511,-0.2511,-0.2511,-0.2511,-0.2511,-0.2511,-0.2511,-0.2511,-0.2511,-0.2511,-0.2511,-0.2431,-0.2275,-0.1647,-0.2038,-0.2275,-0.1647,-0.2038,-0.2511,-0.2511,-0.2511,-0.2746,-0.3606,-0.3763,-0.4077,-0.4859,0.0,-0.4836,0.0,0.0,0.0,0.0,-0.4751,-0.4798,0.0,0.0,0.0,0.0,0.0,-0.8389,-0.7092,-0.7553,-0.7859,-0.7859,-0.8394,-0.8703,-0.8703,-0.8703,-0.8703,-0.8703,-0.8703,-0.8703,-0.8703,-0.8703,-0.8394,-0.7783,-0.7246,-0.6556,-0.5941,-0.5323,-0.5015,-0.5018,-0.5018,-0.5018,-0.5018,0.0,0.0,0.3763,0.3763,0.3606,0.3214,0.2352,0.2038,0.1411,-0.0078,-0.0313,-0.0549,-0.1257,-0.1335,-0.1335,-0.1335,-0.1335,-0.1335,-0.1335,-0.1335,-0.1335,-0.1335,-0.1335,-0.1335,-0.1335,-0.1415,-0.1497,-0.1347,-0.1128,-0.0974,-0.0974,-0.1535,-0.1779,-0.1785,-0.2141,-0.2354,-0.2431,-0.2431,-0.2431,-0.2511,-0.2511,-0.2511,-0.2511,-0.2511,-0.2511,-0.2511,-0.2511,-0.2511,-0.2511,-0.2511,-0.2511,-0.2511,-0.2511,-0.2511,-0.2511,-0.2511,-0.2511,-0.2511,-0.2511,-0.2511,-0.2511,-0.2511,-0.2117,-0.1647,-0.102,-0.1333,-0.1646,-0.0942,-0.1726,-0.2511,-0.2511,-0.2511,-0.2668,-0.3217,-0.353,-0.3997,-0.4465,-0.4678,0.0,0.0,-0.4866,-0.4828,-0.4923,-0.4931,-0.5245,0.0,0.0,0.0,0.0,-0.8775,-0.8937,-0.8318,-0.8394,-0.847,-0.847,-0.8627,-0.8703,-0.8703,-0.8703,-0.8703,-0.8703,-0.8703,-0.8703,-0.8703,-0.8703,-0.8627,-0.847,-0.7859,-0.7246,-0.6633,-0.5938,-0.5401,-0.5018,-0.5018,-0.5018,-0.5018,0.3841,0.3763,0.3763,0.3763,0.3763,0.3528,0.2668,0.2511,0.2038,0.0783,0.0627,0.0392,-0.0078,-0.0078,-0.0078,-0.0078,-0.0471,-0.0863,-0.1257,-0.0549,-0.0314,-0.0706,-0.0314,-0.0078,-0.0078,-0.0235,-0.0392,-0.0549,-0.0476,-0.0479,-0.064,-0.104,-0.1359,-0.1677,-0.1972,-0.2275,-0.2511,-0.2511,-0.2511,-0.2511,-0.2511,-0.2511,-0.2511,-0.2511,-0.2511,-0.2511,-0.2511,-0.2511,-0.2511,-0.2511,-0.2511,-0.2511,-0.2511,-0.2511,-0.2511,-0.2511,-0.2511,-0.2511,-0.2511,-0.2511,-0.2511,-0.2511,-0.2038,-0.1412,-0.0785,-0.1099,-0.1412,-0.0707,-0.1648,-0.2511,-0.2511,-0.2511,-0.2668,-0.3062,-0.353,-0.3919,-0.4307,-0.4647,0.0,-0.501,-0.4958,-0.4944,-0.501,-0.5018,-0.5246,-0.578,0.0,0.0,-0.7698,-0.8318,-0.8627,-0.8703,-0.8703,-0.8703,-0.8703,-0.8703,-0.8703,-0.8703,-0.8703,-0.8703,-0.8703,-0.8703,-0.8703,-0.8703,-0.8703,-0.8546,-0.8241,-0.7629,-0.7015,-0.6402,-0.5709,-0.5326,-0.5018,-0.5018,-0.5018,-0.5018,0.3763,0.3763,0.3763,0.3763,0.3763,0.3528,0.2824,0.2666,0.2431,0.1568,0.1489,0.1411,0.1332,0.1332,0.1332,0.1332,0.0705,-0.0,-0.0864,0.047,0.094,0.0235,0.094,0.1332,0.1332,0.1332,0.1019,0.0392,0.0235,-0.0,-0.0314,-0.0393,-0.0785,-0.1333,-0.1412,-0.1725,-0.2196,-0.2353,-0.2353,-0.2353,-0.2431,-0.2511,-0.2511,-0.2511,-0.2511,-0.2511,-0.2511,-0.2511,-0.2511,-0.2511,-0.2511,-0.2511,-0.2511,-0.2511,-0.251,-0.2353,-0.2353,-0.2353,-0.251,-0.2431,-0.2353,-0.2275,-0.1725,-0.1175,-0.0625,-0.0939,-0.1254,-0.0703,-0.1644,-0.2511,-0.2511,-0.2511,-0.2668,-0.3062,-0.353,-0.3919,-0.4307,0.0,-0.5018,-0.5018,-0.5018,-0.5018,-0.5018,-0.5018,-0.5018,-0.5018,-0.5634,-0.6325,0.0,-0.7553,-0.8165,-0.8699,-0.8703,-0.8703,-0.8703,-0.8703,-0.8703,-0.8703,-0.8703,-0.8703,-0.8703,-0.8703,-0.8703,-0.8703,-0.8703,-0.8394,-0.7783,-0.7246,-0.6556,-0.5864,-0.5326,-0.5093,-0.5018,-0.5018,-0.5018,-0.5018,0.3763,0.3763,0.3763,0.3763,0.3763,0.3763,0.3606,0.3606,0.3294,0.2431,0.2353,0.2038,0.141,0.1332,0.1332,0.1332,0.1803,0.1803,0.094,0.1176,0.1254,0.1097,0.1254,0.1332,0.1332,0.1332,0.1175,0.0784,0.102,0.1099,0.1021,0.0393,0.0079,-0.0,-0.0549,-0.0785,-0.0942,-0.149,-0.1724,-0.1803,-0.2275,-0.2511,-0.2511,-0.2511,-0.2511,-0.2511,-0.2511,-0.2511,-0.2511,-0.2511,-0.2511,-0.2511,-0.2511,-0.2511,-0.2431,-0.1882,-0.1724,-0.1882,-0.2353,-0.2117,-0.1568,-0.102,-0.0471,-0.0,0.0153,-0.031,-0.0781,-0.0688,-0.1624,-0.2511,-0.2511,-0.2511,-0.2668,-0.3062,-0.353,-0.3919,-0.4307,0.0,-0.5018,-0.5018,-0.5018,-0.5018,-0.5018,-0.5018,-0.5018,-0.5018,-0.6096,-0.6784,-0.6865,-0.7936,-0.8623,-0.8703,-0.8703,-0.8703,-0.8703,-0.8703,-0.8703,-0.8703,-0.8703,-0.8703,-0.8703,-0.8703,-0.8703,-0.8703,-0.8703,-0.8394,-0.7783,-0.7706,-0.6938,-0.586,-0.5786,-0.5479,-0.5018,-0.5018,-0.5018,-0.5018,0.3689,0.373,0.3763,0.3763,0.3763,0.3763,0.3763,0.3763,0.3684,0.3215,0.3215,0.3057,0.2665,0.2665,0.2665,0.2665,0.2979,0.3057,0.2665,0.2665,0.2429,0.196,0.243,0.2665,0.2665,0.2665,0.235,0.1724,0.1883,0.1727,0.1257,0.1021,0.0628,0.0314,-0.0,-0.0314,-0.0628,-0.0942,-0.1255,-0.1646,-0.1882,-0.2196,-0.2511,-0.2511,-0.2511,-0.2511,-0.2511,-0.2511,-0.2511,-0.2511,-0.2511,-0.2431,-0.2117,-0.2038,-0.1882,-0.1255,-0.1098,-0.1099,-0.1412,-0.1256,-0.1017,-0.0695,-0.0154,0.0307,0.0304,0.0076,-0.0231,-0.054,-0.1402,-0.2117,-0.2431,-0.2511,-0.2589,-0.2746,-0.3372,0.0,0.0,-0.4623,-0.5018,-0.5018,-0.5018,-0.5018,-0.5018,-0.5018,-0.5018,-0.5018,-0.5556,-0.617,-0.6865,-0.7399,-0.8012,-0.8699,-0.8703,-0.8703,-0.8703,-0.8703,-0.8703,-0.8703,-0.8703,-0.8703,-0.8699,-0.8394,-0.8394,-0.8703,-0.8012,-0.7553,-0.7322,-0.6938,-0.6247,-0.5401,-0.5401,-0.5249,-0.5018,-0.5018,-0.4974,-0.4917,0.3652,0.3697,0.3738,0.3759,0.3763,0.3763,0.3763,0.3763,0.3763,0.3763,0.3763,0.3763,0.3763,0.3763,0.3763,0.3763,0.3763,0.3763,0.3763,0.3763,0.3528,0.2823,0.345,0.3763,0.3763,0.3686,0.3294,0.2668,0.2431,0.2041,0.1414,0.1335,0.1021,0.055,0.055,0.0314,-0.0157,-0.0314,-0.0706,-0.1176,-0.1333,-0.1725,-0.2275,-0.2118,-0.2118,-0.2275,-0.2275,-0.2196,-0.2118,-0.2275,-0.2196,-0.1961,-0.149,-0.1333,-0.1255,-0.0549,-0.0314,-0.0157,-0.0312,-0.0389,-0.0387,-0.0302,0.015,0.0525,0.0525,0.0302,-0.0076,-0.0543,-0.1251,-0.196,-0.2431,-0.2511,-0.2511,-0.2589,0.0,0.0,0.0,-0.4545,-0.5018,-0.5018,-0.5018,-0.5018,-0.5018,-0.5018,-0.5018,-0.5018,-0.5249,-0.5864,-0.6865,-0.7015,-0.7553,-0.847,-0.8627,-0.8703,-0.8703,-0.8546,-0.8546,-0.8703,-0.8546,-0.847,-0.847,-0.8012,-0.8012,-0.8241,-0.7322,-0.6788,-0.663,-0.6093,-0.5556,-0.5018,-0.5018,-0.4999,-0.4974,-0.4974,-0.4898,-0.4792,0.3736,0.3691,0.3663,0.3748,0.3763,0.3763,0.3763,0.3763,0.3763,0.3763,0.3763,0.3763,0.3763,0.3763,0.3763,0.3763,0.3763,0.3763,0.3763,0.3763,0.3763,0.3684,0.3763,0.3763,0.3763,0.3374,0.3141,0.3062,0.2275,0.1882,0.1882,0.1492,0.1257,0.1257,0.1257,0.1178,0.11,0.0471,0.0236,0.0079,-0.0471,-0.1099,-0.1568,-0.0942,-0.1099,-0.1646,-0.1646,-0.1255,-0.0864,-0.149,-0.1255,-0.0707,-0.0707,-0.0707,-0.055,0.0079,0.0707,0.1016,0.0382,0.0228,0.0377,0.0957,0.1097,0.117,0.117,0.0223,-0.0606,-0.0683,-0.1622,-0.2431,-0.2511,-0.2511,-0.2589,-0.2982,0.0,0.0,-0.4307,-0.4701,-0.5018,-0.5018,-0.5018,-0.5018,-0.5018,-0.5018,-0.5018,-0.5018,-0.6096,-0.6788,-0.6865,-0.7399,-0.7783,-0.7859,-0.8394,-0.8703,-0.8703,-0.8165,-0.8165,-0.8699,-0.8165,-0.7859,-0.7859,-0.7783,-0.7553,-0.7015,-0.6938,-0.6556,-0.5941,-0.5941,-0.5556,-0.5018,-0.5018,-0.4947,-0.4849,-0.4849,-0.477,-0.474,0.3509,0.3532,0.3558,0.3593,0.3599,0.3599,0.3599,0.3599,0.3599,0.3599,0.3599,0.3599,0.3599,0.3599,0.3599,0.3599,0.3599,0.3622,0.3675,0.363,0.3648,0.3759,0.3763,0.3763,0.3763,0.3606,0.3374,0.3062,0.2511,0.2275,0.2275,0.157,0.1414,0.1648,0.1414,0.1335,0.1257,0.1021,0.0707,0.0314,0.0079,-0.0392,-0.0942,-0.0707,-0.0785,-0.0942,-0.0942,-0.0785,-0.0628,-0.0863,-0.0785,-0.055,-0.0157,-0.0079,0.0078,0.0694,0.1075,0.1142,0.0876,0.0813,0.0903,0.1174,0.1166,0.1171,0.119,0.0827,0.0228,-0.0463,-0.1002,-0.1534,-0.2301,-0.2454,-0.2454,-0.2608,0.0,-0.3841,-0.3997,-0.4623,-0.5018,-0.5018,-0.5018,-0.5018,-0.5018,-0.5018,-0.5018,-0.5018,-0.5479,-0.5864,-0.6247,-0.7246,-0.7783,-0.7783,-0.8012,-0.8318,-0.8703,-0.847,-0.8318,-0.8165,-0.7936,-0.7629,-0.7246,-0.6784,-0.6707,-0.6865,-0.6096,-0.5786,-0.5864,-0.5479,-0.5126,-0.4904,-0.4904,-0.4828,-0.4722,-0.4722,-0.4643,-0.461,0.3442,0.3475,0.3499,0.3499,0.3499,0.3499,0.3499,0.3499,0.3499,0.3499,0.3499,0.3499,0.3499,0.3499,0.3499,0.3499,0.3499,0.3524,0.3583,0.3556,0.3593,0.3714,0.3748,0.3763,0.3763,0.3763,0.3606,0.3295,0.2904,0.2589,0.251,0.1805,0.157,0.1726,0.1414,0.1335,0.1335,0.1335,0.1021,0.0628,0.0628,0.0236,-0.0314,-0.0079,-0.0157,-0.0314,-0.0314,-0.0234,-0.0078,-0.0235,-0.0156,0.0078,0.047,0.0625,0.0696,0.1056,0.1198,0.1186,0.1135,0.1158,0.119,0.1159,0.1152,0.1163,0.1202,0.106,0.0686,-0.0156,-0.062,-0.1069,-0.197,-0.2269,-0.242,-0.242,-0.3067,-0.3575,-0.3759,-0.4389,-0.4859,-0.5018,-0.5018,-0.5018,-0.5018,-0.5018,-0.5002,-0.4961,-0.5112,-0.5416,-0.5873,-0.6859,-0.7339,-0.7246,-0.7399,-0.7706,-0.8165,-0.7936,-0.7783,-0.7783,-0.7399,-0.7015,-0.6556,-0.6093,-0.6015,-0.6251,-0.5401,-0.5249,-0.555,-0.5129,-0.4909,-0.483,-0.4792,-0.4703,-0.4665,-0.4665,-0.4518,-0.4417,0.3605,0.3556,0.3497,0.3497,0.3497,0.3497,0.3497,0.3497,0.3497,0.3497,0.3497,0.3497,0.3497,0.3497,0.3497,0.3497,0.3497,0.3497,0.3497,0.3577,0.3624,0.3624,0.3714,0.3763,0.3763,0.3763,0.3763,0.3763,0.3295,0.2904,0.2511,0.2117,0.1648,0.1335,0.1335,0.1335,0.1335,0.1335,0.1335,0.1335,0.1335,0.0864,0.0393,0.1021,0.0864,0.0314,0.0314,0.0696,0.114,0.0545,0.0695,0.1217,0.1247,0.1236,0.1205,0.1175,0.1166,0.1159,0.1129,0.1143,0.1159,0.1129,0.1122,0.1138,0.1198,0.0758,0.0305,0.0313,-0.0706,-0.1556,-0.1521,-0.1967,-0.2418,-0.2418,-0.2723,-0.3204,-0.375,-0.4151,-0.4543,-0.4937,-0.5018,-0.5018,-0.5018,-0.5018,-0.4966,-0.4844,-0.5429,-0.58,-0.58,-0.6392,-0.6464,-0.5935,-0.6556,-0.6861,-0.6861,-0.6247,-0.6556,-0.7783,-0.6475,-0.5864,-0.586,-0.586,-0.5553,-0.5018,-0.5018,-0.5018,-0.5007,-0.4885,-0.4833,-0.4819,-0.47,-0.4649,-0.4469,-0.4469,-0.4398,-0.43,0.334,0.3326,0.3309,0.3309,0.3309,0.3309,0.3309,0.3309,0.3309,0.3309,0.3309,0.3309,0.3309,0.3309,0.3309,0.3309,0.3309,0.3309,0.3309,0.3452,0.3538,0.3538,0.3683,0.3763,0.3763,0.3699,0.3699,0.3763,0.3317,0.3011,0.2904,0.2196,0.1803,0.1726,0.1414,0.1245,0.1226,0.1226,0.1213,0.1196,0.1217,0.1072,0.092,0.1171,0.1178,0.1021,0.1021,0.1238,0.1516,0.1069,0.1205,0.1477,0.1265,0.1187,0.1179,0.1169,0.1166,0.1159,0.1129,0.1143,0.1164,0.1155,0.1169,0.1195,0.1234,0.1166,0.0857,0.0392,-0.0,-0.0456,-0.1259,-0.1548,-0.1832,-0.2232,-0.2663,-0.3186,-0.3665,-0.4108,-0.4543,-0.4937,-0.5018,-0.5018,-0.5018,-0.5018,-0.5002,-0.4966,-0.5033,-0.5238,-0.5653,-0.5889,-0.5969,-0.5865,-0.604,-0.617,-0.617,-0.6479,-0.6556,-0.6475,-0.6093,-0.5709,-0.5249,-0.5249,-0.5171,-0.5018,-0.5018,-0.5018,-0.5007,-0.4885,-0.4784,-0.4694,-0.4572,-0.4452,-0.4352,-0.4352,-0.433,-0.43,0.3281,0.3281,0.3271,0.3232,0.3226,0.3226,0.3226,0.3226,0.3226,0.3226,0.3226,0.3226,0.3226,0.3226,0.3226,0.3226,0.3226,0.3226,0.3226,0.3365,0.3446,0.3446,0.3583,0.3675,0.3707,0.3622,0.3603,0.3658,0.3381,0.3172,0.3019,0.2553,0.2165,0.1856,0.1626,0.1375,0.1194,0.1194,0.1183,0.1168,0.1186,0.1194,0.1196,0.1214,0.1374,0.145,0.145,0.1578,0.1694,0.1487,0.1477,0.1456,0.1224,0.1149,0.1146,0.1134,0.1139,0.1142,0.1111,0.1134,0.1166,0.1166,0.1189,0.122,0.125,0.1335,0.1178,0.0786,0.0543,0.0152,-0.0595,-0.1101,-0.1523,-0.1857,-0.232,-0.2875,-0.3569,-0.3878,-0.4325,-0.4868,-0.4988,-0.4996,-0.495,-0.4944,-0.4904,-0.4809,-0.4689,-0.475,-0.5145,-0.5222,-0.5292,-0.5347,-0.5406,-0.5475,-0.5475,-0.5912,-0.6093,-0.5864,-0.5631,-0.5323,-0.5018,-0.5018,-0.5018,-0.5018,-0.5018,-0.5018,-0.5004,-0.4833,-0.4719,-0.4706,-0.4469,-0.436,-0.43,-0.43,-0.43,-0.43,0.335,0.335,0.3324,0.3242,0.3226,0.3226,0.3226,0.3226,0.3226,0.3226,0.3226,0.3226,0.3226,0.3226,0.3226,0.3226,0.3226,0.3226,0.3226,0.3305,0.3354,0.3434,0.3436,0.3516,0.3601,0.3528,0.3491,0.3499,0.3491,0.3312,0.3016,0.2941,0.249,0.1812,0.1737,0.1564,0.1162,0.1162,0.1161,0.1158,0.1161,0.1162,0.1163,0.1166,0.1386,0.1677,0.1677,0.1721,0.1759,0.1725,0.1521,0.1153,0.1125,0.1117,0.1112,0.1087,0.1099,0.1115,0.1087,0.1122,0.1166,0.1163,0.1187,0.122,0.125,0.1333,0.1253,0.1253,0.0783,0.0389,0.0379,-0.0518,-0.1238,-0.1381,-0.1781,-0.2473,-0.3395,-0.363,-0.3993,-0.4683,-0.4923,-0.4944,-0.4844,-0.4825,-0.4722,-0.4488,-0.4384,-0.4368,-0.445,-0.4485,-0.4548,-0.4723,-0.4781,-0.4852,-0.4852,-0.4961,-0.5249,-0.5786,-0.5249,-0.5018,-0.5018,-0.5018,-0.5012,-0.4999,-0.4999,-0.4993,-0.4966,-0.4732,-0.4709,-0.4684,-0.4387,-0.43,-0.43,-0.43,-0.43,-0.43,0.3256,0.3256,0.325,0.323,0.3226,0.3226,0.3226,0.3226,0.3226,0.3226,0.3226,0.3226,0.3226,0.3226,0.3226,0.3226,0.3226,0.3226,0.3226,0.3246,0.3289,0.336,0.3313,0.3328,0.3418,0.3403,0.3428,0.3499,0.3428,0.3224,0.2938,0.2569,0.2204,0.1692,0.147,0.1232,0.1131,0.1131,0.1117,0.1097,0.1121,0.1131,0.1134,0.1157,0.1386,0.1677,0.1677,0.1865,0.2099,0.2067,0.1644,0.1162,0.1428,0.1289,0.1089,0.1106,0.1116,0.1119,0.1113,0.1138,0.1161,0.1137,0.1172,0.122,0.125,0.1239,0.1221,0.1221,0.1069,0.0909,0.0443,0.0219,-0.029,-0.1206,-0.1477,-0.2036,-0.3248,-0.3467,-0.384,-0.4672,-0.4773,-0.476,-0.4828,-0.4749,-0.4629,-0.4482,-0.4537,-0.4507,-0.4346,-0.4602,-0.4724,-0.4729,-0.4863,-0.4977,-0.4977,-0.5004,-0.5096,-0.5171,-0.5096,-0.5018,-0.5018,-0.5018,-0.4966,-0.4874,-0.4874,-0.4819,-0.4719,-0.4572,-0.451,-0.4496,-0.4355,-0.43,-0.43,-0.43,-0.43,-0.43,0.3226,0.3226,0.3226,0.3226,0.3226,0.3226,0.3226,0.3226,0.3226,0.3226,0.3226,0.3226,0.3226,0.3226,0.3226,0.3226,0.3226,0.3226,0.3226,0.3226,0.3248,0.3297,0.3252,0.3248,0.3297,0.3299,0.3322,0.3369,0.3322,0.3275,0.3147,0.2931,0.2503,0.2004,0.179,0.1481,0.1099,0.1099,0.109,0.1077,0.1093,0.1099,0.1101,0.1117,0.1474,0.1967,0.1967,0.2019,0.2196,0.1961,0.1547,0.1143,0.1277,0.121,0.1079,0.1095,0.111,0.1118,0.1103,0.1122,0.1141,0.1125,0.1145,0.1181,0.1226,0.1224,0.1212,0.1212,0.1212,0.1131,0.0818,0.0588,0.0218,-0.0358,-0.0978,-0.1649,-0.2539,-0.3161,-0.3661,-0.4292,-0.4584,-0.4656,-0.4659,-0.4553,-0.448,-0.4471,-0.4599,-0.4537,-0.4471,-0.4645,-0.4719,-0.4726,-0.4833,-0.4931,-0.4931,-0.4988,-0.5018,-0.5018,-0.5018,-0.5018,-0.5018,-0.5018,-0.4982,-0.4917,-0.486,-0.4798,-0.4724,-0.4545,-0.4469,-0.4458,-0.4344,-0.43,-0.43,-0.43,-0.43,-0.43,0.3226,0.3226,0.3226,0.3226,0.3226,0.3226,0.3226,0.3226,0.3226,0.3226,0.3226,0.3226,0.3226,0.3226,0.3226,0.3226,0.3226,0.3226,0.3226,0.3226,0.3226,0.3226,0.3226,0.3226,0.3226,0.3226,0.3226,0.3226,0.3226,0.3267,0.334,0.334,0.2924,0.2368,0.2229,0.1787,0.121,0.1143,0.1076,0.1076,0.1076,0.1076,0.1076,0.1076,0.1547,0.2221,0.2221,0.2221,0.222,0.1817,0.148,0.121,0.1277,0.121,0.1076,0.1076,0.1093,0.1108,0.1082,0.1094,0.1113,0.1113,0.1121,0.114,0.1186,0.1196,0.1198,0.1203,0.1204,0.1205,0.1211,0.0816,0.051,0.0437,-0.0418,-0.1212,-0.1822,-0.2681,-0.3418,-0.3869,-0.4359,-0.466,-0.451,-0.4395,-0.4376,-0.4493,-0.452,-0.4567,-0.472,-0.4764,-0.4705,-0.4686,-0.4803,-0.4866,-0.4866,-0.4966,-0.5018,-0.5018,-0.5018,-0.5018,-0.5018,-0.5018,-0.5007,-0.498,-0.4876,-0.4822,-0.4784,-0.4561,-0.4469,-0.4458,-0.4344,-0.43,-0.43,-0.43,-0.43,-0.43,0.3226,0.3226,0.3226,0.3226,0.3226,0.3226,0.3226,0.3226,0.3226,0.3226,0.3226,0.3226,0.3226,0.3226,0.3226,0.3226,0.3226,0.3226,0.3226,0.3226,0.3226,0.3226,0.3226,0.3226,0.3226,0.3226,0.3226,0.3226,0.3226,0.3232,0.3246,0.2905,0.2769,0.2634,0.1961,0.162,0.148,0.121,0.1076,0.1076,0.1076,0.1076,0.1076,0.1076,0.1547,0.2221,0.2221,0.2354,0.2552,0.222,0.1884,0.1614,0.1951,0.1614,0.1076,0.1076,0.1078,0.1081,0.1077,0.1079,0.1082,0.1082,0.1121,0.1155,0.1138,0.1133,0.1141,0.1167,0.1172,0.1181,0.1207,0.1113,0.0948,0.051,0.0209,-0.0406,-0.1802,-0.2325,-0.2886,-0.3889,-0.4336,-0.4531,-0.469,-0.4518,-0.4499,-0.469,-0.4724,-0.4746,-0.4729,-0.4852,-0.492,-0.4814,-0.4928,-0.4991,-0.4991,-0.501,-0.5018,-0.5018,-0.5018,-0.5018,-0.5018,-0.5018,-0.4958,-0.4857,-0.4841,-0.4773,-0.4667,-0.4529,-0.4469,-0.4458,-0.4344,-0.43,-0.43,-0.43,-0.43,-0.43,0.3226,0.3226,0.3226,0.3226,0.3226,0.3226,0.3226,0.3226,0.3226,0.3226,0.3226,0.3226,0.3226,0.3226,0.3226,0.3226,0.3226,0.3226,0.3226,0.3226,0.3226,0.3226,0.3226,0.3226,0.3226,0.3226,0.3226,0.3226,0.3226,0.3226,0.3226,0.3025,0.2889,0.2686,0.2151,0.1817,0.1547,0.121,0.1076,0.1076,0.1076,0.1076,0.1143,0.1277,0.1748,0.2221,0.2624,0.2757,0.2686,0.2554,0.2084,0.1614,0.1817,0.148,0.1076,0.1076,0.1076,0.1076,0.1076,0.1076,0.1076,0.1076,0.1108,0.1138,0.1124,0.1121,0.1125,0.1138,0.1155,0.1166,0.1161,0.115,0.1075,0.0873,0.0565,0.0069,-0.0629,-0.1542,-0.2622,-0.3846,-0.4104,-0.438,-0.4648,-0.4676,-0.4624,-0.4746,-0.4803,-0.4841,-0.4855,-0.4958,-0.4991,-0.4939,-0.4988,-0.5018,-0.5018,-0.5018,-0.5018,-0.5018,-0.5018,-0.5018,-0.5021,-0.5083,-0.5048,-0.4936,-0.4936,-0.4866,-0.4738,-0.4548,-0.4469,-0.4458,-0.4344,-0.43,-0.43,-0.43,-0.43,-0.43]},{"header":{"parameterUnit":"m.s-1","parameterCategory":1,"la1":30.6,"la2":28.766,"lo1":-90.7593,"lo2":-88.6598,"dy":0.0162,"dx":0.0183,"nx":116,"ny":114,"refTime":"2023-05-19T00:00:00:Z","depth":0,"parameterNumber":3,"parameterNumberName":"V-component_of_WINDS"},"data":[0.0,0.0,0.0,0.0,0.0,0.0,0.0,0.0,0.0,0.0,0.0,0.0,0.0,0.0,0.0,0.0,0.0,0.0,0.0,0.0,0.0,0.0,0.0,0.0,0.0,0.0,0.0,0.0,0.0,0.0,0.0,0.0,0.0,0.0,0.0,0.0,0.0,0.0,0.0,0.0,0.0,0.0,0.0,0.0,0.0,0.0,0.0,0.0,0.0,0.0,0.0,0.0,0.0,0.0,0.0,0.0,0.0,0.0,0.0,0.0,0.0,0.0,0.0,0.0,0.0,0.0,0.0,0.0,0.0,0.0,0.0,0.0,0.0,0.0,0.0,0.0,0.0,0.0,0.0,0.0,0.0,0.0,0.0,0.0,0.0,0.0,0.0,0.0,0.0,0.0,0.0,0.0,0.0,0.0,0.0,0.0,0.0,0.0,0.0,0.0,0.0,0.0,0.0,0.0,0.0,0.0,0.0,0.0,0.0,0.0,0.0,0.0,0.0,0.0,0.0,0.0,0.0,0.0,0.0,0.0,0.0,0.0,0.0,0.0,0.0,0.0,0.0,0.0,0.0,0.0,0.0,0.0,0.0,0.0,0.0,0.0,0.0,0.0,0.0,0.0,0.0,0.0,0.0,0.0,0.0,0.0,0.0,0.0,0.0,0.0,0.0,0.0,0.0,0.0,0.0,0.0,0.0,0.0,0.0,0.0,0.0,0.0,0.0,0.0,0.0,0.0,0.0,0.0,0.0,0.0,0.0,0.0,0.0,0.0,0.0,0.0,0.0,0.0,0.0,0.0,0.0,0.0,0.0,0.0,0.0,0.0,0.0,0.0,0.0,0.0,0.0,0.0,0.0,0.0,0.0,0.0,0.0,0.0,0.0,0.0,0.0,0.0,0.0,0.0,0.0,0.0,0.0,0.0,0.0,0.0,0.0,0.0,0.0,0.0,0.0,0.0,0.0,0.0,0.0,0.0,0.0,0.0,0.0,0.0,0.0,0.0,0.0,0.0,0.0,0.0,0.0,0.0,0.0,0.0,0.0,0.0,0.0,0.0,0.0,0.0,0.0,0.0,0.0,0.0,0.0,0.0,0.0,0.0,0.0,0.0,0.0,0.0,0.0,0.0,0.0,0.0,0.0,0.0,0.0,0.0,0.0,0.0,0.0,0.0,0.0,0.0,0.0,0.0,0.0,0.0,0.0,0.0,0.0,0.0,0.0,0.0,0.0,0.0,0.0,0.0,0.0,0.0,0.0,0.0,0.0,0.0,0.0,0.0,0.0,0.0,0.0,0.0,0.0,0.0,0.0,0.0,0.0,0.0,0.0,0.0,0.0,0.0,0.0,0.0,0.0,0.0,0.0,0.0,0.0,0.0,0.0,0.0,0.0,0.0,0.0,0.0,0.0,0.0,0.0,0.0,0.0,0.0,0.0,0.0,0.0,0.0,0.0,0.0,0.0,0.0,0.0,0.0,0.0,0.0,0.0,0.0,0.0,0.0,0.0,0.0,0.0,0.0,0.0,0.0,0.0,0.0,0.0,0.0,0.0,0.0,0.0,0.0,0.0,0.0,0.0,0.0,0.0,0.0,0.0,0.0,0.0,0.0,0.0,0.0,0.0,0.0,0.0,0.0,0.0,0.0,0.0,0.0,0.0,0.0,0.0,0.0,0.0,0.0,0.0,0.0,0.0,0.0,0.0,0.0,0.0,0.0,0.0,0.0,0.0,0.0,0.0,0.0,0.0,0.0,0.0,0.0,0.0,0.0,0.0,0.0,0.0,0.0,0.0,0.0,0.0,0.0,0.0,0.0,0.0,0.0,0.0,0.0,0.0,0.0,0.0,0.0,0.0,0.0,0.0,0.0,0.0,0.0,0.0,0.0,0.0,0.0,0.0,0.0,0.0,0.0,0.0,0.0,0.0,0.0,0.0,0.0,0.0,0.0,0.0,0.0,0.0,0.0,0.0,0.0,0.0,0.0,0.0,0.0,0.0,0.0,0.0,0.0,0.0,0.0,0.0,0.0,0.0,0.0,0.0,0.0,0.0,0.0,0.0,0.0,0.0,0.0,0.0,0.0,0.0,0.0,0.0,0.0,0.0,0.0,0.0,0.0,0.0,0.0,0.0,0.0,0.0,0.0,0.0,0.0,0.0,0.0,0.0,0.0,0.0,0.0,0.0,0.0,0.0,0.0,0.0,0.0,0.0,0.0,0.0,0.0,0.0,0.0,0.0,0.0,0.0,0.0,0.0,0.0,0.0,0.0,0.0,0.0,0.0,0.0,0.0,0.0,0.0,0.0,0.0,0.0,0.0,0.0,0.0,0.0,0.0,0.0,0.0,0.0,0.0,0.0,0.0,0.0,0.0,0.0,0.0,0.0,0.0,0.0,0.0,0.0,0.0,0.0,0.0,0.0,0.0,0.0,0.0,0.0,0.0,0.0,0.0,0.0,0.0,0.0,0.0,0.0,0.0,0.0,0.0,0.0,0.0,0.0,0.0,0.0,0.0,0.0,0.0,0.0,0.0,0.0,0.0,0.0,0.0,0.0,0.0,0.0,0.0,0.0,0.0,0.0,0.0,0.0,0.0,0.0,0.0,0.0,0.0,0.0,0.0,0.0,0.0,0.0,0.0,0.0,0.0,0.0,0.0,0.0,0.0,0.0,0.0,0.0,0.0,0.0,0.0,0.0,0.0,0.0,0.0,0.0,0.0,0.0,0.0,0.0,0.0,0.0,0.0,0.0,0.0,0.0,0.0,0.0,0.0,0.0,0.0,0.0,0.0,0.0,0.0,0.0,0.0,0.0,0.0,0.0,0.0,0.0,0.0,0.0,0.0,0.0,0.0,0.0,0.0,0.0,0.0,0.0,0.0,0.0,0.0,0.0,0.0,0.0,0.0,0.0,0.0,0.0,0.0,0.0,0.0,0.0,0.0,0.0,0.0,0.0,0.0,0.0,0.0,0.0,0.0,0.0,0.0,0.0,0.0,0.0,0.0,0.0,0.0,0.0,0.0,0.0,0.0,0.0,0.0,0.0,0.0,0.0,0.0,0.0,0.0,0.0,0.0,0.0,0.0,0.0,0.0,0.0,0.0,0.0,0.0,0.0,0.0,0.0,0.0,0.0,0.0,0.0,0.0,0.0,0.0,0.0,0.0,0.0,0.0,0.0,0.0,0.0,0.0,0.0,0.0,0.0,0.0,0.0,0.0,0.0,0.0,0.0,0.0,0.0,0.0,0.0,0.0,0.0,0.0,0.0,0.0,0.0,0.0,0.0,0.0,0.0,0.0,0.0,0.0,0.0,0.0,0.0,0.0,0.0,0.0,0.0,0.0,0.0,0.0,0.0,0.0,0.0,0.0,0.0,0.0,0.0,0.0,0.0,0.0,0.0,0.0,0.0,0.0,0.0,0.0,0.0,0.0,0.0,0.0,0.0,0.0,0.0,0.0,0.0,0.0,0.0,0.0,0.0,0.0,0.0,0.0,0.0,0.0,0.0,0.0,0.0,0.0,0.0,0.0,0.0,0.0,0.0,0.0,0.0,0.0,0.0,0.0,0.0,0.0,0.0,0.0,0.0,0.0,0.0,0.0,0.0,0.0,0.0,0.0,0.0,0.0,0.0,0.0,0.0,0.0,0.0,0.0,0.0,0.0,0.0,0.0,0.0,0.0,0.0,0.0,0.0,0.0,0.0,0.0,0.0,0.0,0.0,0.0,0.0,0.0,0.0,0.0,0.0,0.0,0.0,0.0,0.0,0.0,0.0,0.0,0.0,0.0,0.0,0.0,0.0,0.0,0.0,0.0,0.0,0.0,0.0,0.0,0.0,0.0,0.0,0.0,0.0,0.0,0.0,0.0,0.0,0.0,0.0,0.0,0.0,0.0,0.0,0.0,0.0,0.0,0.0,0.0,0.0,0.0,0.0,0.0,0.0,0.0,0.0,0.0,0.0,0.0,0.0,0.0,0.0,0.0,0.0,0.0,0.0,0.0,0.0,0.0,0.0,0.0,0.0,0.0,0.0,0.0,0.0,0.0,0.0,0.0,0.0,0.0,0.0,0.0,0.0,0.0,0.0,0.0,0.0,0.0,0.0,0.0,0.0,0.0,0.0,0.0,0.0,0.0,0.0,0.0,0.0,0.0,0.0,0.0,0.0,0.0,0.0,0.0,0.0,0.0,0.0,0.0,0.0,0.0,0.0,0.0,0.0,0.0,0.0,0.0,0.0,0.0,0.0,0.0,0.0,0.0,0.0,0.0,0.0,0.0,0.0,0.0,0.0,0.0,0.0,0.0,0.0,0.0,0.0,0.0,0.0,0.0,0.0,0.0,0.0,0.0,0.0,0.0,0.0,0.0,0.0,0.0,0.0,0.0,0.0,0.0,0.0,0.0,0.0,0.0,0.0,0.0,0.0,0.0,0.0,0.0,0.0,0.0,0.0,0.0,0.0,0.0,0.0,0.0,0.0,0.0,0.0,0.0,0.0,0.0,0.0,0.0,0.0,0.0,0.0,0.0,0.0,0.0,0.0,0.0,0.0,0.0,0.0,0.0,0.0,0.0,0.0,0.0,0.0,0.0,0.0,0.0,0.0,0.0,0.0,0.0,0.0,0.0,0.0,0.0,0.0,0.0,0.0,0.0,0.0,0.0,0.0,0.0,0.0,0.0,0.0,0.0,0.0,0.0,0.0,0.0,0.0,0.0,0.0,0.0,0.0,0.0,0.0,0.0,0.0,0.0,0.0,0.0,0.0,0.0,0.0,0.0,0.0,0.0,0.0,0.0,0.0,0.0,0.0,0.0,0.0,0.0,0.0,0.0,0.0,0.0,0.0,0.0,0.0,0.0,0.0,0.0,0.0,0.0,0.0,0.0,0.0,0.0,0.0,0.0,0.0,0.0,0.0,0.0,0.0,0.0,0.0,0.0,0.0,0.0,0.0,0.0,0.0,0.0,0.0,0.0,0.0,0.0,0.0,0.0,0.0,0.0,0.0,0.0,0.0,0.0,0.0,0.0,0.0,0.0,0.0,0.0,0.0,0.0,0.0,0.0,0.0,0.0,0.0,0.0,0.0,0.0,0.0,0.0,0.0,0.0,0.0,0.0,0.0,0.0,0.0,0.0,0.0,0.0,0.0,0.0,0.0,0.0,0.0,0.0,0.0,0.0,0.0,0.0,0.0,0.0,0.0,0.0,0.0,0.0,0.0,0.0,0.0,0.0,0.0,0.0,0.0,0.0,0.0,0.0,0.0,0.0,0.0,0.0,0.0,0.0,0.0,0.0,0.0,0.0,0.0,0.0,0.0,0.0,0.0,0.0,0.0,0.0,0.0,0.0,0.0,0.0,0.0,0.0,0.0,0.0,0.0,0.0,0.0,0.0,0.0,0.0,0.0,0.0,0.0,0.0,0.0,0.0,0.0,0.0,0.0,0.0,0.0,0.0,0.0,0.0,0.0,0.0,0.0,0.0,0.0,0.0,0.0,0.0,0.0,0.0,0.0,0.0,0.0,0.0,0.0,0.0,0.0,0.0,0.0,0.0,0.0,0.0,0.0,0.0,0.0,0.0,0.0,0.0,0.0,0.0,0.0,0.0,0.0,0.0,0.0,0.0,0.0,0.0,0.0,0.0,0.0,0.0,0.0,0.0,0.0,0.0,0.0,0.0,0.0,0.0,0.0,0.0,0.0,0.0,0.0,0.0,0.0,0.0,0.0,0.0,0.0,0.0,0.0,0.0,0.0,0.0,0.0,0.0,0.0,0.0,0.0,0.0,0.0,0.0,0.0,0.0,0.0,0.0,0.0,0.0,0.0,0.0,0.0,0.0,0.0,0.0,0.0,0.0,0.0,0.0,0.0,0.0,0.0,0.0,0.0,0.0,0.0,0.0,0.0,0.0,0.0,0.0,0.0,0.0,0.0,0.0,0.0,0.0,0.0,0.0,0.0,0.0,0.0,0.0,0.0,0.0,0.0,0.0,0.0,0.0,0.0,0.0,0.0,0.0,0.0,0.0,0.0,0.0,0.0,0.0,0.0,0.0,0.0,0.0,0.0,0.0,0.0,0.0,0.0,0.0,0.0,0.0,0.0,0.0,0.0,0.0,0.0,0.0,0.0,0.0,0.0,0.0,0.0,-2.8338,0.0,0.0,0.0,0.0,0.0,0.0,0.0,0.0,0.0,0.0,0.0,0.0,0.0,0.0,0.0,0.0,0.0,0.0,0.0,0.0,0.0,0.0,0.0,0.0,0.0,0.0,0.0,0.0,0.0,0.0,0.0,0.0,0.0,0.0,0.0,0.0,0.0,0.0,0.0,0.0,0.0,0.0,0.0,0.0,0.0,0.0,0.0,0.0,0.0,0.0,0.0,0.0,0.0,0.0,0.0,0.0,0.0,0.0,0.0,0.0,0.0,0.0,0.0,0.0,0.0,0.0,0.0,0.0,0.0,0.0,0.0,0.0,0.0,0.0,0.0,0.0,0.0,0.0,0.0,0.0,0.0,0.0,0.0,0.0,0.0,0.0,0.0,0.0,0.0,0.0,0.0,0.0,0.0,0.0,0.0,0.0,0.0,0.0,0.0,0.0,0.0,0.0,0.0,0.0,0.0,0.0,0.0,0.0,0.0,0.0,0.0,0.0,0.0,0.0,0.0,0.0,-2.9257,0.0,0.0,0.0,0.0,0.0,0.0,0.0,0.0,0.0,0.0,0.0,0.0,0.0,0.0,0.0,0.0,0.0,0.0,0.0,0.0,0.0,0.0,0.0,0.0,0.0,0.0,0.0,0.0,0.0,0.0,0.0,0.0,0.0,0.0,0.0,0.0,0.0,0.0,0.0,0.0,0.0,0.0,0.0,0.0,0.0,0.0,0.0,0.0,0.0,0.0,0.0,0.0,0.0,0.0,0.0,0.0,0.0,0.0,0.0,0.0,0.0,0.0,0.0,0.0,0.0,0.0,0.0,0.0,0.0,0.0,0.0,0.0,0.0,0.0,0.0,0.0,0.0,0.0,0.0,0.0,0.0,0.0,0.0,0.0,0.0,0.0,0.0,0.0,0.0,0.0,0.0,0.0,0.0,0.0,0.0,0.0,0.0,0.0,0.0,0.0,0.0,0.0,0.0,0.0,0.0,0.0,0.0,0.0,-3.323,-3.3704,-3.369,-3.5162,-3.5495,-3.4819,-3.3369,-3.2695,-3.2455,-3.0313,0.0,0.0,0.0,0.0,0.0,0.0,0.0,0.0,0.0,0.0,0.0,0.0,0.0,0.0,0.0,0.0,0.0,0.0,0.0,0.0,0.0,0.0,0.0,0.0,0.0,0.0,0.0,0.0,0.0,0.0,0.0,0.0,0.0,0.0,0.0,0.0,0.0,-1.1666,-1.227,-1.2383,-1.2378,-1.2417,-1.2137,0.0,0.0,0.0,0.0,0.0,0.0,0.0,0.0,0.0,0.0,0.0,0.0,0.0,0.0,0.0,0.0,0.0,0.0,0.0,0.0,0.0,0.0,0.0,0.0,0.0,0.0,0.0,0.0,0.0,0.0,0.0,0.0,0.0,0.0,0.0,0.0,0.0,0.0,0.0,0.0,0.0,0.0,0.0,-2.88,-2.781,0.0,0.0,0.0,0.0,0.0,0.0,0.0,0.0,0.0,0.0,0.0,0.0,0.0,-3.1325,-3.2121,-3.3566,-3.4312,-3.442,-3.6711,-3.7832,-3.7832,-3.8763,-3.9499,-4.0022,-3.8385,0.0,-3.2666,-3.2435,0.0,0.0,0.0,0.0,0.0,0.0,0.0,0.0,0.0,0.0,0.0,0.0,0.0,0.0,0.0,0.0,0.0,0.0,0.0,0.0,0.0,0.0,0.0,0.0,0.0,0.0,0.0,0.0,0.0,0.0,0.0,0.0,0.0,0.0,0.0,0.0,-1.2234,-1.2973,-1.3315,-1.3568,-1.374,-1.4023,-1.3849,-1.3359,-1.2756,-1.2914,0.0,0.0,0.0,0.0,0.0,0.0,0.0,0.0,0.0,0.0,0.0,0.0,0.0,0.0,0.0,0.0,0.0,0.0,0.0,0.0,0.0,0.0,0.0,0.0,0.0,0.0,0.0,0.0,0.0,0.0,0.0,0.0,0.0,0.0,0.0,0.0,0.0,0.0,0.0,-3.1041,-3.3999,-3.5456,-3.1101,-2.737,0.0,0.0,0.0,0.0,0.0,0.0,0.0,0.0,0.0,-3.2829,-3.3229,-3.4015,-3.517,-3.6307,-3.7268,-3.8105,-3.8719,-3.9236,-3.9726,-3.9502,-3.9608,-3.9946,-3.9359,-3.7595,-3.5015,-3.3961,-3.2569,-3.095,0.0,0.0,0.0,0.0,-2.8307,-2.8986,0.0,0.0,0.0,0.0,0.0,0.0,0.0,0.0,0.0,0.0,0.0,0.0,0.0,0.0,0.0,-0.8062,0.0,0.0,0.0,0.0,0.0,0.0,0.0,0.0,0.0,0.0,0.0,-1.2124,-1.3124,-1.3863,-1.4355,-1.4596,-1.4838,-1.5057,-1.5131,-1.4628,-1.3623,-1.4014,-1.3881,0.0,0.0,0.0,0.0,0.0,0.0,0.0,0.0,0.0,0.0,0.0,0.0,0.0,0.0,0.0,0.0,0.0,0.0,0.0,0.0,0.0,0.0,0.0,0.0,0.0,0.0,0.0,0.0,0.0,0.0,0.0,0.0,0.0,0.0,0.0,0.0,0.0,0.0,-3.2703,-3.5861,-3.9345,-3.6026,-3.1739,0.0,0.0,0.0,0.0,0.0,0.0,-3.5445,-3.5874,-3.5936,-3.5568,-3.6103,-3.6982,-3.8263,-3.8846,-3.9687,-4.083,-4.0123,-4.0133,-4.0728,-3.9983,-3.9647,-3.9581,-3.9432,-3.8639,-3.7336,-3.5354,-3.3906,-3.2743,-3.081,-2.9908,-2.9659,-2.905,-2.92,-2.9777,0.0,0.0,0.0,0.0,0.0,0.0,0.0,0.0,0.0,0.0,0.0,0.0,0.0,0.0,-0.7938,-0.8335,-0.8018,-0.8005,0.0,0.0,0.0,0.0,0.0,0.0,0.0,0.0,0.0,-1.2476,-1.3131,-1.4102,-1.5357,-1.5372,-1.5387,-1.5394,-1.5932,-1.5881,-1.5433,-1.5154,-1.5174,-1.5347,0.0,0.0,0.0,0.0,0.0,0.0,0.0,0.0,0.0,0.0,0.0,0.0,0.0,0.0,0.0,0.0,0.0,0.0,0.0,0.0,0.0,0.0,0.0,0.0,0.0,0.0,0.0,0.0,0.0,0.0,0.0,0.0,0.0,0.0,0.0,0.0,0.0,0.0,0.0,-3.5728,-3.8613,0.0,0.0,0.0,0.0,-3.4936,-3.7015,-3.8996,-4.0811,-3.9404,-3.9077,-4.0315,-4.0403,-4.0651,-4.1174,-4.1464,-4.1481,-4.1162,-4.1138,-4.1138,-4.1175,-4.1138,-4.1056,-4.0937,-3.9605,-3.8942,-3.8664,-3.6779,-3.5022,-3.3449,-3.2446,-3.1697,-3.1177,-3.1077,-3.1172,-3.1262,0.0,0.0,0.0,0.0,0.0,0.0,0.0,0.0,0.0,0.0,0.0,0.0,0.0,-0.8369,-0.8398,-0.8346,-0.826,-0.8165,-0.824,0.0,0.0,0.0,0.0,0.0,0.0,0.0,-1.2699,-1.2945,-1.3901,-1.4583,-1.5005,-1.5028,-1.5226,-1.5431,-1.6405,-1.6895,-1.6992,-1.6753,-1.6378,-1.5963,-1.6476,-1.6427,0.0,0.0,0.0,0.0,0.0,0.0,0.0,0.0,0.0,0.0,0.0,0.0,0.0,0.0,0.0,0.0,0.0,0.0,0.0,0.0,0.0,0.0,0.0,0.0,0.0,0.0,0.0,0.0,0.0,0.0,0.0,0.0,0.0,0.0,0.0,0.0,0.0,-4.2186,-4.1223,0.0,-3.6246,-3.6532,-3.6853,-3.6661,-3.8887,-4.0442,-4.0885,-4.064,-4.0697,-4.1146,-4.1433,-4.1654,-4.1724,-4.2219,-4.2132,-4.1519,-4.0815,-4.0357,-4.0061,-3.8824,-3.8483,-3.884,-3.7629,-3.6885,-3.6537,-3.582,-3.5264,-3.4808,-3.4049,-3.326,-3.2449,-3.1336,-3.1408,-3.1906,0.0,0.0,0.0,0.0,0.0,0.0,0.0,0.0,0.0,0.0,0.0,-0.8623,-0.85,-0.8551,-0.8548,-0.8553,-0.8408,-0.8279,-0.8279,0.0,0.0,0.0,-0.9737,0.0,0.0,-1.2515,-1.3055,-1.3336,-1.405,-1.4388,-1.4379,-1.459,-1.4809,-1.5198,-1.664,-1.7407,-1.7499,-1.8099,-1.7778,-1.7069,-1.7607,-1.7397,-1.6847,0.0,0.0,0.0,0.0,0.0,0.0,0.0,0.0,0.0,0.0,0.0,0.0,0.0,0.0,0.0,0.0,0.0,0.0,0.0,0.0,0.0,0.0,0.0,0.0,0.0,0.0,0.0,0.0,0.0,0.0,0.0,0.0,0.0,0.0,-4.0585,-4.4202,-4.408,-4.2441,-4.0938,-3.9947,-4.0018,-4.0055,-3.9857,-4.0929,-4.1637,-4.1726,-4.1999,-4.205,-4.186,-4.2168,-4.2104,-4.1559,-4.2047,-4.1719,-4.0579,-3.9623,-3.8852,-3.8235,-3.668,-3.624,-3.6661,-3.6115,-3.5695,-3.5347,-3.5147,-3.5016,-3.4853,-3.419,-3.3272,-3.2189,-3.1063,-3.0997,-3.1334,0.0,0.0,0.0,0.0,0.0,0.0,0.0,0.0,0.0,0.0,-0.8527,-0.8353,-0.8282,-0.8355,-0.8571,-0.8968,-0.8439,-0.8312,-0.8812,-0.8356,0.0,0.0,0.0,0.0,-1.233,-1.2486,-1.2862,-1.3525,-1.3532,-1.3522,-1.3535,-1.3903,-1.4265,-1.4543,-1.6554,-1.7286,-1.7052,-1.9042,-1.9424,-1.8623,-1.8331,-1.8098,-1.7825,0.0,0.0,0.0,0.0,0.0,0.0,0.0,0.0,0.0,0.0,0.0,0.0,0.0,0.0,0.0,0.0,0.0,0.0,0.0,0.0,0.0,0.0,0.0,0.0,0.0,0.0,0.0,0.0,0.0,0.0,0.0,0.0,0.0,-3.5659,-3.9794,-4.2366,-4.0637,-4.2275,-4.3153,-4.2087,-4.2037,-4.2762,-4.4398,-4.3197,-4.277,-4.3661,-4.3453,-4.3122,-4.2737,-4.2718,-4.2109,-4.0864,-4.1088,-4.0262,-3.8337,-3.7618,-3.6766,-3.5858,-3.5082,-3.4693,-3.4711,-3.5247,-3.5443,-3.5407,-3.4909,-3.4243,-3.3441,-3.2828,-3.1704,-3.0428,-3.0391,-3.0087,-2.9713,0.0,0.0,0.0,0.0,0.0,0.0,0.0,0.0,0.0,0.0,-0.8923,-0.8788,-0.8574,-0.8553,-0.8604,-0.8576,-0.8269,-0.8112,-0.8225,0.0,0.0,0.0,0.0,0.0,-1.2661,-1.3049,-1.3295,-1.3535,-1.3954,-1.3991,-1.3503,-1.3651,-1.3841,-1.4204,-1.6185,-1.6978,-1.7052,-1.9042,-1.96,-1.9102,-1.9209,-1.8854,-1.8338,0.0,0.0,0.0,0.0,0.0,0.0,0.0,0.0,0.0,0.0,0.0,0.0,0.0,0.0,0.0,0.0,0.0,0.0,0.0,0.0,0.0,0.0,0.0,0.0,0.0,0.0,0.0,0.0,0.0,0.0,0.0,-3.5417,-3.7088,-3.7241,-4.0779,-4.3294,-4.3146,-4.3943,-4.4398,-4.4113,-4.3832,-4.3503,-4.3181,-4.2593,-4.2062,-4.1647,-4.176,-4.1519,-4.0847,-4.1011,-4.0654,-3.9617,-3.9533,-3.8916,-3.7763,-3.6814,-3.6076,-3.5553,-3.3938,-3.3502,-3.3934,-3.3265,-3.3273,-3.3705,-3.2943,-3.2296,-3.1837,-3.2283,-3.185,-3.0913,-3.0271,-2.9779,-2.9456,0.0,0.0,0.0,0.0,0.0,0.0,0.0,0.0,0.0,0.0,-0.8896,-0.8784,-0.8369,-0.8389,-0.8392,-0.8278,-0.8075,-0.8043,-0.8122,0.0,0.0,0.0,0.0,-1.2344,-1.3064,-1.3324,-1.3741,-1.4304,-1.4178,-1.3859,-1.3499,-1.3512,-1.3748,-1.4289,-1.5955,-1.6867,-1.7273,-1.9126,-1.9775,-1.957,-1.9905,-1.9618,-1.9093,-1.897,-1.889,-1.8771,-1.8585,-1.8513,-1.8506,-1.7851,0.0,0.0,0.0,0.0,0.0,0.0,0.0,0.0,0.0,0.0,0.0,0.0,0.0,0.0,0.0,0.0,0.0,0.0,0.0,0.0,0.0,0.0,0.0,0.0,-3.6798,-3.8373,-3.8813,-4.1351,-4.3387,-4.3924,-4.4482,-4.4777,-4.465,-4.3905,-4.3144,-4.2488,-4.1608,-4.1053,-4.0963,-4.0623,-4.0304,-4.0099,-3.9884,-3.9312,-3.8356,-3.7871,-3.7206,-3.6303,-3.513,-3.4401,-3.4123,-3.2622,-3.2042,0.0,-3.1948,-3.2021,-3.2246,-3.1474,-3.1139,0.0,0.0,0.0,0.0,0.0,-2.9384,-2.9209,0.0,0.0,0.0,0.0,0.0,0.0,0.0,0.0,0.0,0.0,0.0,-0.8461,-0.804,-0.8072,-0.8047,-0.8047,-0.7931,-0.7947,0.0,0.0,0.0,-1.124,-1.2275,-1.3027,-1.3484,-1.3492,-1.4065,-1.5166,-1.4065,-1.3492,-1.3492,-1.3492,-1.392,-1.4697,-1.5808,-1.6757,-1.7548,-1.9178,-1.9844,-1.9883,-2.0371,-2.0315,-1.9917,-1.9525,-1.9788,-2.0379,-2.0038,-1.9882,-1.9768,-1.9365,0.0,0.0,0.0,0.0,0.0,0.0,0.0,0.0,0.0,0.0,0.0,0.0,0.0,0.0,0.0,0.0,0.0,0.0,0.0,0.0,0.0,0.0,0.0,0.0,-3.8851,-4.0408,-4.0233,-4.1607,-4.2862,-4.3455,-4.4027,-4.4259,-4.3998,-4.2778,-4.1977,-4.1852,-4.0378,-3.9824,-4.0688,0.0,0.0,0.0,0.0,-3.7966,-3.6903,-3.6104,-3.5352,-3.4542,-3.3131,-3.2411,-3.2256,-3.1308,-3.0583,-3.0104,-3.0916,-3.12,-3.0999,-3.0437,-3.0481,-3.0785,-3.0041,-2.9279,-2.8637,-2.8887,-2.9003,-2.9026,0.0,0.0,0.0,0.0,0.0,0.0,0.0,0.0,0.0,-0.8835,-0.8655,-0.8461,-0.804,-0.7947,-0.7839,-0.7839,-0.7784,-0.779,0.0,0.0,-1.0482,-1.0772,-1.2103,-1.3027,-1.3484,-1.3492,-1.3616,-1.3851,-1.3616,-1.3492,-1.3492,-1.3492,-1.4008,-1.4944,-1.5547,-1.6281,-1.7116,-1.8745,-1.9404,-1.9482,-2.0254,-2.0493,-2.04,-2.031,-2.0317,-2.0462,-2.0752,-2.0617,-2.0286,-2.0193,-1.9613,-1.8858,-1.8402,-1.8062,0.0,0.0,0.0,0.0,0.0,0.0,0.0,0.0,0.0,0.0,0.0,0.0,0.0,0.0,0.0,0.0,0.0,0.0,0.0,-3.7257,-3.9172,-4.0462,-4.0776,-4.1657,-4.2337,-4.2478,-4.2318,-4.2146,-4.1973,-4.1309,-4.0542,-3.959,-3.902,-3.8426,-3.7853,-3.7871,-3.7419,-3.6342,-3.6465,-3.5797,-3.4337,-3.4142,-3.3947,-3.3651,0.0,0.0,-3.21,-3.0667,-2.9973,-2.9844,-2.9433,-2.9553,-2.9964,-2.9839,-2.9832,-2.9809,-2.9104,-2.8757,-2.8637,-2.8887,-2.9003,-2.9026,0.0,0.0,0.0,0.0,0.0,0.0,0.0,0.0,0.0,0.0,-0.887,-0.8635,-0.8122,-0.8088,-0.8068,-0.7777,-0.7756,0.0,0.0,-0.9365,-1.0238,-1.106,-1.2056,-1.2818,-1.3492,-1.3492,-1.3492,-1.3492,-1.3492,-1.3492,-1.3492,-1.3492,-1.4049,-1.5005,-1.5517,-1.6483,-1.7853,-1.886,-1.9404,-1.9658,-2.0303,-2.0681,-2.0721,-2.0797,-2.109,-2.1455,-2.1455,-2.1311,-2.1041,-2.0586,-1.9975,-1.9401,-1.8868,-1.8541,-1.8207,0.0,0.0,0.0,0.0,0.0,0.0,0.0,0.0,0.0,0.0,0.0,0.0,0.0,0.0,-3.3111,-3.4925,0.0,-3.6838,-3.8799,-4.0018,-4.0668,-4.0382,-4.0835,-4.1413,-4.2046,-4.1735,-4.146,-4.1408,-4.0419,-3.9518,-3.8904,-3.8075,-3.7486,-3.7306,-3.6676,-3.6128,-3.5707,-3.5095,-3.4423,-3.3607,-3.3076,-3.2807,-3.2731,-3.1513,-3.0952,-3.0902,-2.9694,-2.8992,-2.8678,-2.8641,-2.8812,-2.9164,-2.951,-2.9354,-2.891,-2.8621,-2.8484,-2.851,-2.8694,-2.8718,-2.8718,0.0,0.0,0.0,0.0,0.0,0.0,0.0,0.0,0.0,0.0,-0.8913,-0.8678,-0.8161,-0.8242,-0.8172,0.0,0.0,0.0,0.0,-0.9276,-0.9962,-1.106,-1.1834,-1.2599,-1.3273,-1.3419,-1.3492,-1.3492,-1.3492,-1.3492,-1.3492,-1.3492,-1.3939,-1.4757,-1.5346,-1.6519,-1.8166,-1.8889,-1.9377,-1.9725,-2.0313,-2.0731,-2.0974,-2.1038,-2.1527,-2.2102,-2.1807,-2.1559,-2.1311,-2.0648,-2.0006,-1.9505,-1.9158,-1.882,-1.8554,-1.8401,-1.8334,0.0,0.0,0.0,0.0,0.0,0.0,0.0,0.0,-2.9025,-3.0892,-3.2945,-3.4491,-3.6026,-3.7788,-3.8253,-3.8793,-4.0057,-4.0653,-4.0653,-3.9764,-3.9709,-4.0077,-4.1015,-4.0921,-4.0671,-4.0511,-3.9349,-3.8506,-3.8413,-3.7321,-3.6793,-3.7119,-3.571,-3.5069,-3.5309,-3.4023,-3.3192,-3.2887,-3.2073,-3.1564,-3.1395,-3.0157,-2.9543,-2.951,-2.8643,-2.7977,-2.7517,-2.7988,-2.8319,-2.8557,-2.9098,-2.9017,-2.8488,-2.8425,-2.8353,-2.8371,-2.8458,-2.8458,-2.8398,0.0,0.0,0.0,0.0,0.0,0.0,0.0,0.0,0.0,0.0,0.0,0.0,0.0,0.0,0.0,0.0,0.0,0.0,-0.8285,-0.9073,-0.948,-0.9555,-1.1335,-1.2305,-1.2452,-1.3119,-1.3492,-1.3492,-1.3492,-1.3492,-1.3492,-1.3492,-1.3571,-1.3739,-1.4733,-1.5683,-1.6581,-1.8067,-1.8727,-1.8877,-2.0072,-2.0809,-2.1088,-2.0762,-2.0717,-2.1046,-2.1143,-2.0669,-2.0027,-2.0327,-1.9582,-1.8599,-1.8961,-1.882,-1.8416,-1.8401,-1.8566,-1.8707,-1.8623,-1.994,-2.2027,-2.4698,-2.6255,-2.8101,0.0,-3.3368,-3.4463,-3.6346,-3.7363,-3.8171,-3.9069,-3.9289,-3.9519,-4.0034,-4.008,-3.9886,-3.9401,-3.8606,-3.8063,-3.8089,-3.8264,-3.8117,-3.7388,-3.7417,-3.7306,-3.6968,-3.6678,-3.6177,-3.5425,-3.4968,-3.4159,-3.2917,-3.2493,-3.1645,-3.033,-3.0146,-2.9738,-2.9085,-2.8803,-2.8643,-2.861,-2.7689,-2.7234,-2.7156,-2.7148,-2.7585,-2.823,-2.8329,-2.8709,-2.9219,-2.8559,-2.8273,-2.8237,-2.8353,-2.8424,-2.8398,0.0,0.0,0.0,0.0,0.0,0.0,0.0,0.0,0.0,0.0,0.0,0.0,0.0,0.0,0.0,0.0,0.0,0.0,-0.8028,-0.8529,-0.8931,-0.9281,-1.0317,-1.1111,-1.1558,-1.2257,-1.2882,-1.3499,-1.3499,-1.3477,-1.3492,-1.3492,-1.3682,-1.4056,-1.437,-1.5375,-1.6995,-1.8082,-1.8757,-1.9063,-1.9778,-2.0256,-2.0516,-1.9507,-1.9157,-1.9133,-1.9784,-1.9714,0.0,-1.9,-1.839,-1.7757,-1.8163,-1.8202,-1.8163,-1.813,-1.8605,-1.9237,-1.9758,-2.1313,-2.3328,-2.5332,-2.7303,-2.9477,-3.2207,-3.3598,-3.4982,-3.7291,-3.8358,-3.9118,-3.9945,-4.0095,-4.01,-4.0093,-3.9861,-3.9585,-3.9331,-3.8331,-3.7229,-3.6158,-3.5895,-3.5879,-3.6127,-3.5385,-3.4896,-3.4841,-3.4154,-3.367,-3.3607,-3.2995,-3.233,-3.1647,-3.1066,-3.0264,-2.9206,-2.9092,-2.8903,-2.8586,-2.7964,-2.7689,-2.7673,-2.678,-2.6488,-2.662,-2.681,-2.7175,-2.7644,-2.7841,-2.8116,-2.8382,-2.8074,-2.8025,-2.8099,-2.8273,-2.8318,-2.8291,0.0,0.0,0.0,0.0,0.0,0.0,0.0,0.0,0.0,0.0,0.0,0.0,0.0,0.0,0.0,0.0,0.0,0.0,0.0,-0.8097,-0.8453,-0.9066,-0.9531,-1.0146,-1.0738,-1.1372,-1.1993,-1.26,-1.2931,-1.3233,-1.3499,-1.3051,-1.34,-1.4471,-1.4358,-1.5173,-1.6752,-1.8021,-1.8547,-1.8727,-1.9321,-1.9582,-1.9599,-1.8247,-1.7751,-1.7764,-1.8602,-1.852,-1.7999,-1.7749,-1.7429,-1.7164,-1.7491,-1.774,-1.7926,-1.7997,-1.85,-1.9253,-2.0594,-2.2083,-2.3794,-2.5816,-2.8167,-3.0459,-3.2127,-3.3646,-3.5284,-3.7336,-3.8393,-3.9131,-3.9783,-3.9852,-3.9785,-3.9715,-3.941,-3.9114,-3.8936,-3.7627,-3.6164,-3.4649,-3.3592,-3.3208,-3.382,-3.3442,-3.3206,-3.328,-3.2461,-3.1897,-3.1839,-3.1213,-3.0707,-3.0393,-2.975,-2.9092,-2.834,-2.821,-2.8035,-2.7781,-2.7139,-2.6817,-2.6858,-2.633,-2.6189,-2.6365,-2.6725,-2.6989,-2.7213,-2.7535,-2.7701,-2.7701,-2.7701,-2.7836,-2.8014,-2.8164,-2.8209,-2.8182,0.0,0.0,0.0,0.0,0.0,0.0,0.0,0.0,0.0,0.0,0.0,0.0,0.0,0.0,-0.7835,-0.8061,-0.7796,-0.7883,-0.8555,-0.8068,-0.8004,-0.8564,-0.9222,-0.9748,-0.9916,-1.0738,-1.087,-1.0375,-1.144,-1.2445,-1.3465,-1.1872,-1.2381,-1.4508,-1.4684,-1.4831,-1.5116,-1.7338,-1.7819,-1.7253,-1.8784,-1.9012,-1.833,-1.7197,-1.6964,-1.735,-1.776,-1.7195,-1.6286,-1.6818,-1.6942,-1.6878,-1.7217,-1.7472,-1.7824,-1.822,-1.8182,-1.8429,-2.0703,-2.1776,-2.316,-2.6612,-2.9113,-3.1168,-3.2728,-3.4544,-3.6131,-3.678,-3.7515,-3.8064,-3.8163,-3.8116,-3.8214,-3.867,-3.8512,-3.824,-3.7984,-3.6056,-3.4393,-3.3546,-3.1369,-2.9762,-2.9332,-3.1629,-3.3,-3.2827,-3.2593,-3.1805,-3.0247,-3.0015,-2.9563,-2.88,-2.8598,-2.8194,-2.7444,-2.7371,-2.6895,-2.6092,-2.6059,-2.6151,-2.6329,-2.6504,-2.6504,-2.6418,-2.6891,-2.7103,-2.7117,-2.7535,-2.7701,-2.7701,-2.7701,-2.7836,-2.8014,-2.8014,-2.8099,-2.8182,0.0,0.0,0.0,0.0,0.0,0.0,0.0,0.0,0.0,0.0,0.0,0.0,0.0,0.0,0.0,0.0,-0.7298,-0.7224,-0.7198,-0.7129,-0.7193,-0.7664,-0.7929,-0.8355,-0.8872,-0.9321,-0.9442,-0.9236,-0.9079,-0.9453,-1.0295,-0.9777,-1.0684,-1.2955,-1.451,-1.5227,-1.5337,-1.6565,-1.7195,-1.7391,-1.7235,-1.7534,-1.7839,-1.6378,-1.5761,-1.5782,0.0,-1.6588,-1.6454,-1.6407,-1.6236,-1.6056,-1.6403,-1.6884,-1.7467,-1.8256,-1.8533,-1.8844,-2.0167,-2.1904,-2.3986,-2.6564,-2.8935,-3.0953,-3.2387,-3.3171,-3.3942,-3.5116,-3.5109,-3.5199,-3.6259,-3.6751,-3.7023,-3.703,-3.7296,-3.733,-3.6768,-3.627,-3.4979,-3.2384,-3.1533,-3.0494,-2.875,-2.9386,-2.9728,-2.9259,-2.8946,-2.871,-2.8513,-2.8387,-2.8176,-2.7868,-2.7757,-2.7317,-2.6462,-2.6462,-2.6274,-2.5917,-2.5864,-2.5658,-2.5374,-2.5957,-2.6383,-2.6674,-2.6825,-2.7038,-2.7233,-2.739,-2.7452,-2.7452,-2.7452,-2.7526,-2.7677,-2.7677,-2.7748,-2.7922,0.0,0.0,0.0,0.0,0.0,0.0,0.0,0.0,0.0,0.0,0.0,0.0,0.0,0.0,0.0,0.0,0.0,-0.6879,-0.6803,-0.6637,-0.6781,-0.7256,-0.7247,-0.7509,-0.807,-0.8159,-0.8274,-0.8586,-0.7771,-0.7749,-0.8436,-0.8498,-0.975,-1.1903,-1.3488,-1.462,-1.5262,-1.6055,-1.6355,-1.6325,-1.6228,-1.6329,-1.6395,-1.5327,-1.4989,0.0,-1.5566,-1.5941,-1.6296,-1.6114,-1.581,-1.5489,-1.5632,-1.611,-1.6816,-1.782,-1.8442,-1.8987,-2.0122,-2.2102,-2.4286,-2.6505,-2.8384,-2.9968,-3.1046,-3.1435,-3.1898,-3.3031,-3.2974,-3.3108,-3.4345,-3.4861,-3.5151,-3.5321,-3.5625,-3.5754,-3.5494,-3.5156,-3.4008,-3.1421,-3.0823,-2.9839,-2.7827,-2.7725,-2.776,-2.7614,-2.7367,-2.7198,-2.7261,-2.7155,-2.7047,-2.6955,-2.6919,-2.6614,-2.6026,-2.601,-2.5822,-2.5484,-2.5806,-2.5634,-2.5095,-2.6031,-2.664,-2.6973,-2.6973,-2.7087,-2.7299,-2.7299,-2.7299,-2.7299,-2.7299,-2.7376,-2.7461,-2.72,-2.7372,-2.776,0.0,0.0,0.0,0.0,0.0,0.0,0.0,0.0,0.0,0.0,0.0,0.0,0.0,0.0,0.0,0.0,0.0,0.0,-0.721,-0.6629,-0.6607,-0.7385,-0.7107,-0.71,-0.7548,-0.7237,-0.744,-0.8197,-0.7651,-0.7578,-0.7962,-0.8207,-0.9341,-1.1266,-1.1883,-1.3072,-1.4758,-1.577,-1.5362,-1.424,-1.5711,-1.5479,-1.437,-1.4285,-1.4799,-1.5411,-1.5034,-1.5313,-1.5914,-1.5884,-1.5592,-1.5315,-1.5113,-1.5436,-1.6069,-1.7235,-1.7968,-1.8874,-2.0596,-2.2257,-2.4041,-2.6327,-2.7485,-2.8281,-2.8952,-2.95,-3.0016,-3.0532,-3.1071,-3.1673,-3.2366,-3.2502,-3.2778,-3.3597,-3.3601,-3.3653,-3.4102,-3.291,-3.1653,-3.0614,-2.9236,-2.7861,-2.6571,-2.6691,-2.7148,-2.7879,0.0,-2.7311,-2.6519,-2.6382,-2.6277,-2.6203,-2.6168,-2.6115,-2.599,-2.5941,-2.5524,-2.471,-2.5791,-2.6016,-2.5463,-2.6715,-2.7282,-2.7299,-2.7299,-2.7299,-2.7299,-2.7247,-2.723,-2.723,-2.7195,-2.7286,-2.7287,-2.6603,-2.6883,-2.766,0.0,0.0,0.0,0.0,0.0,0.0,0.0,0.0,0.0,0.0,0.0,0.0,0.0,0.0,0.0,0.0,0.0,0.0,-0.6654,-0.5863,-0.5673,-0.6296,-0.6071,-0.6249,-0.6936,-0.669,-0.6815,-0.7332,-0.7555,-0.8041,-0.8801,-0.8563,-0.8862,-0.9653,-1.1918,-1.3174,-1.3653,-1.4561,-1.5064,-1.517,-1.4765,-1.4735,-1.4849,-1.4408,-1.4454,-1.4796,-1.4999,-1.5381,-1.5672,-1.5303,-1.5429,-1.5901,-1.6626,-1.6742,-1.6894,-1.7781,-1.8344,-1.8926,-2.0249,-2.1822,-2.3438,-2.4813,-2.5839,-2.6728,-2.7486,-2.7306,-2.7232,-2.8234,-2.8312,-2.8513,-2.9541,-3.0514,-3.1532,-3.2594,-3.2438,-3.2275,-3.2493,-3.2244,-3.1296,-2.9204,-2.9315,-2.8826,-2.7011,-2.6521,-2.6502,-2.691,-2.6927,-2.6739,-2.6382,-2.633,-2.6277,-2.6203,-2.6115,-2.6026,-2.5934,-2.5216,-2.4876,-2.4855,-2.5141,-2.543,-2.5724,-2.6534,-2.7055,-2.7299,-2.7299,-2.7299,-2.7247,-2.6661,-2.6419,-2.635,-2.5799,-2.5704,-2.5834,-2.5642,-2.6239,-2.7085,0.0,0.0,0.0,0.0,0.0,0.0,0.0,0.0,0.0,0.0,0.0,0.0,0.0,0.0,0.0,0.0,0.0,0.0,0.0,-0.5865,-0.5588,-0.5785,-0.5651,-0.5843,-0.6339,-0.615,-0.6316,-0.6858,-0.7272,-0.7832,-0.8619,-0.8559,-0.8758,-0.9258,-1.1077,-1.2298,-1.2964,-1.3621,-1.4078,0.0,0.0,-1.4271,-1.4495,-1.4439,-1.4538,-1.4784,-1.5088,-1.5264,-1.54,-1.5644,-1.5663,-1.5791,-1.6845,-1.6907,-1.6879,-1.7901,-1.8445,-1.8819,-1.9459,-2.1153,-2.2812,-2.3258,-2.4462,-2.5471,-2.5348,-2.5271,-2.5304,-2.5661,-2.6013,-2.664,-2.7974,-2.8985,-2.996,-3.1051,-3.1249,-3.1201,-3.1021,-3.1207,-3.0701,-2.8798,-2.8779,-2.8322,-2.6826,-2.6332,-2.6156,-2.6277,-2.6241,-2.6225,-2.6295,-2.6277,-2.6222,-2.622,-2.6063,-2.5937,-2.5791,-2.5253,-2.4879,-2.4715,-2.4959,-2.508,-2.5103,-2.5732,-2.6282,-2.6764,0.0,-2.6971,-2.723,-2.6437,-2.6109,-2.6074,-2.5643,-2.5351,-2.5216,-2.5687,-2.6239,-2.6765,0.0,0.0,0.0,0.0,0.0,0.0,0.0,0.0,0.0,0.0,0.0,0.0,0.0,0.0,0.0,0.0,0.0,0.0,0.0,0.0,0.0,0.0,-0.5588,-0.5653,-0.5815,-0.5692,-0.599,-0.6584,-0.6932,-0.7402,-0.807,-0.8466,-0.8942,-0.9529,-1.0076,-1.1129,-1.2406,-1.2864,-1.3108,-1.3197,-1.395,-1.4107,-1.3887,0.0,0.0,-1.497,-1.5156,-1.5088,-1.5136,-1.6397,-1.6208,-1.5694,-1.6618,-1.6709,-1.6718,-1.7883,-1.8366,-1.8594,-1.8704,-2.0417,-2.2133,-2.1941,-2.3245,-2.433,-2.3301,-2.3467,-2.3722,-2.3324,-2.4113,-2.534,-2.6999,-2.7738,-2.8453,-2.9513,-3.0032,-3.0197,-2.9849,-2.9851,-2.9561,-2.8708,-2.7811,-2.7033,-2.6274,-2.6049,-2.5888,-2.5881,-2.5619,-2.5697,-2.626,-2.6222,-2.6134,-2.6035,-2.5796,-2.5655,-2.5575,-2.5318,-2.5025,-2.4661,-2.4929,-2.4793,-2.432,-2.4782,-2.535,-2.5954,-2.5954,0.0,-2.7075,-2.6281,-2.6023,-2.6092,-2.6018,-2.5646,-2.5201,-2.6079,-2.6551,-2.6712,0.0,0.0,0.0,0.0,0.0,0.0,0.0,0.0,0.0,0.0,-0.987,-0.9599,0.0,0.0,0.0,0.0,0.0,0.0,0.0,0.0,0.0,0.0,-0.5586,-0.5357,-0.539,-0.539,-0.5605,-0.6142,-0.711,-0.7865,-0.8366,-0.9107,-0.9522,-0.9722,-1.0255,-1.0995,-1.1813,-1.2691,-1.3325,-1.3838,-1.4159,-1.4345,-1.4346,0.0,0.0,0.0,-1.5088,-1.5264,-1.542,-1.6337,-1.6617,-1.674,-1.7747,-1.808,-1.809,-1.8311,-1.8135,-1.8017,-1.8533,-1.9844,-2.1117,-2.1774,-2.2458,-2.2965,-2.2941,-2.2199,-2.1631,-2.2212,-2.2717,-2.3584,-2.5374,-2.6749,-2.8059,-2.9407,-2.884,-2.8599,-2.971,-2.8023,-2.6897,-2.741,-2.6776,-2.6145,-2.5811,-2.5253,-2.5137,-2.5844,-2.4799,-2.4756,-2.6118,-2.6203,-2.5851,-2.5083,-2.4441,-2.4392,-2.502,-2.3818,-2.3967,-2.5478,-2.4357,-2.4168,-2.4871,-2.4976,-2.5074,-2.5195,-2.5195,0.0,-2.6247,-2.5505,-2.5557,-2.607,-2.5656,-2.557,-2.5646,-2.5374,-2.6258,-2.7502,0.0,0.0,0.0,0.0,0.0,0.0,0.0,-1.1866,-1.1682,-1.1005,-1.0651,-1.0125,-0.9264,-0.8928,0.0,0.0,0.0,0.0,0.0,0.0,0.0,0.0,0.0,0.0,-0.5609,-0.5485,-0.5698,-0.6142,0.0,-0.7784,-0.8086,-0.893,-0.9407,-0.9576,-1.0047,-1.0717,-1.1636,-1.2332,-1.3147,-1.401,-1.4207,-1.4396,0.0,0.0,0.0,0.0,-1.497,-1.5147,-1.5312,-1.6158,-1.6236,-1.6152,-1.7573,-1.804,-1.8092,-1.8319,-1.7895,-1.7532,-1.8352,-1.9076,-1.9775,-2.0366,-2.124,-2.1803,-2.1104,-2.0727,-2.049,-2.0313,-2.0962,-2.2089,-2.3862,-2.5276,-2.6598,-2.7977,-2.7903,-2.7791,-2.8193,-2.7457,-2.6826,-2.6584,-2.626,-2.5863,-2.5339,-2.5137,-2.5192,-2.5546,-2.5301,-2.5272,-2.5605,-2.5259,-2.4792,-2.4243,-2.3882,-2.3832,-2.4176,-2.3572,-2.3768,-2.4695,-2.3853,-2.3709,-2.4167,-2.3932,-2.4022,-2.4384,-2.4384,0.0,-2.564,-2.4893,-2.4881,-2.5296,-2.5067,-2.5059,-2.5225,-2.5456,-2.6418,-2.7506,0.0,0.0,0.0,0.0,0.0,0.0,0.0,-1.2619,-1.2485,-1.1889,-1.1376,-1.066,-0.9466,-0.8961,-0.8658,0.0,0.0,0.0,0.0,0.0,0.0,0.0,0.0,0.0,0.0,0.0,0.0,-0.6644,-0.7362,0.0,0.0,0.0,0.0,0.0,-0.9722,-1.0405,-1.1422,-1.2017,-1.2857,0.0,0.0,-1.4396,0.0,0.0,0.0,0.0,0.0,-1.5029,-1.5126,-1.5772,-1.5566,-1.5216,-1.6587,-1.7225,-1.7503,-1.7874,-1.7636,-1.7376,-1.8041,-1.8642,-1.9097,-1.9389,-2.03,-2.0806,-1.9494,-1.9501,-1.9526,-1.8701,-1.9551,-2.0957,-2.2689,-2.4008,-2.5226,-2.6458,-2.6951,-2.7047,-2.6603,-2.697,-2.691,-2.5864,-2.591,-2.5708,-2.4862,-2.5036,-2.523,-2.5278,-2.5606,-2.5594,-2.5127,-2.4249,-2.3687,-2.3539,-2.3391,-2.3358,-2.3506,-2.3489,-2.3585,-2.3799,-2.3448,-2.3266,-2.3249,-2.2917,-2.3102,-2.3655,-2.3692,0.0,0.0,-2.4523,-2.4491,-2.4831,-2.4897,-2.5034,-2.5279,-2.5958,-2.6853,-2.7651,0.0,0.0,0.0,0.0,0.0,0.0,0.0,-1.3329,-1.3047,-1.2488,-1.2035,-1.1302,-0.9957,-0.9294,-0.8869,0.0,0.0,0.0,0.0,0.0,0.0,0.0,0.0,0.0,0.0,0.0,0.0,-0.7767,-0.8317,0.0,0.0,0.0,0.0,0.0,0.0,-1.008,-1.0724,-1.1731,0.0,0.0,0.0,0.0,0.0,0.0,0.0,0.0,0.0,-1.5098,-1.5167,-1.5143,-1.4929,-1.4673,-1.4681,-1.5555,-1.6637,-1.6574,-1.7284,-1.7991,-1.7701,-1.8808,-2.0061,-2.017,-2.0296,-2.023,-1.9587,-1.897,-1.8439,-1.8363,-1.9214,-2.0477,-2.2065,-2.3613,-2.4898,-2.5689,-2.5907,-2.5988,-2.6061,-2.5859,-2.5514,-2.4879,-2.5352,-2.5383,-2.4462,-2.4549,-2.4815,-2.5192,-2.4582,-2.4464,-2.5077,-2.3768,-2.3021,-2.3067,-2.2418,-2.2551,-2.3477,-2.2846,-2.296,-2.379,-2.3096,-2.2762,-2.2789,-2.2962,-2.3105,-2.3157,-2.3372,0.0,0.0,-2.4593,-2.4984,-2.5633,-2.5877,-2.6441,-2.7085,-2.6702,-2.7523,-2.8732,0.0,0.0,0.0,0.0,0.0,0.0,-1.3571,-1.3649,-1.3476,-1.2904,-1.2595,-1.1964,-1.0752,-1.0401,-0.9774,-0.8578,0.0,0.0,0.0,0.0,0.0,0.0,0.0,0.0,0.0,0.0,-0.8743,-0.8485,-0.8699,0.0,0.0,0.0,0.0,0.0,0.0,-1.0627,-1.1486,-1.2159,0.0,0.0,0.0,0.0,0.0,0.0,0.0,0.0,0.0,0.0,-1.4834,-1.5119,-1.4487,-1.3654,-1.4028,-1.4253,-1.4665,-1.593,-1.6347,-1.6612,-1.7494,-1.7977,-1.842,-1.8952,-1.8814,-1.8519,-1.8375,-1.7785,-1.7354,-1.7626,-1.8246,-1.922,-2.0917,-2.2327,-2.3603,-2.4582,-2.4935,-2.5109,-2.5203,-2.5404,-2.5223,-2.4392,-2.5404,-2.5663,-2.4357,-2.4755,-2.5158,-2.5362,-2.4914,-2.4597,-2.4448,-2.304,-2.2319,-2.2463,-2.2107,-2.2107,-2.2467,-2.2429,-2.2586,-2.2942,-2.277,-2.2712,-2.2712,-2.2995,-2.3095,-2.3102,-2.3294,0.0,0.0,-2.4311,-2.4671,-2.5528,-2.5634,-2.6188,-2.6903,-2.668,-2.7622,-2.8865,0.0,0.0,0.0,0.0,0.0,-1.4181,-1.3821,-1.389,-1.383,-1.3285,-1.3103,-1.2622,-1.1487,-1.135,-1.0697,-0.9153,-0.9293,0.0,0.0,0.0,0.0,0.0,0.0,0.0,0.0,0.0,-0.9479,-0.9279,-0.9338,-0.9436,0.0,0.0,-1.0198,-1.0147,0.0,0.0,0.0,0.0,0.0,0.0,0.0,0.0,0.0,0.0,0.0,0.0,0.0,0.0,0.0,0.0,0.0,-1.336,-1.366,-1.3323,-1.3185,-1.481,-1.5528,-1.5961,-1.7095,-1.7444,-1.7637,-1.8238,-1.7878,-1.7412,-1.7388,-1.7048,-1.6773,-1.7008,-1.7786,-1.8829,-2.0119,-2.1603,-2.2919,-2.3859,-2.4466,-2.4749,-2.458,-2.4822,-2.4578,-2.3423,-2.4462,-2.4834,-2.3701,-2.4636,-2.5343,-2.5497,-2.5353,-2.4963,-2.4258,-2.308,-2.232,-2.2158,-2.2158,-2.2101,-2.2089,-2.236,-2.2487,-2.2487,-2.2632,-2.2712,-2.2712,-2.3035,-2.3206,-2.3206,-2.3518,0.0,0.0,-2.4153,-2.4365,-2.5072,-2.5311,-2.5878,-2.6631,-2.6935,-2.7914,-2.8997,0.0,0.0,0.0,0.0,0.0,0.0,-1.4327,-1.4139,-1.395,-1.383,-1.364,-1.3126,-1.2185,-1.1976,-1.146,-1.0493,-1.0108,0.0,0.0,0.0,0.0,0.0,0.0,0.0,0.0,0.0,-1.0187,-1.0194,-1.0434,-1.0555,-1.0618,-1.124,-1.1255,-1.0736,0.0,0.0,0.0,0.0,0.0,0.0,0.0,0.0,0.0,0.0,0.0,0.0,0.0,0.0,0.0,0.0,0.0,0.0,0.0,-1.2828,-1.2611,-1.3086,-1.4881,-1.6616,-1.6228,-1.736,-1.8674,-1.862,-1.7967,-1.7315,-1.6904,-1.6917,-1.6909,-1.66,-1.814,-1.9677,-2.0032,-2.1731,-2.3265,-2.3733,-2.4635,-2.5039,-2.4308,-2.3875,-2.3098,-2.1709,-2.2017,-2.2333,-2.2232,-2.3977,-2.5208,-2.5465,-2.5546,0.0,-2.482,-2.4149,-2.3316,-2.2327,-2.2552,-2.2685,-2.2685,-2.2685,-2.2685,-2.2685,-2.2712,-2.2712,-2.2712,-2.3177,-2.3392,0.0,0.0,0.0,0.0,-2.4208,-2.4208,-2.4281,-2.509,-2.5878,-2.6725,-2.7709,-2.8587,-2.9293,0.0,0.0,0.0,0.0,0.0,0.0,0.0,-1.4666,-1.4488,-1.401,-1.3821,-1.3442,-1.2664,-1.2557,-1.2174,-1.1231,-1.0931,0.0,0.0,0.0,0.0,0.0,0.0,0.0,0.0,0.0,0.0,-1.0933,-1.1017,-1.124,-1.1553,-1.1934,-1.2003,-1.1961,-1.2192,-1.2332,0.0,0.0,0.0,0.0,0.0,0.0,0.0,0.0,0.0,0.0,0.0,0.0,0.0,0.0,0.0,0.0,0.0,0.0,0.0,-1.2393,-1.3288,-1.449,-1.506,-1.5574,-1.5983,-1.62,-1.5766,-1.5343,-1.5467,-1.529,-1.5186,-1.5644,-1.6806,-1.8212,-1.968,-2.1344,-2.2718,-2.34,-2.4605,-2.4615,-2.227,-2.3182,-2.3358,-2.1401,-2.2435,-2.3451,-2.3822,-2.4717,-2.5227,-2.5082,-2.6081,-2.6273,-2.5255,-2.4901,-2.4071,-2.2746,-2.2712,-2.2659,-2.2552,-2.2659,-2.2712,-2.2712,-2.2893,-2.2952,-2.2977,-2.345,-2.3671,0.0,0.0,0.0,0.0,-2.4428,-2.4579,-2.5171,-2.543,-2.6117,-2.699,-2.7307,-2.8316,-2.942,0.0,0.0,0.0,0.0,0.0,0.0,0.0,-1.5069,-1.4961,-1.4359,-1.4121,-1.3853,-1.3279,-1.3082,-1.2805,-1.233,-1.2015,0.0,0.0,0.0,0.0,0.0,0.0,0.0,0.0,-1.1038,-1.1254,-1.1553,-1.1677,-1.1926,-1.2174,-1.2666,-1.2844,-1.283,-1.2923,-1.299,0.0,0.0,0.0,0.0,0.0,0.0,-1.6066,0.0,0.0,0.0,0.0,0.0,0.0,0.0,0.0,0.0,0.0,0.0,0.0,0.0,-1.2731,-1.334,-1.3987,-1.4487,-1.4883,-1.5097,-1.4692,-1.439,-1.4698,-1.4606,-1.4744,-1.5531,-1.6579,-1.7954,-1.9857,-2.0559,-2.1146,-2.1959,-2.2887,-2.2736,-2.0559,-2.1472,-2.1792,-2.022,-2.1745,-2.3212,-2.3904,-2.4855,-2.54,-2.5319,-2.6488,-2.6791,-2.588,-2.5773,-2.504,-2.3484,-2.2981,-2.2712,-2.2596,-2.2764,-2.2868,-2.285,-2.3109,-2.3212,-2.3212,-2.3624,-2.3795,0.0,0.0,0.0,0.0,-2.441,-2.4561,-2.517,-2.5486,-2.6039,-2.6697,-2.7069,-2.7874,-2.8681,0.0,0.0,0.0,0.0,0.0,0.0,0.0,-1.541,-1.5294,-1.4834,-1.4588,-1.4359,-1.4028,-1.3545,-1.3304,-1.3518,0.0,0.0,0.0,0.0,0.0,0.0,0.0,0.0,0.0,-1.1988,-1.2042,-1.2042,-1.2421,-1.2605,-1.2666,-1.3459,-1.367,-1.3446,-1.3377,-1.3318,0.0,0.0,0.0,0.0,0.0,0.0,0.0,0.0,0.0,0.0,0.0,0.0,0.0,0.0,0.0,0.0,0.0,0.0,0.0,0.0,0.0,0.0,0.0,-1.4102,-1.5139,-1.4909,-1.4546,-1.4244,-1.4417,-1.4675,0.0,-1.6009,-1.7179,-1.8536,-2.0114,-1.9631,-1.9149,-1.9545,-2.0101,-2.0146,-1.9137,-1.9051,-1.8989,-1.8638,-2.0309,-2.1914,-2.2889,-2.4515,-2.5619,-2.595,-2.6774,-2.7026,-2.6562,-2.6707,-2.6074,-2.4515,-2.3527,-2.292,-2.2712,-2.297,-2.3095,-2.3102,-2.3335,-2.3414,-2.3437,-2.3714,-2.3858,0.0,0.0,0.0,0.0,-2.4228,-2.4321,-2.4515,-2.5262,-2.5719,-2.6035,-2.6923,-2.7327,-2.7422,0.0,0.0,0.0,0.0,0.0,0.0,0.0,0.0,0.0,0.0,-1.4883,-1.4597,-1.4538,-1.3846,-1.3614,0.0,0.0,0.0,0.0,0.0,0.0,0.0,0.0,0.0,0.0,-1.2174,-1.2413,-1.2765,-1.3017,-1.3338,-1.3821,-1.401,-1.4033,-1.393,-1.4017,0.0,0.0,0.0,0.0,0.0,0.0,0.0,0.0,0.0,0.0,0.0,-1.6707,-1.6596,0.0,0.0,0.0,0.0,0.0,0.0,0.0,0.0,-1.3218,-1.319,-1.33,0.0,-1.3803,-1.3524,-1.3369,-1.3407,0.0,-1.3616,-1.382,-1.5616,-1.6831,-1.751,-1.7354,-2.001,-2.0997,-1.729,-2.0435,-2.1801,-1.7376,-1.7692,-1.8876,-2.0314,-2.1307,-2.2414,-2.3856,-2.4862,-2.5591,-2.5986,-2.6905,-2.7299,-2.7047,-2.6887,-2.6578,-2.6079,-2.4845,-2.3714,-2.2712,-2.297,-2.3095,-2.3102,-2.3513,-2.3714,-2.3714,-2.408,-2.4265,0.0,0.0,0.0,-2.458,-2.458,-2.4673,-2.4804,-2.4978,-2.557,-2.6237,-2.5863,-2.6524,-2.763,0.0,0.0,0.0,0.0,0.0,0.0,0.0,0.0,0.0,0.0,0.0,0.0,0.0,0.0,0.0,0.0,0.0,0.0,0.0,0.0,0.0,0.0,0.0,0.0,-1.2903,-1.3208,-1.3442,-1.3795,-1.4094,-1.446,-1.4874,-1.5001,-1.4955,-1.4756,-1.4528,0.0,0.0,0.0,0.0,0.0,-1.6894,0.0,0.0,0.0,0.0,0.0,-1.7093,-1.6869,0.0,-1.6079,-1.5703,-1.5378,0.0,0.0,0.0,0.0,-1.3658,-1.36,-1.3467,-1.3228,-1.3094,-1.3035,-1.2803,-1.2706,-1.3276,-1.3474,-1.3975,-1.5624,-1.5788,-1.6258,-1.8431,-1.889,-1.83,-1.6369,-1.918,-2.0671,-1.8017,-1.8064,-1.9015,-2.0694,-2.2107,-2.3323,-2.4272,-2.5371,-2.6197,-2.6756,-2.7227,-2.7569,-2.773,-2.7469,-2.7014,-2.6357,-2.5561,-2.4644,-2.3568,-2.346,-2.3417,-2.344,-2.3813,-2.4018,-2.4079,-2.4301,-2.4441,0.0,0.0,0.0,-2.4707,-2.4707,-2.4779,-2.4902,-2.4902,-2.5298,-2.5803,-2.5363,-2.5753,-2.6568,0.0,0.0,0.0,0.0,0.0,0.0,0.0,0.0,0.0,0.0,0.0,0.0,0.0,0.0,0.0,0.0,0.0,0.0,0.0,0.0,0.0,0.0,0.0,-1.413,-1.413,-1.4478,-1.4706,-1.4834,-1.5235,-1.5517,-1.5671,-1.5989,-1.5884,-1.5579,-1.4982,-1.469,0.0,0.0,0.0,0.0,-1.7596,0.0,0.0,0.0,0.0,0.0,0.0,0.0,0.0,-1.6608,-1.601,-1.5518,-1.5131,0.0,0.0,0.0,0.0,0.0,-1.3789,-1.3453,-1.3137,-1.2987,-1.2706,-1.2559,-1.3084,-1.382,-1.4846,-1.6228,-1.5399,-1.584,-2.0426,-1.7994,-1.5453,-1.5991,-1.7127,-1.8302,-1.945,-1.9083,-1.9265,-2.0666,-2.26,-2.3989,-2.4535,-2.5776,-2.6841,-2.7535,-2.7539,-2.7748,-2.8282,-2.811,-2.7513,-2.6441,-2.6099,-2.5608,-2.4936,-2.4208,-2.3858,-2.3858,-2.4134,-2.4339,-2.4459,-2.4474,-2.4575,-2.4719,0.0,0.0,-2.4783,-2.4783,-2.4837,-2.4961,-2.4961,-2.5057,-2.5214,-2.5203,-2.518,-2.5271,0.0,0.0,0.0,0.0,0.0,0.0,0.0,0.0,0.0,0.0,0.0,0.0,0.0,0.0,0.0,0.0,0.0,0.0,0.0,0.0,0.0,0.0,-1.4893,-1.4775,-1.4775,-1.5059,-1.5294,-1.5294,-1.5642,-1.5874,-1.6046,-1.6056,-1.5832,-1.5425,-1.5384,-1.5519,-1.5913,-1.6761,-1.7478,-1.8229,-1.9111,0.0,0.0,0.0,0.0,0.0,0.0,0.0,0.0,-1.6559,-1.6154,-1.5961,-1.5724,0.0,0.0,0.0,0.0,0.0,-1.4983,-1.5286,-1.5066,-1.3223,-1.3372,-1.4039,-1.4448,-1.4552,-1.5397,-1.829,-1.8817,-1.8762,-1.8821,-2.0586,-2.0282,-1.4972,-1.5072,-1.6638,-1.9168,-1.9182,-1.9618,-2.1322,-2.2118,-2.3258,-2.5158,-2.5697,-2.6245,-2.7053,-2.7289,-2.7577,-2.7971,-2.8299,-2.8399,-2.8214,-2.7091,-2.6463,-2.6463,-2.487,-2.404,-2.4058,-2.4425,-2.4626,-2.4657,-2.4775,-2.4847,-2.4874,0.0,-2.5113,-2.5113,-2.5113,-2.5144,-2.5137,-2.5137,-2.5206,-2.5273,-2.5225,-2.5228,-2.5474,0.0,0.0,0.0,0.0,0.0,0.0,0.0,0.0,0.0,0.0,0.0,0.0,0.0,0.0,0.0,0.0,0.0,0.0,0.0,0.0,0.0,-1.6171,-1.6104,-1.5806,-1.5303,-1.5758,-1.6104,-1.6171,-1.656,-1.6899,-1.7056,-1.6796,-1.6521,-1.6327,-1.6385,-1.6536,-1.6757,-1.7966,-1.8719,-1.9093,0.0,0.0,0.0,0.0,0.0,0.0,0.0,0.0,0.0,0.0,-1.7166,-1.6544,-1.6373,0.0,0.0,0.0,0.0,0.0,-1.5688,-1.5899,-1.5969,-1.5889,-1.6573,-1.7295,-1.7562,-1.7996,-1.8795,-2.0286,-1.9458,-1.8968,-2.064,-2.0871,-2.0197,-1.8351,-1.6473,-1.6325,-1.9426,-1.9773,-2.0349,-2.2089,0.0,-2.4318,-2.5936,-2.6247,-2.674,-2.7701,-2.7695,-2.788,-2.8352,-2.8525,-2.8469,-2.8177,-2.7555,-2.6901,-2.6173,-2.543,-2.4853,-2.4425,-2.461,-2.4734,-2.4823,-2.4874,-2.4961,-2.5069,0.0,-2.5191,-2.5191,-2.5191,-2.5191,-2.5191,-2.5191,-2.5203,-2.5187,-2.5164,-2.5768,-2.6746,0.0,0.0,0.0,0.0,0.0,0.0,0.0,0.0,0.0,0.0,0.0,0.0,0.0,0.0,0.0,0.0,0.0,0.0,0.0,0.0,-1.7088,-1.7078,-1.7279,-1.6944,-1.5989,-1.6616,-1.7022,-1.7134,-1.7634,-1.7963,-1.8159,-1.767,-1.7432,-1.7446,-1.7508,-1.7655,-1.7923,-1.9201,-1.9895,-2.0197,0.0,0.0,0.0,0.0,0.0,0.0,0.0,0.0,0.0,0.0,0.0,0.0,0.0,0.0,0.0,-1.6769,-1.657,-1.6355,-1.6502,-1.6693,-1.7223,-1.8806,-1.9484,-1.9942,-2.0568,-2.1307,-2.1941,-2.2191,-2.04,-1.9698,-2.2577,-2.0516,-1.8934,-2.058,-1.8041,-1.6918,-2.0078,-2.0611,-2.1295,-2.2879,-2.4108,-2.5276,-2.6522,-2.6757,-2.7195,-2.8101,-2.8027,-2.8201,-2.8791,-2.8797,-2.8599,-2.8236,-2.7848,-2.7116,-2.6021,-2.578,-2.5352,-2.4756,-2.4818,-2.4896,-2.5024,-2.5024,-2.5103,-2.525,-2.525,-2.525,-2.525,-2.525,-2.525,-2.525,-2.5217,-2.5172,-2.5137,-2.5138,-2.6022,-2.7257,0.0,0.0,0.0,0.0,0.0,0.0,0.0,0.0,0.0,0.0,0.0,0.0,0.0,0.0,0.0,0.0,0.0,0.0,0.0,0.0,-1.7897,-1.7984,-1.8255,-1.7984,-1.7078,-1.7667,-1.805,-1.817,-1.8655,-1.8881,-1.8922,-1.8539,-1.8411,-1.8486,-1.8541,-1.906,-1.9866,-2.0446,-2.1139,-2.1866,-2.2221,0.0,0.0,0.0,0.0,0.0,0.0,0.0,0.0,0.0,0.0,0.0,0.0,0.0,-1.7464,-1.8001,-1.7706,-1.7313,-1.772,-1.8611,-1.969,-2.0759,-2.048,-2.0478,-2.2371,-2.2707,-2.2894,-2.3903,-2.3509,-2.2934,-2.2835,-2.0208,-1.8045,-1.8004,-1.7872,-1.864,-2.1072,-2.1684,-2.2378,-2.3755,-2.4289,-2.51,-2.6539,-2.6892,-2.7103,-2.7457,-2.7833,-2.8324,-2.8865,-2.9126,-2.9318,-2.9458,-2.7959,-2.7182,-2.7282,-2.5745,-2.4974,-2.4984,-2.5163,-2.5293,-2.5363,-2.5363,-2.5371,-2.539,-2.539,-2.539,-2.539,-2.539,-2.539,-2.5363,-2.5255,-2.5192,-2.5198,-2.5264,-2.537,-2.5677,0.0,0.0,0.0,0.0,0.0,0.0,0.0,0.0,0.0,0.0,0.0,0.0,0.0,0.0,0.0,0.0,0.0,0.0,0.0,0.0,-1.8483,-1.8525,-1.8804,-1.8804,-1.8578,-1.8685,-1.8804,-1.8857,-1.9186,-1.954,-1.9863,-1.9605,-1.9443,-1.9416,-2.0125,-2.0395,-2.0387,-2.1709,-2.2509,-2.2891,-2.2832,-2.2611,0.0,0.0,0.0,0.0,0.0,0.0,0.0,0.0,-2.0028,-1.9295,-1.9051,-1.8887,-1.8774,-1.8808,-1.8574,-1.8416,-1.8779,-1.9817,-2.1263,-2.3147,-2.4116,-2.4796,-2.5558,-2.5879,-2.6074,-2.6362,-2.5102,-2.3236,-2.0922,-2.0059,-1.9159,-1.7473,-1.8481,-1.9683,-2.0443,-2.1557,-2.2541,-2.3179,-2.413,-2.5257,-2.6505,-2.6952,-2.7542,-2.8373,-2.856,-2.88,-2.9318,-2.9436,-2.9532,-2.9608,-2.8988,-2.8263,-2.748,-2.6814,-2.6117,-2.5321,-2.5293,-2.5303,-2.535,-2.5382,-2.5387,-2.5387,-2.5387,-2.5387,-2.5387,-2.5387,-2.5387,-2.5387,-2.5302,-2.5284,-2.5332,-2.5359,-2.573,-2.6392,0.0,0.0,0.0,0.0,0.0,0.0,0.0,0.0,0.0,0.0,0.0,0.0,0.0,0.0,0.0,0.0,0.0,0.0,0.0,-1.8915,-1.9206,-1.9034,-1.9382,-1.9585,-1.9724,-1.9687,-1.9661,-1.9695,-1.9864,-2.0211,-2.0625,-2.0288,-2.0261,-2.0539,-2.1183,-2.1369,-2.1307,-2.2443,-2.302,-2.3171,-2.3213,-2.3313,0.0,0.0,0.0,0.0,0.0,0.0,0.0,0.0,-2.0852,-2.0074,-1.9864,-1.9793,-1.9737,-1.9551,-1.9622,-1.982,-2.0278,-2.0947,-2.2168,-2.4782,-2.6023,-2.6819,-2.7462,-2.7766,-2.7755,-2.7191,-2.5394,-2.2849,-1.9461,-1.9721,-1.9686,-1.7375,-1.878,-2.0304,-2.072,-2.1729,-2.2695,-2.3437,-2.4445,-2.5595,-2.6833,-2.7309,-2.7984,-2.8956,-2.8934,0.0,0.0,-2.9729,-2.978,-2.9874,-2.9627,-2.8879,-2.7666,-2.7378,-2.6651,-2.5467,-2.5406,-2.5393,-2.5426,-2.5459,-2.5486,-2.5486,-2.5486,-2.5486,-2.5486,-2.5473,-2.5444,-2.5398,-2.5357,-2.5359,-2.5359,-2.5376,-2.5793,-2.6536,0.0,0.0,0.0,0.0,0.0,0.0,0.0,0.0,0.0,0.0,0.0,0.0,0.0,0.0,0.0,0.0,0.0,0.0,0.0,-2.0131,-1.9976,-1.9558,-2.0025,-2.0368,-2.0495,-2.0634,-2.0765,-2.0795,-2.0819,-2.09,-2.1097,-2.0583,-2.0827,-2.1801,-2.1536,-2.1949,-2.2778,-2.244,-2.245,-2.2791,-2.3522,-2.369,-2.3582,0.0,0.0,0.0,0.0,0.0,0.0,0.0,-2.1383,-2.0597,-2.0514,-2.0379,-2.0243,-2.0361,-2.0825,-2.1475,-2.2332,-2.2125,-2.2359,-2.534,-2.5564,-2.5578,-2.7623,-2.7885,-2.7325,-2.6051,-2.4312,-2.2027,-1.8858,-1.91,-1.9243,-1.7464,-1.8659,-2.0429,-2.2229,-2.2406,-2.3025,-2.487,-2.5329,-2.6099,-2.7547,-2.7936,-2.8324,-2.8865,0.0,0.0,0.0,-2.9994,-3.0164,-3.0492,-2.9659,-2.8827,-2.8014,-2.7163,-2.6273,-2.5414,-2.5473,-2.5576,-2.5699,-2.5699,-2.5699,-2.5699,-2.5699,-2.5699,-2.5695,-2.5639,-2.5525,-2.5401,-2.5401,-2.5357,-2.5302,-2.5302,-2.5395,-2.5727,0.0,0.0,0.0,0.0,0.0,0.0,0.0,0.0,0.0,0.0,0.0,0.0,0.0,0.0,0.0,0.0,0.0,0.0,0.0,-2.0686,-2.0756,-2.0682,-2.1008,-2.1295,-2.1389,-2.1981,-2.1809,-2.0912,-2.1105,-2.1182,-2.1193,-2.176,-2.2169,-2.2393,-2.2871,-2.307,-2.3028,-2.3004,-2.3465,-2.4237,-2.4131,-2.4797,-2.5831,0.0,0.0,0.0,0.0,0.0,0.0,0.0,0.0,0.0,-2.1103,-2.099,-2.086,-2.0677,-2.0814,-2.1064,-2.1287,-2.2909,-2.4711,-2.5365,-2.7079,-2.8365,-2.752,-2.7785,-2.7647,-2.5704,-2.4008,-2.1898,-1.8808,-1.9152,-1.9157,-1.6888,-1.8958,-2.1179,-2.2041,-2.2996,-2.3998,-2.4987,-2.5782,-2.6537,-2.7209,-2.7994,-2.8735,-2.9401,0.0,0.0,0.0,-3.0342,-3.0393,-3.0501,-3.025,-2.9749,-2.8987,-2.8741,-2.7904,-2.6529,-2.6555,-2.6217,-2.5571,-2.5663,-2.5699,-2.5699,-2.5643,-2.5639,-2.5634,-2.5609,-2.5544,-2.5471,-2.5471,-2.5461,-2.5448,-2.5441,-2.5461,-2.5743,0.0,0.0,0.0,0.0,0.0,0.0,0.0,0.0,0.0,0.0,0.0,0.0,0.0,0.0,0.0,0.0,0.0,0.0,0.0,0.0,-2.0996,-2.0797,-2.1244,-2.1705,-2.2171,-2.301,-2.2965,-2.2003,-2.1768,-2.1562,-2.1347,-2.2293,-2.2823,-2.2988,-2.3499,-2.37,-2.3569,-2.3408,-2.3815,-2.4582,-2.4859,-2.5702,-2.6753,0.0,0.0,0.0,0.0,0.0,0.0,0.0,0.0,0.0,-2.1675,-2.154,-2.1531,-2.1938,-2.2247,-2.2658,-2.3561,-2.506,-2.6511,-2.7156,-2.8173,-2.8708,-2.7489,-2.6939,-2.6351,-2.5038,-2.3956,-2.2525,-2.0065,-2.0338,-2.0189,-1.7977,-1.9858,-2.1788,-2.2209,-2.3522,-2.4766,-2.5697,-2.6548,-2.7297,-2.7905,-2.8617,-2.9287,0.0,0.0,0.0,0.0,-3.056,-3.0591,-3.0626,-3.0626,-3.0238,-2.9452,-2.9433,-2.8613,-2.7009,-2.7002,-2.6496,-2.5582,-2.5644,-2.5664,-2.5664,-2.563,-2.5585,-2.5554,-2.555,-2.5544,-2.549,-2.549,-2.5495,-2.5492,-2.5503,-2.5495,-2.5704,0.0,0.0,0.0,0.0,0.0,0.0,0.0,0.0,0.0,0.0,0.0,0.0,0.0,0.0,0.0,0.0,0.0,0.0,0.0,0.0,-2.1046,-2.0527,-2.1175,-2.1968,-2.2773,-2.3861,-2.4095,-2.3545,-2.264,-2.2022,-2.1686,-2.2481,-2.317,-2.3683,-2.3803,-2.403,-2.4329,-2.3752,-2.3749,-2.4286,-2.5657,-2.6457,-2.6871,-2.6715,0.0,0.0,0.0,0.0,0.0,0.0,0.0,0.0,-2.222,-2.2039,-2.2069,-2.3494,-2.428,-2.5167,-2.7379,-2.7627,-2.7732,-2.9663,-2.8782,-2.7421,-2.7388,-2.5779,-2.4276,-2.4276,-2.4094,-2.3508,-2.2086,-2.2067,-2.1785,-2.032,-2.1281,-2.2388,-2.2893,-2.4138,-2.5518,-2.6857,-2.7565,-2.8299,-2.9195,-2.954,0.0,0.0,0.0,0.0,0.0,-3.0675,-3.0743,-3.0796,-3.079,-3.0426,-2.9627,-2.9627,-2.8807,0.0,-2.7147,-2.6659,-2.58,-2.5661,-2.5619,-2.5593,-2.559,-2.5557,-2.5492,-2.5492,-2.551,-2.5511,-2.5511,-2.5511,-2.5511,-2.5511,-2.5511,-2.5627,0.0,0.0,0.0,0.0,0.0,0.0,0.0,0.0,0.0,0.0,0.0,0.0,0.0,0.0,0.0,0.0,0.0,0.0,0.0,0.0,-2.2569,-2.2731,-2.3203,-2.3314,-2.2885,-2.4293,-2.4628,-2.3898,-2.3285,-2.2933,-2.293,-2.372,-2.4491,-2.5125,-2.4889,-2.4925,-2.506,-2.4436,-2.4678,-2.5579,-2.6576,-2.75,-2.8247,-2.8012,-2.7458,0.0,0.0,0.0,0.0,0.0,0.0,0.0,-2.2449,-2.222,-2.1991,-2.2228,-2.306,-2.4041,-2.4511,-2.6189,-2.7871,-2.8077,-2.7918,-2.7493,-2.6673,-2.5615,-2.4839,-2.4839,-2.4013,-2.3157,-2.274,-2.2342,-2.2067,-2.213,-2.2686,-2.3606,-2.4954,-2.5899,-2.6857,-2.7951,-2.8565,-2.8989,-2.927,-2.954,0.0,0.0,0.0,0.0,-3.0739,-3.0765,-3.0792,-3.08,-3.0792,-3.0717,-3.0527,-3.0527,-2.9997,0.0,-2.8319,-2.7536,-2.662,-2.5977,-2.5646,-2.5597,-2.5599,-2.557,-2.5507,-2.5507,-2.5499,-2.5511,-2.5511,-2.5511,-2.5511,-2.5511,-2.5511,-2.5627,0.0,0.0,0.0,0.0,0.0,0.0,0.0,0.0,0.0,0.0,0.0,0.0,0.0,0.0,0.0,0.0,0.0,0.0,0.0,0.0,0.0,-2.3844,-2.4249,-2.4495,-2.4437,-2.5353,-2.5636,-2.528,-2.4878,-2.4396,-2.3852,-2.4842,-2.5554,-2.5971,-2.6023,-2.5906,-2.5654,-2.5792,-2.5973,-2.6253,-2.7483,-2.83,-2.8779,-2.8264,-2.7538,-2.6693,-2.5668,0.0,0.0,0.0,0.0,0.0,0.0,0.0,-2.2538,-2.3119,-2.3642,-2.4321,-2.5633,-2.7004,-2.8098,-2.8279,-2.8334,-2.8084,-2.694,-2.6337,-2.5957,-2.5645,-2.4356,-2.3363,-2.3447,-2.3098,-2.2966,-2.3308,-2.4104,-2.4965,-2.5832,-2.7063,-2.8146,-2.8903,-2.9362,-2.9718,-2.9953,0.0,0.0,0.0,0.0,-3.0657,-3.0788,-3.0804,-3.0798,-3.0797,-3.0797,-3.0771,-3.0749,-3.0752,-3.031,-2.945,-2.9023,-2.8145,-2.6864,-2.6064,-2.566,-2.5609,-2.5571,-2.5518,-2.5511,-2.5511,-2.5511,-2.5511,-2.5511,-2.5503,-2.5499,-2.5507,-2.5511,-2.5569,0.0,0.0,0.0,0.0,0.0,0.0,0.0,0.0,0.0,0.0,0.0,0.0,0.0,0.0,0.0,0.0,0.0,0.0,0.0,0.0,0.0,0.0,-2.4919,-2.5376,-2.588,-2.627,-2.6537,-2.6734,-2.6532,-2.5988,-2.512,-2.5988,-2.6514,-2.6778,-2.7074,-2.6886,-2.639,-2.7237,-2.7255,-2.6845,-2.8338,-2.9012,-2.902,-2.8209,-2.739,-2.6527,-2.5512,-2.4644,-2.3919,-2.3813,0.0,0.0,0.0,0.0,-2.322,-2.4279,-2.4532,-2.5032,-2.7569,-2.8379,-2.8611,-2.9117,-2.9153,-2.8735,-2.7508,-2.7195,-2.7006,-2.6353,-2.5013,-2.4081,-2.4333,-2.4219,-2.4178,-2.4453,-2.5445,-2.6266,-2.6544,-2.8005,-2.9193,-2.9622,-2.9979,-3.0298,-3.0664,0.0,0.0,0.0,0.0,-3.0797,-3.08,-3.0781,-3.0781,-3.0788,-3.0769,-3.0759,-3.0703,-3.0697,-3.0321,-2.9596,-2.9317,-2.8382,-2.6859,-2.6064,-2.5664,-2.5609,-2.5546,-2.5511,-2.553,-2.5511,-2.5511,-2.5511,-2.5522,-2.5525,-2.5523,-2.5522,-2.5511,-2.5511,0.0,0.0,0.0,0.0,0.0,0.0,0.0,0.0,0.0,0.0,0.0,0.0,0.0,0.0,0.0,0.0,0.0,0.0,-2.4704,0.0,0.0,-2.4837,-2.564,-2.5765,-2.5069,-2.585,-2.6429,-2.6871,-2.6952,-2.7289,-2.7852,-2.7374,-2.7525,-2.8198,-2.7851,-2.7633,-2.7592,-2.7883,-2.7987,-2.8051,-2.908,-2.9493,-2.942,-2.8634,-2.8204,-2.7811,-2.6078,-2.5392,-2.5208,-2.4337,-2.4078,0.0,0.0,0.0,-2.3468,-2.3305,-2.4003,-2.5126,-2.6493,-2.8455,-2.9997,-2.9568,-2.9319,-2.8823,-2.7564,-2.7209,-2.6946,-2.632,-2.5874,-2.5658,-2.5878,-2.5553,-2.5546,-2.6437,-2.6708,-2.7192,-2.8347,-2.9082,-2.9646,-2.9986,-3.0286,-3.0521,-3.067,0.0,0.0,0.0,-3.0796,-3.0807,-3.0789,-3.0736,-3.0706,-3.0704,-3.0711,-3.0717,-3.0703,-3.0698,-3.0613,-3.0416,-2.8977,-2.7782,-2.6859,-2.6064,-2.5691,-2.568,-2.5618,-2.5599,-2.5588,-2.553,-2.553,-2.5584,-2.5585,-2.5587,-2.5592,-2.5596,-2.555,-2.5511,0.0,0.0,0.0,0.0,0.0,0.0,0.0,0.0,0.0,0.0,0.0,0.0,0.0,0.0,0.0,-2.4887,-2.4732,-2.4954,-2.5806,-2.6264,-2.6404,-2.6248,-2.683,-2.6753,-2.5939,-2.6894,-2.7317,-2.713,-2.7786,-2.8306,-2.8724,-2.8603,-2.8617,-2.8785,-2.8728,-2.8493,-2.8184,-2.8745,-2.8764,-2.8496,-2.9415,-2.9799,-2.9718,-2.8858,-2.8215,-2.7616,-2.632,-2.5527,-2.5043,-2.4671,-2.4458,-2.4355,-2.4229,0.0,0.0,0.0,-2.3544,-2.419,-2.5879,-2.8295,-3.0213,-2.9695,-2.94,-2.9079,-2.8397,-2.8138,-2.8013,-2.7851,-2.7725,-2.7543,-2.7227,-2.6785,-2.6854,-2.7924,-2.8087,-2.8374,-2.9177,-2.9655,-3.0057,-3.0393,-3.0511,-3.0604,-3.0741,0.0,0.0,0.0,-3.0745,-3.0735,-3.0752,-3.0718,-3.0684,-3.064,-3.064,-3.0629,-3.0645,-3.0629,-3.064,-3.0585,-2.9407,-2.8388,-2.755,-2.673,-2.613,-2.5701,-2.5637,-2.5604,-2.5588,-2.553,-2.555,-2.5596,-2.5564,-2.5576,-2.5601,-2.5561,-2.553,-2.5511,0.0,0.0,0.0,0.0,0.0,0.0,0.0,0.0,0.0,0.0,0.0,0.0,0.0,0.0,0.0,0.0,-2.5327,-2.5629,-2.669,-2.7051,-2.7203,-2.7118,-2.7385,-2.7204,-2.6544,-2.7205,-2.7538,-2.7469,-2.8099,-2.8636,-2.9151,-2.9454,-2.9455,-2.9237,-2.9395,-2.9233,-2.8849,-2.9489,-2.9444,-2.9045,-2.973,-3.0041,-2.999,-2.9098,-2.8389,-2.7734,-2.6823,-2.6064,-2.5454,-2.5308,-2.5286,-2.5261,-2.4979,-2.472,0.0,0.0,0.0,-2.3929,-2.5398,-2.7569,-2.9401,-2.9302,-2.9102,-2.8964,-2.907,-2.8979,-2.8902,-2.9126,-2.9138,-2.8966,-2.857,-2.8066,-2.8036,-2.8996,-2.9158,-2.929,-2.9704,-3.0064,-3.0394,-3.0637,-3.0643,-3.0662,0.0,0.0,0.0,0.0,-3.0684,-3.0678,-3.0665,-3.0675,-3.0656,-3.0598,-3.0598,-3.0598,-3.0598,-3.0598,-3.0598,-3.0598,-2.9553,-2.8722,-2.8081,-2.7067,-2.6263,-2.5703,-2.5632,-2.5604,-2.5588,-2.553,-2.555,-2.5608,-2.5569,-2.5564,-2.5589,-2.555,-2.5646,-2.5782,0.0,0.0,0.0,0.0,0.0,0.0,0.0,0.0,0.0,0.0,0.0,0.0,-2.5329,-2.573,-2.6054,-2.6142,-2.6488,-2.6839,-2.7149,-2.7303,-2.7126,-2.6573,-2.669,0.0,-2.6057,-2.5547,-2.6155,-2.7964,-2.7322,-2.7885,-2.957,-2.9718,-2.9822,-2.9845,-2.9732,-2.9769,-2.9915,-2.9905,-2.9934,-3.0032,-3.0206,-3.0286,-3.0202,-2.9446,-2.9142,-2.8975,-2.7969,-2.7624,-2.7489,-2.6558,-2.681,-2.7377,-2.6485,-2.6105,-2.5921,0.0,0.0,0.0,-2.5011,-2.5956,-2.7208,-2.814,-2.8178,-2.8202,-2.9063,-2.9119,-2.9061,-2.9345,-2.9383,-2.9509,-2.9985,-2.9437,-2.9055,-2.9512,-2.9563,-2.9704,-3.0113,-3.0407,-3.0586,-3.0605,-3.0654,-3.07,0.0,0.0,0.0,0.0,-3.0635,-3.0607,-3.0617,-3.0617,-3.0598,-3.0598,-3.0598,-3.0598,-3.0598,-3.0598,-3.0598,-3.0578,-2.8945,-2.8133,-2.8053,-2.6482,-2.5751,-2.5703,-2.5632,-2.5604,-2.5588,-2.553,-2.555,-2.5608,-2.5666,-2.5641,-2.5609,-2.5608,-2.6033,-2.6528,0.0,0.0,0.0,0.0,0.0,0.0,0.0,0.0,0.0,0.0,0.0,0.0,0.0,-2.6505,-2.6824,-2.6888,-2.7269,-2.7607,-2.7876,-2.8027,-2.804,-2.7931,-2.7504,-2.7001,-2.641,-2.6307,-2.6655,-2.7491,-2.784,-2.8655,-2.9918,-2.9981,-3.0052,-3.015,-3.0011,-3.0011,-3.0142,-3.0155,-3.0241,-3.0359,-3.0414,-3.0474,-3.0456,-2.9591,-2.9297,-2.9205,-2.8237,-2.7906,-2.7865,-2.7511,-2.7595,-2.7651,-2.6718,-2.6376,-2.6102,-2.5132,-2.5254,-2.5645,-2.5302,-2.6117,-2.7123,-2.7332,-2.7815,-2.8293,-2.8598,-2.9141,-2.96,-2.9702,-2.9865,-3.004,-3.0216,-2.9922,-2.9742,-3.0047,-3.0105,-3.0186,-3.042,-3.0584,-3.0661,-3.0657,-3.0652,-3.063,0.0,0.0,0.0,0.0,0.0,-3.0598,-3.0598,-3.0598,-3.0598,-3.0598,-3.0598,-3.0598,-3.0598,-3.0598,-3.0327,-2.9766,-2.9205,-2.8365,-2.7303,-2.6726,-2.6189,-2.5723,-2.6211,-2.6118,-2.5588,-2.553,-2.551,-2.5544,-2.5619,-2.5587,-2.5544,-2.5534,-2.5704,-2.5898,0.0,0.0,0.0,0.0,0.0,0.0,0.0,0.0,0.0,0.0,0.0,0.0,0.0,0.0,-2.7547,-2.7765,-2.802,-2.8281,-2.8482,-2.8651,-2.8646,-2.8466,-2.8044,-2.7364,-2.6413,-2.6804,-2.6962,-2.687,-2.8082,-2.9041,-2.974,-3.0029,-3.0241,-3.0367,-3.0304,-3.0273,-3.029,-3.0352,-3.0428,-3.0501,-3.054,-3.0623,-3.0622,-3.0037,-2.9828,-2.9782,-2.9146,-2.8926,-2.889,-2.8573,-2.8625,-2.8633,-2.7415,-2.6766,-2.6213,-2.4946,-2.4963,-2.5335,-2.5014,-2.5423,-2.6007,-2.6323,-2.6855,-2.7499,-2.8175,-2.8897,-2.9545,-2.9945,-3.019,-3.0336,-3.0416,-3.0347,-3.0312,-3.0451,-3.0474,-3.0503,-3.0587,-3.0555,-3.0637,-3.0931,-3.0868,-3.0805,0.0,0.0,0.0,0.0,0.0,0.0,-3.0598,-3.0598,-3.0598,-3.0598,-3.0598,-3.0598,-3.0598,-3.0598,-3.0308,-2.9727,-2.9504,-2.8838,-2.7763,-2.7489,-2.7071,-2.6562,-2.7102,-2.6837,-2.6064,-2.6293,-2.6398,-2.6382,-2.6451,-2.6423,-2.6373,-2.6373,-2.6528,-2.6729,0.0,0.0,0.0,0.0,0.0,0.0,0.0,0.0,0.0,-2.7149,0.0,0.0,0.0,0.0,0.0,-2.8669,-2.8749,-2.8827,-2.8911,-2.9104,-2.886,-2.8083,-2.8166,-2.7545,-2.6098,-2.6827,-2.6919,-2.63,-2.7984,-2.8899,-2.9075,-2.991,-3.0392,-3.0501,-3.0567,-3.0577,-3.0501,-3.0501,-3.0521,-3.0519,-3.0658,-3.0715,-3.0745,-3.0793,-3.082,-3.084,-3.0747,-3.0732,-3.0661,-2.9745,-2.9998,-3.0408,-2.8671,-2.7434,-2.6379,-2.5278,-2.4726,-2.4407,0.0,0.0,0.0,-2.5028,-2.5281,-2.5751,-2.7842,-2.8411,-2.8842,-3.0016,-3.0293,-3.0395,-3.0639,-3.0752,-3.076,-3.0624,-3.0604,-3.0609,-3.0601,-3.0366,-3.0525,-3.1385,-3.1312,-3.1213,0.0,0.0,0.0,0.0,-3.0383,-3.0466,-3.0646,-3.0656,-3.0617,-3.0598,-3.0598,-3.0598,-3.0598,-3.0598,-3.0598,-3.0559,-2.9803,-2.9446,-2.9438,-2.8675,-2.8295,-2.8202,-2.8223,-2.7763,-2.7041,-2.7865,-2.8158,-2.8112,-2.8178,-2.8164,-2.8104,-2.8104,-2.8597,-2.9128,0.0,0.0,0.0,0.0,0.0,0.0,0.0,0.0,0.0,0.0,0.0,0.0,-2.8138,-2.8394,-2.867,-2.8902,-2.9034,-2.9126,-2.9258,-2.9358,-2.9363,-2.9305,-2.8787,-2.8339,-2.8032,-2.7717,-2.7791,-2.8298,0.0,0.0,0.0,0.0,-3.053,-3.0593,-3.0634,-3.0661,-3.0634,-3.0634,-3.0637,-3.0645,-3.0732,-3.1155,-3.1649,-3.1033,-3.1181,-3.1651,-3.1011,-3.0779,-3.0762,-3.0507,-3.0574,-3.0563,-2.9411,-2.8023,-2.6737,-2.6326,-2.6025,-2.5672,-2.4807,0.0,0.0,0.0,0.0,0.0,-2.6118,-2.7583,-2.8945,-2.923,-3.0014,-3.0672,-3.0706,-3.0743,-3.076,-3.0689,-3.0674,-3.0648,-3.0552,-3.0335,-3.0521,-3.132,-3.1287,-3.1442,0.0,0.0,0.0,0.0,-3.2262,-3.2347,-3.2406,-3.1816,-3.1197,-3.0617,-3.0598,-3.0598,-3.0598,-3.0598,-3.0308,-2.9727,-3.0181,-2.9765,-2.8578,-2.8983,-2.8819,-2.8232,-2.8825,-2.8922,-2.8684,-2.8343,-2.8191,-2.8179,-2.8194,-2.8164,-2.8085,-2.8055,-2.8161,-2.8343,0.0,0.0,0.0,0.0,0.0,0.0,-2.8075,-2.8264,-2.8386,0.0,0.0,0.0,-2.8814,-2.8979,-2.9153,-2.9316,-2.9416,-2.9514,-2.9644,-2.9748,-2.9848,-2.9962,-2.9575,-2.923,-2.8977,-2.8867,0.0,0.0,0.0,0.0,0.0,0.0,0.0,-3.0637,-3.0678,-3.0711,-3.0743,-3.073,-3.0743,-3.0776,-3.1178,-3.1631,-3.2045,-3.1931,-3.2176,-3.2524,-3.1984,-3.1599,-3.1337,-3.1289,-3.0816,-3.0095,-2.9186,-2.8227,-2.727,-2.6477,-2.6357,-2.6257,-2.5235,-2.4774,-2.4517,-2.4321,0.0,0.0,-2.605,-2.7292,-2.8535,-2.9396,-3.0175,-3.0711,-3.0739,-3.0769,-3.078,-3.0701,-3.0676,-3.062,-3.05,-3.0244,-3.0371,-3.118,-3.1438,-3.1731,0.0,-3.2844,-3.3072,-3.2804,-3.2909,-3.2885,-3.256,-3.2087,-3.1429,-3.0636,-3.0598,-3.0598,-3.0598,-3.0636,-3.0424,-2.9988,-3.051,-3.0244,-2.9296,-2.9819,-2.9751,-2.9274,-2.9747,-2.995,-2.9892,-2.9411,-2.9201,-2.9201,-2.9233,-2.9198,-2.9138,-2.9108,-2.907,-2.907,0.0,0.0,0.0,-2.8353,-2.8482,-2.8578,-2.8578,-2.8737,-2.8845,0.0,0.0,-2.9235,-2.9418,-2.9495,-2.9644,-2.9823,-2.9836,-2.9902,-3.0053,-3.0161,-3.0228,-3.0241,-3.0348,-3.0067,-2.9368,-3.0042,0.0,0.0,0.0,0.0,0.0,0.0,0.0,0.0,0.0,-3.0742,-3.0808,-3.0799,-3.0862,-3.1003,-3.1797,-3.2178,-3.2372,-3.3125,-3.3353,-3.3287,-3.3122,-3.2592,-3.1936,-3.1816,-3.0804,-2.9484,-2.8708,-2.8403,-2.804,-2.6484,-2.6457,-2.6698,-2.566,-2.5197,-2.496,-2.4855,-2.465,0.0,-2.6684,-2.7141,-2.7719,-2.9585,-3.0121,-3.0278,-3.0355,-3.0389,-3.0386,-3.0342,-3.0354,-3.0405,-3.0491,-3.0157,-3.0227,-3.112,-3.1694,0.0,-3.2281,-3.3204,-3.3551,-3.2966,-3.3102,-3.2879,-3.2135,-3.2106,-3.1681,-3.0772,-3.0752,-3.0704,-3.0615,-3.0684,-3.0741,-3.0784,-3.0749,-3.0747,-3.081,-3.0798,-3.0767,-3.0711,-3.0704,-3.0694,-3.0684,-3.063,-3.062,-3.0613,-3.0661,-3.0658,-3.0598,-3.0598,-3.0598,-3.0598,0.0,0.0,-2.9446,-2.8877,-2.8887,-2.8984,-2.8975,-2.9104,-2.9251,-2.9338,-2.9476,-2.9625,-2.9713,-2.9832,-2.9946,-3.0037,-3.0147,-3.0253,-3.0318,-3.0348,-3.0394,-3.0436,-3.0519,-3.0462,-3.0249,-3.0453,-3.0403,0.0,0.0,0.0,0.0,0.0,0.0,0.0,0.0,-3.0794,-3.0799,-3.0802,-3.1201,-3.1866,-3.203,-3.2927,-3.4122,-3.3604,-3.3383,-3.3285,-3.2572,-3.1773,-3.1032,-3.0964,-3.0686,-3.035,-3.0193,-2.9715,-2.9184,-2.8845,-2.8828,-2.8587,-2.6927,-2.6331,-2.5984,-2.5234,-2.4927,0.0,-2.508,-2.5855,-2.6517,-2.6611,-2.7423,-2.8028,-2.7785,-2.7801,-2.7885,-2.8084,-2.86,-2.9333,-3.0366,-3.0157,-3.0435,-3.1879,-3.2128,0.0,-3.403,-3.4704,-3.4976,-3.485,-3.5039,-3.4773,-3.3944,-3.3944,-3.3267,-3.17,-3.169,-3.1382,-3.0695,-3.0754,-3.0756,-3.0712,-3.0769,-3.0784,-3.08,-3.0734,-3.0704,-3.0689,-3.0707,-3.0675,-3.0617,-3.0664,-3.0676,-3.0672,-3.0649,-3.0615,-3.0598,-3.0598,-3.0598,-3.0598,-3.0124,-3.0173,-3.001,-2.92,-2.9203,-2.9351,-2.9397,-2.9476,-2.9607,-2.9731,-2.9861,-2.9969,-3.0052,-3.0142,-3.0196,-3.026,-3.0348,-3.0402,-3.0455,-3.0471,-3.0501,-3.054,-3.0588,-3.0595,-3.0595,-3.064,-3.0657,0.0,0.0,0.0,0.0,0.0,0.0,0.0,-3.0793,-3.0806,-3.0824,-3.1253,-3.1955,-3.2752,-3.2754,-3.3483,-3.4589,-3.4598,-3.4568,-3.4423,-3.3929,-3.2947,-3.1903,-3.2012,-3.1699,-3.1255,-3.1325,-3.1052,-3.0536,-2.9736,-2.9483,-2.9156,-2.7842,-2.7425,-2.7226,-2.672,-2.6162,0.0,0.0,-2.6378,-2.652,-2.6749,-2.7284,-2.7612,-2.7291,-2.7245,-2.7344,-2.7657,-2.8281,-2.9048,-2.9889,-2.9994,-3.0297,-3.1118,-3.1493,0.0,-3.3486,-3.4286,-3.4962,-3.5514,-3.5631,-3.5317,-3.4447,-3.4457,-3.3692,-3.1971,-3.201,-3.161,-3.0704,-3.0779,-3.0779,-3.0704,-3.0729,-3.0733,-3.0694,-3.0694,-3.0684,-3.0656,-3.0649,-3.0636,-3.0598,-3.0636,-3.066,-3.0644,-3.0615,-3.0598,-3.0598,-3.0598,-3.0598,-3.0598,-3.0951,-3.0958,-3.077,-2.9744,-2.9756,-2.9888,-2.9789,-2.9817,-2.9915,-3.0052,-3.0343,-3.0547,-3.0578,-3.0806,-3.0945,-3.094,-3.1002,-3.0975,-3.0811,-3.0838,-3.0875,-3.0877,-3.0718,-3.0711,-3.0948,-3.0792,-3.071,-3.0711,0.0,0.0,0.0,0.0,0.0,-3.1045,-3.1051,-3.1139,-3.1352,-3.2053,-3.2842,-3.3652,-3.3652,-3.4117,-3.4866,-3.5543,-3.563,-3.5347,-3.5058,-3.4222,-3.3258,-3.3304,-3.2889,-3.2349,-3.2286,-3.222,-3.1864,-3.038,-2.9907,-2.9667,-2.8689,-2.8404,-2.8353,-2.8147,-2.748,-2.7086,0.0,0.0,0.0,-2.7434,-2.7439,-2.7226,-2.6958,-2.6853,-2.6878,-2.7165,0.0,0.0,0.0,-2.9178,0.0,-3.028,-3.0895,0.0,0.0,-3.3365,-3.4404,-3.5596,-3.5549,-3.522,-3.4679,-3.4709,-3.4021,-3.2464,-3.2368,-3.1916,-3.0985,-3.084,-3.0754,-3.0675,-3.0676,-3.0655,-3.0595,-3.0665,-3.0651,-3.0593,-3.0604,-3.0598,-3.0598,-3.0598,-3.0598,-3.0598,-3.0598,-3.0598,-3.0598,-3.0598,-3.0598,-3.0598,-3.3154,-3.3105,-3.2751,-3.1165,-3.0951,-3.0804,-3.0145,-3.0071,-3.0136,-3.0321,-3.1144,-3.1688,-3.1637,-3.2373,-3.2888,-3.2888,-3.2948,-3.2652,-3.1887,-3.1833,-3.1845,-3.1837,-3.1098,-3.1041,-3.1832,-3.1099,-3.0703,-3.07,0.0,0.0,0.0,0.0,0.0,-3.1952,-3.1953,-3.2383,-3.3116,-3.322,-3.3769,-3.455,-3.456,-3.5061,-3.5836,-3.5804,-3.5319,-3.4503,-3.3596,-3.3641,-3.4049,0.0,-3.3479,-3.3905,-3.3149,-3.2967,-3.2854,-3.1835,-3.1581,-3.127,-2.9621,-2.9187,-2.8989,-2.8287,-2.8013,-2.7906,-2.7831,0.0,-2.6564,-2.6423,0.0,-2.5076,-2.4809,0.0,0.0,-2.4703,-2.5271,0.0,-2.6077,-2.6783,-2.8261,-3.093,-3.1374,0.0,0.0,-3.2993,-3.387,-3.5496,-3.4958,-3.4833,-3.551,-3.5607,-3.524,-3.4309,-3.361,-3.2827,-3.1945,-3.1109,-3.0684,-3.0615,-3.0607,-3.0613,-3.0607,-3.0613,-3.0607,-3.0597,-3.0607,-3.0598,-3.0598,-3.0598,-3.0598,-3.0598,-3.0598,-3.0598,-3.0598,-3.0598,-3.0598,-3.0598,-3.3715,-3.3601,-3.3295,-3.2172,-3.2022,-3.1824,-3.1076,-3.0633,-3.0433,-3.0568,-3.095,-3.1382,-3.1859,-3.2723,-3.3255,-3.3269,-3.3757,-3.3685,-3.281,-3.2316,-3.2279,-3.2733,-3.1954,-3.1913,-3.2789,-3.2444,-3.2274,-3.2279,-3.1787,0.0,0.0,0.0,0.0,-3.2848,-3.2842,-3.3061,-3.3432,-3.3945,-3.4375,-3.4744,-3.5244,-3.5635,-3.5872,-3.5736,-3.536,-3.4854,-3.4513,-3.4301,-3.4217,0.0,-3.4406,0.0,0.0,-3.4265,-3.3828,-3.3479,-3.2996,-3.2435,-3.1661,-3.1119,-3.0737,0.0,0.0,0.0,-2.8798,0.0,-2.7421,0.0,0.0,0.0,0.0,0.0,0.0,0.0,-2.5705,-2.5881,0.0,0.0,-2.766,-2.8612,0.0,0.0,0.0,0.0,0.0,0.0,-3.4339,-3.4631,-3.4969,-3.5549,-3.5465,-3.4638,-3.4277,-3.3412,-3.2,-3.1584,-3.1139,-3.0598,-3.0598,-3.0606,-3.0591,-3.0606,-3.0598,-3.0598,-3.0598,-3.0598,-3.0598,-3.0598,-3.0598,-3.0598,-3.0598,-3.0598,-3.0598,-3.0598,-3.0598,-3.0598,-3.4306,-3.4173,-3.3922,-3.3184,-3.3111,-3.2929,-3.2185,-3.165,-3.1273,-3.1112,-3.1501,-3.1948,-3.2343,-3.3589,-3.4405,-3.4404,-3.519,-3.5324,-3.4452,-3.362,-3.3431,-3.4003,-3.279,-3.2619,-3.3731,-3.3293,-3.3166,-3.3405,-3.2764,0.0,0.0,0.0,0.0,0.0,-3.3763,-3.3885,-3.4141,-3.4784,-3.5053,-3.5105,-3.5725,-3.589,-3.5763,-3.5599,-3.5391,-3.5207,-3.5311,-3.4966,-3.4584,-3.5302,-3.5125,0.0,-3.5427,-3.5234,-3.47,-3.4514,-3.4001,-3.3403,-3.3089,0.0,0.0,0.0,0.0,0.0,0.0,0.0,0.0,0.0,0.0,0.0,0.0,0.0,-2.6524,-2.6518,0.0,-2.6062,-2.6002,-2.6563,-2.7077,0.0,0.0,0.0,0.0,0.0,0.0,0.0,0.0,0.0,-3.4157,-3.5025,-3.5232,-3.4625,-3.4587,-3.3817,-3.2261,-3.201,-3.1449,-3.0598,-3.0598,-3.0598,-3.0598,-3.0598,-3.0598,-3.0598,-3.0598,-3.0598,-3.0598,-3.0598,-3.0598,-3.0598,-3.0598,-3.0598,-3.0598,-3.0598,-3.0598,-3.0598,-3.5325,-3.535,-3.5086,-3.4282,-3.4272,-3.41,-3.3366,-3.3219,-3.2933,-3.2162,-3.3522,-3.4262,-3.3444,-3.5642,-3.7172,-3.7168,-3.7969,-3.8105,-3.7226,-3.6367,-3.5898,-3.5915,-3.3453,-3.291,-3.4629,-3.3012,-3.2547,-3.3407,-3.3365,0.0,0.0,0.0,0.0,0.0,-3.4654,-3.5128,-3.5918,-3.5957,-3.5951,-3.5958,-3.5914,-3.5827,-3.5676,0.0,-3.5326,-3.5209,-3.519,0.0,0.0,-3.5407,-3.5383,0.0,0.0,0.0,0.0,0.0,0.0,0.0,0.0,0.0,0.0,-3.1638,0.0,0.0,0.0,0.0,-2.9371,0.0,0.0,-2.8094,-2.8096,-2.796,-2.7505,-2.6477,-2.613,0.0,0.0,-2.504,-2.6226,-2.8301,0.0,0.0,0.0,0.0,0.0,0.0,0.0,0.0,-3.3295,-3.4105,-3.4563,-3.4603,-3.4543,-3.407,-3.3171,-3.2261,-3.141,-3.0598,-3.0598,-3.0598,-3.0598,-3.0598,-3.0598,-3.0598,-3.0598,-3.0598,-3.0598,-3.0598,-3.0598,-3.0598,-3.0598,-3.0598,-3.0598,-3.0598,-3.0598,-3.0598,-3.5538,-3.557,-3.5504,-3.5183,-3.5243,-3.5064,-3.4283,-3.3716,-3.3478,-3.3775,-3.433,-3.5022,-3.5888,-3.7297,-3.817,-3.8153,-3.8963,-3.9081,-3.8212,-3.7338,-3.6853,-3.6855,-3.5468,-3.4957,-3.5544,-3.4986,-3.4827,-3.5125,-3.4541,0.0,0.0,0.0,0.0,0.0,-3.5563,-3.5722,-3.5995,-3.5999,-3.5997,-3.5997,-3.5872,-3.5779,-3.5687,0.0,0.0,-3.5326,-3.5223,-3.5223,0.0,-3.5273,-3.533,-3.5405,-3.5445,-3.5512,-3.5562,-3.5281,-3.5243,0.0,0.0,0.0,-3.3419,-3.2763,0.0,0.0,0.0,0.0,0.0,0.0,0.0,0.0,0.0,-2.9737,-2.8782,-2.8462,-2.7276,-2.6259,0.0,-2.6323,-2.7217,-2.851,-2.8774,-2.9147,0.0,0.0,0.0,0.0,0.0,0.0,0.0,-3.3782,-3.4559,-3.4524,-3.5027,-3.4601,-3.3151,-3.2822,-3.1971,-3.0598,-3.0598,-3.0598,-3.0598,-3.0598,-3.0598,-3.0598,-3.0598,-3.0598,-3.0598,-3.0598,-3.0598,-3.0598,-3.0598,-3.0598,-3.0598,-3.0598,-3.0598,-3.0598,-3.5658,-3.5737,-3.5745,-3.5689,-3.576,-3.5671,-3.5173,-3.4896,-3.4846,-3.5127,-3.5689,-3.6247,-3.6782,-3.789,-3.8593,-3.8604,-3.9394,-3.9782,-3.9515,-3.8405,-3.7899,-3.8213,-3.6498,-3.5975,-3.6894,-3.6013,-3.5849,-3.6469,-3.5589,-3.5445,0.0,0.0,0.0,0.0,-3.5996,-3.5995,-3.5992,-3.5996,-3.5997,-3.5986,-3.5878,-3.5813,0.0,0.0,-3.5546,-3.5432,0.0,-3.5311,-3.5266,-3.5266,-3.5296,-3.534,-3.5378,-3.5451,-3.5546,-3.5579,-3.565,-3.5688,-3.5669,-3.5085,0.0,-3.3723,-3.2957,0.0,-3.1593,0.0,-3.1676,0.0,0.0,0.0,0.0,-3.0898,-2.9801,-2.951,-2.841,-2.747,0.0,-2.7591,-2.8243,-2.8779,-2.8886,-2.9089,-2.9624,0.0,0.0,0.0,0.0,0.0,0.0,0.0,-3.4137,-3.4088,-3.5123,-3.5007,-3.3576,-3.3237,-3.2396,-3.1023,-3.0733,-3.0598,-3.0598,-3.0598,-3.0598,-3.0598,-3.0598,-3.0598,-3.0598,-3.0598,-3.0598,-3.0598,-3.0598,-3.0598,-3.0598,-3.0598,-3.0598,-3.0636,-3.5803,-3.5857,-3.5879,-3.5826,-3.5858,-3.5938,-3.6056,-3.6711,-3.6969,-3.6289,-3.7572,-3.7987,-3.6425,-3.7695,-3.8652,-3.8652,-3.9411,-4.0228,-4.099,-3.9593,-3.9078,-3.9858,-3.6674,-3.603,-3.8475,-3.6052,-3.5586,-3.7246,-3.6406,-3.5996,0.0,0.0,0.0,-3.5996,-3.5993,-3.5991,-3.6009,-3.6004,-3.599,-3.5997,-3.5938,-3.5899,-3.5883,-3.5753,-3.5621,-3.5519,-3.5577,-3.5519,-3.5405,-3.5405,-3.5326,-3.5223,-3.535,-3.5405,-3.5432,-3.5554,-3.5641,-3.5696,-3.563,-3.5096,-3.454,-3.4429,0.0,0.0,0.0,0.0,-3.3317,0.0,0.0,0.0,0.0,0.0,-3.0565,-2.9617,-2.9439,-2.9071,-2.8113,-2.8686,-2.919,-2.9168,-2.9576,-2.9896,-3.0004,-3.0142,0.0,0.0,0.0,-3.0748,0.0,0.0,-3.3326,-3.3293,-3.4823,-3.524,-3.4408,-3.3538,-3.2657,-3.1797,-3.0984,-3.0598,-3.0598,-3.0598,-3.0598,-3.0588,-3.0598,-3.0598,-3.0588,-3.0598,-3.0598,-3.0598,-3.0598,-3.0598,-3.0598,-3.0598,-3.0636,-3.0772,-3.5872,-3.5928,-3.5977,-3.5943,-3.5955,-3.6205,-3.6852,-3.7133,-3.7672,-3.8769,-3.9277,-3.9608,-3.9774,-3.9654,-3.9578,-3.9578,-3.9769,-3.9981,-4.0196,-4.0369,-4.0268,-3.9839,-3.8394,-3.7614,-3.7633,-3.6331,-3.5893,-3.6328,-3.6113,-3.5996,-3.5996,0.0,-3.5995,-3.6003,-3.5999,-3.5994,-3.6007,-3.6007,-3.6001,-3.599,-3.5934,-3.5908,-3.5898,0.0,-3.5833,-3.5791,-3.5649,-3.5585,-3.5543,-3.5543,-3.5457,-3.535,-3.5391,-3.5405,-3.5432,-3.5554,-3.5641,-3.5729,-3.5806,-3.5684,-3.5373,-3.4661,-3.433,-3.3981,0.0,0.0,0.0,0.0,0.0,0.0,0.0,0.0,0.0,-3.0599,-2.9902,-2.9366,-2.9055,-2.9203,-2.9581,-3.0203,-3.0406,-3.043,-3.0317,-3.0463,0.0,0.0,0.0,0.0,0.0,0.0,0.0,-3.3208,-3.4207,-3.4621,-3.4389,-3.3538,-3.2657,-3.1797,-3.0984,-3.0598,-3.0598,-3.0598,-3.055,-3.0449,-3.055,-3.055,-3.0449,-3.0559,-3.0598,-3.0598,-3.0598,-3.0598,-3.0598,-3.0598,-3.0984,-3.1526,-3.6391,-3.6514,-3.6573,-3.6565,-3.6575,-3.6734,-3.7237,-3.7616,-3.8359,-3.9726,-3.9899,-3.9932,-3.9998,-3.9256,-3.8768,-3.8768,-3.8765,-3.9078,-3.9819,-3.9956,-4.0112,-4.0366,-3.9234,-3.8707,-3.8961,-3.775,-3.7133,-3.7144,-3.6757,-3.6367,-3.5992,-3.5992,-3.6009,-3.6001,-3.5996,-3.6007,-3.6004,-3.6004,-3.5997,-3.5986,-3.5934,-3.5894,0.0,-3.5903,-3.5897,-3.5898,-3.5768,-3.5697,-3.5641,-3.5641,-3.5568,-3.5483,-3.5483,-3.5483,-3.5495,-3.5585,-3.5641,-3.5729,-3.5794,-3.5866,-3.5766,-3.5243,-3.5107,-3.4971,-3.4443,-3.4345,-3.4515,0.0,0.0,0.0,0.0,0.0,0.0,-3.095,-3.0392,-2.9919,-2.9491,-2.9765,-3.0057,-3.0164,-3.0497,-3.0665,-3.0544,0.0,0.0,0.0,0.0,0.0,0.0,0.0,0.0,-3.3184,-3.4352,-3.4969,-3.4969,-3.4098,-3.3228,-3.2348,-3.1486,-3.0877,-3.051,-3.0488,-3.0447,-3.0398,-3.049,-3.0693,-3.1011,-3.1081,-3.1352,-3.17,-3.17,-3.17,-3.17,-3.17,-3.1739,-3.1913,-3.7203,-3.7414,-3.7471,-3.7461,-3.746,-3.7479,0.0,-3.8103,0.0,-3.978,0.0,-3.9449,-3.869,-3.7828,-3.7301,-3.7301,-3.7399,-3.8082,-3.9546,-3.9195,-3.9585,-4.103,-3.9605,-3.9429,-4.0893,-3.939,-3.8534,-3.8436,-3.7672,-3.6852,-3.5996,-3.5994,-3.5999,-3.6009,-3.5999,-3.5991,-3.5991,-3.6004,-3.5994,-3.5981,-3.5914,-3.5899,-3.5908,-3.5908,-3.5908,-3.5908,-3.5908,-3.5833,-3.5737,-3.5737,-3.5678,-3.5609,-3.5609,-3.5618,-3.5588,-3.5609,-3.565,-3.5702,-3.571,-3.5807,-3.5908,-3.5908,-3.5908,-3.5908,-3.5908,-3.5908,-3.5908,-3.5908,-3.531,-3.451,0.0,0.0,0.0,-3.1252,-3.1137,-3.0863,-3.0118,-3.0557,-3.0671,-2.9929,-3.0348,0.0,0.0,0.0,0.0,0.0,0.0,0.0,0.0,0.0,0.0,-3.3198,-3.4591,0.0,-3.5684,0.0,-3.3953,-3.3062,-3.2146,-3.1234,-3.0394,-3.0445,-3.0439,-3.0394,-3.0521,-3.1039,-3.1796,-3.1806,-3.2309,-3.3102,-3.3102,-3.3102,-3.3102,-3.3218,-3.2803,-3.2358,-3.8231,-3.8338,-3.8379,-3.8376,-3.8368,-3.8361,-3.8378,-3.8498,-3.891,-3.9786,-3.9276,-3.8765,-3.8612,-3.7828,-3.7301,-3.7301,-3.7965,-3.8492,-3.8785,-3.9976,-4.0795,-4.1088,-4.0132,-3.9722,-4.0015,-3.9097,-3.8258,-3.7536,-3.7372,-3.685,-3.6009,0.0,-3.5994,-3.5996,-3.5994,-3.6007,-3.6001,-3.6001,0.0,-3.5914,-3.589,-3.5899,-3.5908,-3.5908,-3.5908,-3.5908,-3.5908,-3.5883,-3.5852,-3.5852,-3.5787,-3.5676,-3.5676,-3.5641,-3.5609,-3.5669,-3.5685,-3.571,-3.584,-3.5883,-3.5908,-3.5908,-3.5908,-3.5908,-3.5908,-3.5908,-3.5908,-3.5908,-3.5778,-3.5405,-3.4549,0.0,0.0,0.0,0.0,0.0,0.0,-3.2182,-3.1746,-3.1657,-3.1086,-3.0711,0.0,0.0,0.0,0.0,0.0,0.0,0.0,0.0,0.0,0.0,-3.343,0.0,0.0,0.0,-3.392,-3.2928,-3.2112,-3.121,-3.0337,-3.0983,-3.0925,-3.0356,-3.1141,-3.1573,-3.1722,-3.1786,-3.2309,-3.3102,-3.3102,-3.3102,-3.3179,-3.3905,-3.4079,-3.3982,-3.8584,-3.8925,-3.9268,-3.9264,-3.8905,0.0,0.0,-3.8473,-3.8238,-3.9117,-3.8473,-3.7926,-3.7926,-3.7145,-3.6638,-3.6638,-3.7009,-3.7633,-3.8534,-3.9354,-4.019,-4.1049,-4.0698,-4.0464,-4.0464,-3.9644,-3.8804,-3.7965,0.0,0.0,0.0,0.0,-3.5991,-3.5991,-3.6007,-3.6004,-3.5997,0.0,0.0,-3.5909,-3.5899,-3.5894,-3.5908,-3.5908,-3.5908,-3.5908,-3.5908,-3.5908,-3.5908,-3.5908,-3.5872,-3.5801,-3.5801,-3.5779,-3.5757,-3.5794,-3.5801,-3.5827,-3.5883,-3.5908,-3.5908,-3.5908,-3.5908,-3.5908,-3.5908,-3.5908,-3.5908,-3.5908,-3.5904,-3.5636,-3.4762,-3.3916,0.0,0.0,0.0,0.0,0.0,-3.296,-3.2532,-3.2157,-3.1681,-3.1202,-3.0739,0.0,0.0,-3.1274,-3.1574,0.0,0.0,0.0,0.0,0.0,0.0,0.0,0.0,0.0,0.0,-3.357,-3.3094,-3.2359,-3.1499,-3.1821,-3.1783,-3.1518,-3.1976,-3.2434,-3.2942,-3.3485,-3.4017,-3.4447,-3.4447,-3.4447,-3.4505,-3.4911,-3.5065,-3.5065,-3.9165,-3.9648,-4.0103,-3.9906,-3.9315,-3.8961,-3.9234,-3.8141,-3.7555,-3.8238,-3.7555,-3.7028,-3.7028,-3.6404,-3.5991,-3.5991,-3.6169,-3.6852,-3.8238,-3.8495,-3.9273,-4.0756,-4.0815,-4.0815,-4.0815,-4.0327,-3.9507,0.0,0.0,0.0,0.0,0.0,0.0,0.0,0.0,0.0,0.0,0.0,-3.5909,-3.5904,-3.5894,-3.5908,-3.5908,-3.5908,-3.5908,-3.5908,-3.5908,-3.5908,-3.5908,-3.5908,-3.5908,-3.5908,-3.5908,-3.5908,-3.5908,-3.5908,-3.5908,-3.5908,-3.5908,-3.5908,-3.5908,-3.5908,-3.5908,-3.5908,-3.5908,-3.5908,-3.5908,-3.5908,-3.5908,-3.5688,-3.5003,-3.4319,0.0,0.0,0.0,0.0,0.0,0.0,-3.3245,-3.242,-3.2128,-3.1623,-3.0743,0.0,0.0,0.0,0.0,0.0,0.0,0.0,0.0,0.0,0.0,-3.4716,-3.5553,0.0,-3.5007,0.0,-3.398,-3.3334,-3.2295,-3.2555,-3.2571,-3.2362,-3.2705,-3.3314,-3.4117,-3.5123,-3.5608,-3.5704,-3.5704,-3.5704,-3.5704,-3.5704,-3.5704,-3.5704,-4.0779,-4.0893,-4.0741,0.0,0.0,-3.9195,-3.775,-3.7399,-3.7321,-3.7419,-3.6657,-3.613,-3.613,-3.6049,-3.5991,-3.5991,-3.6716,-3.7243,-3.7419,-3.816,-3.9,-3.9878,-3.9917,-3.9917,-3.9917,-4.062,-3.98,0.0,0.0,-3.7633,0.0,0.0,0.0,0.0,0.0,0.0,0.0,-3.589,-3.5904,-3.5889,-3.5908,-3.5908,-3.5908,-3.5908,-3.5908,-3.5908,-3.5908,-3.5908,-3.5908,-3.5908,-3.5908,-3.5908,-3.5908,-3.5908,-3.5908,-3.5908,-3.5908,-3.5908,-3.5908,-3.5908,-3.5908,-3.5908,-3.5908,-3.5908,-3.5908,-3.5908,-3.5908,-3.5908,-3.5908,-3.5889,-3.5791,-3.5713,-3.5651,0.0,0.0,0.0,0.0,0.0,-3.407,-3.3199,-3.2396,-3.1534,-3.0617,-3.1078,0.0,0.0,-3.2015,0.0,0.0,0.0,0.0,-3.282,0.0,-3.4346,-3.5155,-3.5266,0.0,-3.3849,-3.3884,-3.2999,-3.1381,-3.288,-3.2817,-3.1581,-3.3048,-3.3895,-3.4257,-3.5272,-3.5704,-3.5704,-3.5704,-3.5704,-3.5704,-3.5704,-3.5704,-3.5704,0.0,0.0,0.0,0.0,0.0,0.0,0.0,-3.6852,-3.6521,-3.6521,-3.6228,-3.5991,-3.5991,-3.5991,-3.5991,-3.5991,-3.6325,-3.6735,-3.7262,-3.7633,-3.8199,-3.9039,-3.9078,-3.9078,-3.9078,-3.8902,-3.8316,0.0,0.0,0.0,0.0,0.0,0.0,0.0,0.0,-3.7488,-3.742,-3.6899,-3.6674,-3.6629,-3.6103,-3.5908,-3.5908,-3.5908,-3.5908,-3.5908,-3.5908,-3.5908,-3.5908,-3.5908,-3.5908,-3.5908,-3.5908,-3.5908,-3.5908,-3.5908,-3.5908,-3.5908,-3.5908,-3.5908,-3.5908,-3.5908,-3.5908,-3.5908,-3.5908,-3.5908,-3.5908,-3.5908,-3.5908,-3.5908,-3.5908,-3.5879,-3.583,0.0,0.0,0.0,0.0,0.0,-3.4187,-3.3354,-3.2493,-3.1594,-3.0656,-3.1517,0.0,0.0,0.0,0.0,0.0,0.0,0.0,-3.4034,0.0,-3.4576,-3.5866,-3.5403,-3.4966,-3.4575,-3.4542,-3.411,-3.3449,-3.4112,-3.4092,-3.3539,-3.4185,-3.4606,-3.4894,-3.5295,-3.554,-3.5704,-3.5704,-3.5704,-3.5704,-3.5704,-3.5704,-3.5704,-3.9312,0.0,-3.8393,0.0,-3.7596,-3.7128,-3.6925,-3.6389,-3.5991,-3.5991,-3.5991,-3.5991,-3.5991,-3.5991,-3.5991,-3.5991,-3.5991,-3.6267,-3.6872,-3.6911,-3.7301,-3.818,-3.8219,0.0,-3.8219,-3.7867,-3.7555,-3.7301,-3.7301,0.0,0.0,0.0,0.0,0.0,-3.7636,-3.7741,-3.7698,-3.7074,-3.683,-3.6766,-3.6142,-3.5908,-3.5908,-3.5908,-3.5908,-3.5908,-3.5908,-3.5908,-3.5908,-3.5908,-3.5908,-3.5908,-3.5908,-3.5908,-3.5908,-3.5908,-3.5908,-3.5908,-3.5908,-3.5908,-3.5908,-3.5908,-3.5908,-3.5908,-3.5908,-3.5908,-3.5908,-3.5908,-3.5908,-3.5908,-3.5908,-3.5853,-3.5823,-3.5799,0.0,0.0,0.0,-3.4988,0.0,-3.3344,-3.2464,-3.1594,-3.0694,-3.1618,0.0,0.0,0.0,0.0,0.0,0.0,0.0,0.0,0.0,0.0,0.0,-3.5339,-3.5035,-3.5035,-3.4964,-3.4775,-3.4548,-3.4548,-3.468,-3.4889,-3.4926,-3.5088,-3.5296,-3.5345,-3.5502,-3.5704,-3.5704,-3.5704,-3.5704,-3.5704,-3.5704,-3.5704,-3.8402,-3.8422,-3.8135,-3.7272,-3.7151,-3.6914,-3.6055,-3.5968,-3.5991,-3.5991,-3.5991,-3.5991,-3.5991,-3.5991,-3.5991,-3.5991,-3.5991,-3.5991,-3.601,-3.601,-3.6404,0.0,0.0,-3.7321,-3.7321,-3.8141,-3.816,-3.7301,0.0,0.0,-3.7262,0.0,-3.6476,-3.725,-3.6411,-3.599,-3.5929,-3.5929,-3.5919,-3.5908,-3.5908,-3.5908,-3.5908,-3.5908,-3.5908,-3.5908,-3.5908,-3.5908,-3.5908,-3.5908,-3.5908,-3.5908,-3.5908,-3.5908,-3.5908,-3.5908,-3.5908,-3.5908,-3.5908,-3.5908,-3.5908,-3.5908,-3.5908,-3.5908,-3.5908,-3.5908,-3.5908,-3.5908,-3.5908,-3.5908,-3.5908,-3.5908,-3.5885,-3.5807,0.0,0.0,0.0,-3.4949,0.0,-3.3198,-3.2328,-3.1487,-3.0675,-3.1145,0.0,0.0,0.0,0.0,0.0,0.0,0.0,-3.4002,-3.459,0.0,-3.4925,-3.4908,-3.4889,-3.4889,-3.4908,-3.4472,-3.3714,-3.3714,-3.415,-3.4908,-3.5035,-3.5171,-3.5315,-3.5443,-3.5584,-3.5704,-3.5704,-3.5704,-3.5704,-3.5704,-3.5704,-3.5704,-3.7499,-3.7047,-3.6559,-3.6312,-3.6309,-3.6225,-3.5937,-3.5917,-3.5951,-3.5994,-3.5991,-3.5991,-3.5991,-3.5991,-3.5991,0.0,-3.5991,-3.5991,0.0,-3.5991,-3.613,-3.6404,-3.6404,-3.6404,-3.6404,-3.6696,-3.6693,-3.6414,0.0,0.0,0.0,-3.7827,-3.7847,-3.8116,-3.7839,-3.7693,-3.7625,-3.703,-3.6791,-3.6727,-3.6142,-3.5908,-3.5908,-3.5908,-3.5908,-3.5908,-3.5908,-3.5908,-3.5908,-3.5908,-3.5908,-3.5908,-3.5908,-3.5908,-3.5908,-3.5908,-3.5908,-3.5908,-3.5908,-3.5908,-3.5908,-3.5908,-3.5908,-3.5908,-3.5908,-3.5908,-3.5899,-3.5903,-3.5909,-3.5908,-3.5908,-3.5891,-3.5878,-3.5807,-3.5773,0.0,0.0,0.0,-3.3634,-3.3944,-3.2687,-3.1932,0.0,-3.2851,0.0,0.0,0.0,0.0,0.0,0.0,0.0,0.0,-3.5022,0.0,-3.5642,-3.5135,-3.4908,-3.4908,-3.4908,-3.4775,-3.4529,-3.4529,-3.4661,-3.4889,-3.4964,-3.5035,-3.5171,-3.5296,-3.5443,-3.5565,-3.5662,-3.5704,-3.5704,-3.5704,-3.5704,-3.5704,-3.6606,-3.6168,-3.5815,-3.5866,-3.5872,-3.5899,-3.5891,-3.5898,-3.5917,-3.5996,-3.5991,-3.5991,-3.5991,-3.5991,0.0,-3.5991,-3.5991,-3.5991,-3.5991,-3.5991,-3.5991,-3.5991,-3.5991,-3.5991,-3.5991,0.0,0.0,-3.6489,-3.7012,-3.7515,-3.8014,-3.7702,-3.7722,-3.7995,-3.7698,-3.7552,-3.7488,-3.6932,-3.6713,-3.6668,-3.6123,-3.5908,-3.5908,-3.5908,-3.5908,-3.5908,-3.5908,-3.5908,-3.5908,-3.5908,-3.5908,-3.5908,-3.5908,-3.5908,-3.5908,-3.5908,-3.5908,-3.5908,-3.5908,-3.5908,-3.5908,-3.5908,-3.5908,-3.5894,-3.5909,-3.5899,-3.5899,-3.5896,-3.5895,-3.5908,-3.5908,-3.5897,-3.5885,-3.5807,-3.5754,-3.5728,-3.5695,0.0,-3.3789,0.0,0.0,0.0,0.0,-3.3439,-3.3743,0.0,0.0,0.0,0.0,0.0,0.0,-3.5589,-3.5192,0.0,-3.5665,-3.5173,-3.4908,-3.4908,-3.4908,-3.4908,-3.4908,-3.4908,-3.4908,-3.4908,-3.4908,-3.4963,-3.5105,-3.5235,-3.5388,-3.5515,-3.5651,-3.5704,-3.5704,-3.5704,-3.5704,-3.5704,-3.5791,-3.5799,0.0,0.0,-3.584,0.0,-3.5907,-3.5891,-3.5918,-3.5979,-3.5996,-3.5994,-3.5994,-3.5991,-3.5991,-3.5991,0.0,0.0,0.0,-3.5991,-3.5991,-3.5991,-3.5991,-3.5991,-3.5991,-3.5991,-3.6398,-3.7214,-3.7207,-3.7203,-3.7184,-3.6438,-3.6473,-3.716,-3.6356,-3.5958,-3.5909,-3.5909,-3.5899,-3.5908,-3.5908,-3.5908,-3.5908,-3.5908,-3.5908,-3.5908,-3.5908,-3.5908,-3.5908,-3.5908,-3.5908,-3.5908,-3.5908,-3.5908,-3.5908,-3.5908,-3.5908,-3.5908,-3.5908,-3.5908,-3.5908,-3.5908,-3.5894,-3.5904,-3.5919,-3.5899,-3.5904,-3.5919,-3.5899,-3.5908,-3.5908,-3.5908,-3.5891,-3.5815,-3.5799,-3.5784,-3.5706,0.0,-3.4408,0.0,0.0,0.0,0.0,-3.3276,-3.3604,0.0,0.0,0.0,0.0,0.0,-3.4944,-3.5251,-3.5155,-3.5088,-3.5088,-3.4963,-3.4908,-3.4908,-3.4908,-3.4908,-3.4908,-3.4908,-3.4908,-3.4908,-3.4908,-3.4963,-3.5105,-3.5219,-3.5374,-3.5502,-3.562,-3.5684,-3.5704,-3.5704,-3.5704,-3.5704,0.0,0.0,-3.5799,-3.5799,-3.5815,-3.5833,-3.588,-3.5899,-3.591,-3.5918,-3.5917,-3.5933,-3.5994,-3.5991,-3.5991,-3.5991,-3.5991,-3.5991,-3.5991,-3.5991,-3.5991,-3.5991,-3.5991,-3.5991,-3.5991,-3.6007,-3.6102,-3.6303,-3.6916,-3.7194,-3.7194,-3.6999,-3.7028,-3.7164,-3.6304,-3.5919,-3.5894,-3.5894,-3.5894,-3.5908,-3.5908,-3.5908,-3.5908,-3.5908,-3.5908,-3.5908,-3.5908,-3.5908,-3.5908,-3.5908,-3.5908,-3.5908,-3.5908,-3.5908,-3.5908,-3.5908,-3.5908,-3.5908,-3.5908,-3.5908,-3.5908,-3.5908,-3.5895,-3.5919,-3.5962,-3.5932,-3.59,-3.5964,-3.5935,-3.5908,-3.5908,-3.5908,-3.5897,-3.5872,-3.5842,-3.5773,-3.5718,-3.4942,0.0,0.0,-3.4621,-3.435,-3.5027,-3.5085,-3.5098,0.0,0.0,0.0,0.0,-3.487,-3.4869,-3.4982,-3.4963,-3.4945,-3.4945,-3.4927,-3.4908,-3.4908,-3.4908,-3.4908,-3.4908,-3.4908,-3.4908,-3.4908,-3.4908,-3.4927,-3.4945,-3.5088,-3.5219,-3.536,-3.5483,-3.5608,-3.5704,-3.5704,-3.5704,-3.5704,-3.5791,-3.5799,-3.5799,-3.5799,-3.5799,-3.5823,-3.5897,-3.5908,-3.5899,-3.589,-3.5893,-3.5916,-3.5957,-3.5957,-3.5957,-3.5957,-3.5954,-3.5966,-3.5994,-3.5972,-3.5956,-3.595,-3.5956,-3.5957,-3.5957,-3.5956,-3.5955,-3.5953,-3.6384,-3.6618,-3.6654,-3.6645,-3.6635,-3.6583,-3.6118,-3.5904,-3.5908,-3.5908,-3.5908,-3.5908,-3.5908,-3.5908,-3.5908,-3.5908,-3.5908,-3.5908,-3.5908,-3.5908,-3.5908,-3.5908,-3.5908,-3.5908,-3.5908,-3.5908,-3.5908,-3.5908,-3.5908,-3.5908,-3.5908,-3.5908,-3.5908,-3.5908,-3.5899,-3.5929,-3.5987,-3.596,-3.5929,-3.5989,-3.5939,-3.5908,-3.5908,-3.5908,-3.5897,-3.5905,-3.5842,-3.5782,-3.5718,-3.5301,0.0,-3.5646,-3.5278,-3.5182,-3.5646,-3.5704,-3.5631,-3.5489,0.0,0.0,-3.5083,-3.4982,-3.4927,-3.4908,-3.4908,-3.4908,-3.4908,-3.4908,-3.4908,-3.4908,-3.4908,-3.4908,-3.4908,-3.4908,-3.4908,-3.4908,-3.4908,-3.4926,-3.5,-3.5138,-3.5266,-3.5402,-3.554,-3.5639,-3.5704,-3.5704,-3.5704,-3.5704,-3.5799,-3.5799,-3.5799,-3.5799,-3.5799,-3.5823,-3.5885,-3.5878,-3.5894,-3.5903,-3.5907,-3.591,-3.5893,-3.5893,-3.5893,-3.5893,-3.5891,-3.5918,-3.5986,-3.5934,-3.5906,-3.5898,-3.5906,-3.5893,-3.5893,-3.5893,-3.5903,-3.5896,-3.5917,-3.5937,-3.5995,-3.5994,-3.5968,-3.5913,-3.5929,-3.5916,-3.5909,-3.5899,-3.5899,-3.5899,-3.5894,-3.5908,-3.5908,-3.5908,-3.5908,-3.5908,-3.5908,-3.5908,-3.5908,-3.5908,-3.5908,-3.5908,-3.5908,-3.5908,-3.5889,-3.5899,-3.5899,-3.5899,-3.5889,-3.5894,-3.5899,-3.5904,-3.5916,-3.5899,-3.5815,-3.5867,-3.5896,-3.5813,-3.5861,-3.5908,-3.5908,-3.5908,-3.5897,-3.5905,-3.5842,-3.5782,-3.5718,0.0,-3.5704,-3.5704,-3.5704,-3.5704,-3.5704,-3.5704,-3.5704,-3.5704,-3.5572,-3.5416,0.0,-3.5155,-3.5018,-3.4889,-3.4908,-3.4908,-3.4908,-3.4908,-3.4908,-3.4908,-3.4908,-3.4908,-3.4908,-3.4908,-3.4908,-3.4908,-3.4908,-3.4963,-3.5105,-3.5219,-3.5374,-3.5515,-3.5639,-3.5673,-3.5704,-3.5704,-3.5704,-3.5704,-3.5799,-3.5799,-3.5799,-3.5799,-3.5799,-3.5799,-3.5815,-3.5815,-3.5845,-3.5894,-3.5899,-3.5899,-3.589,-3.5893,-3.5893,-3.5893,-3.5892,-3.5892,-3.5906,-3.5918,-3.5896,-3.5901,-3.5896,-3.5893,-3.5893,-3.5893,-3.5899,-3.5909,-3.5962,-3.5979,-3.6001,-3.5994,-3.5996,-3.5976,-3.5972,-3.5987,-3.5984,-3.5926,-3.5896,-3.5892,-3.5904,-3.5908,-3.5908,-3.5908,-3.5908,-3.5908,-3.5908,-3.5908,-3.5908,-3.5908,-3.5908,-3.5908,-3.5908,-3.5908,-3.5894,-3.5908,-3.5896,-3.5908,-3.5899,-3.5895,-3.5903,-3.5962,-3.5973,-3.5781,-3.5078,-3.5467,-3.5773,-3.5052,-3.5431,-3.5908,-3.5908,-3.5908,-3.5897,-3.5905,-3.5842,-3.5782,-3.5718,0.0,-3.5704,-3.5704,-3.5704,-3.5704,-3.5704,-3.5704,-3.5704,-3.5704,-3.5476,-3.5311,-3.5315,-3.507,-3.4908,-3.4908,-3.4908,-3.4908,-3.4908,-3.4908,-3.4908,-3.4908,-3.4908,-3.4908,-3.4908,-3.4908,-3.4908,-3.4908,-3.4908,-3.4963,-3.5105,-3.5122,-3.5281,-3.5496,-3.5528,-3.5596,-3.5704,-3.5704,-3.5704,-3.5704,-3.51,-3.5488,-3.5799,-3.5799,-3.5799,-3.5799,-3.5799,-3.5799,-3.5807,-3.5852,-3.5852,-3.5846,-3.5858,-3.5858,-3.5858,-3.5858,-3.5853,-3.5846,-3.5858,-3.5858,-3.5855,-3.5903,-3.5875,-3.5858,-3.5858,-3.5858,-3.586,-3.5896,-3.5927,-3.5955,-3.5994,-3.6001,-3.5991,-3.5995,-3.5996,-3.5995,-3.5991,-3.5964,-3.5935,-3.59,-3.5908,-3.5909,-3.5908,-3.5908,-3.5908,-3.5908,-3.5908,-3.5908,-3.5908,-3.5908,-3.5908,-3.5894,-3.5895,-3.5899,-3.5908,-3.5935,-3.594,-3.596,-3.5949,-3.5955,-3.5845,-3.5403,-3.5293,-3.5194,-3.4784,-3.5019,-3.5312,-3.5386,-3.5676,-3.5895,-3.5894,-3.5908,-3.5903,-3.5891,-3.5838,0.0,0.0,-3.5718,-3.5704,-3.5704,-3.5704,-3.5704,-3.5704,-3.5704,-3.5704,-3.5704,-3.5584,-3.5443,-3.5315,-3.5187,-3.5053,-3.4889,-3.4908,-3.4908,-3.4908,-3.4908,-3.4908,-3.4908,-3.4908,-3.4908,-3.4889,-3.4963,-3.4963,-3.4908,-3.5053,-3.5155,-3.5203,-3.5281,-3.543,-3.5608,-3.5608,-3.5651,-3.5704,-3.5704,-3.5394,-3.4988,-3.475,-3.5177,-3.5566,-3.576,-3.5799,-3.5799,-3.5799,-3.5799,-3.5799,-3.5799,-3.5799,-3.5799,-3.5799,-3.5799,-3.5799,-3.5799,-3.5799,-3.5799,-3.5799,-3.5799,-3.5823,-3.5866,-3.583,-3.5799,-3.5799,-3.5826,-3.5845,-3.5897,-3.5894,-3.5938,-3.5988,-3.5991,-3.6001,-3.5992,-3.5992,-3.5995,-3.5996,-3.5995,-3.597,-3.5918,-3.5913,-3.5916,-3.5904,-3.5914,-3.5914,-3.5904,-3.5904,-3.5909,-3.5914,-3.5904,-3.5909,-3.5923,-3.5926,-3.5913,-3.5935,-3.5972,-3.5995,-3.5957,-3.5741,-3.5701,-3.5486,-3.4628,-3.4394,-3.439,-3.439,-3.4549,-3.4883,-3.5562,-3.5818,-3.5903,-3.5894,-3.5908,-3.5908,-3.5903,0.0,0.0,0.0,-3.5728,-3.5704,-3.5704,-3.5704,-3.5704,-3.5704,-3.5704,-3.5704,-3.5704,-3.5651,-3.5515,-3.5315,-3.5266,-3.5155,-3.4945,-3.4927,-3.4908,-3.4908,-3.4926,-3.4926,-3.4908,-3.4926,-3.4945,-3.4945,-3.5053,-3.5053,-3.5,-3.5203,-3.533,-3.534,-3.5457,-3.5584,-3.5704,-3.5704,-3.5568,-3.5394,-3.5394,-3.4853,-3.4098,-3.5546,-3.5119,-3.4847,-3.5663,-3.5799,-3.5799,-3.5799,-3.5799,-3.5799,-3.5799,-3.5799,-3.5799,-3.5799,-3.5799,-3.5799,-3.5799,-3.5799,-3.5799,-3.5799,-3.5799,-3.5799,-3.5807,-3.5799,-3.5799,-3.5799,-3.5857,-3.5898,-3.5905,-3.5904,-3.5908,-3.5908,-3.5965,-3.5994,-3.5994,-3.5994,-3.5996,-3.5999,-3.5993,-3.5995,-3.5996,-3.5993,-3.596,-3.5903,-3.5964,-3.596,-3.59,-3.59,-3.5935,-3.5986,-3.5926,-3.5935,-3.5989,-3.5989,-3.5989,-3.5992,-3.5996,-3.6009,-3.5825,-3.5017,-3.4804,-3.4588,-3.3717,-3.3498,-3.3495,-3.3495,-3.412,-3.4721,-3.4778,-3.5373,-3.5894,-3.5908,-3.5908,-3.5903,-3.5892,0.0,0.0,-3.5718,-3.5707,-3.5704,-3.5704,-3.5704,-3.5704,-3.5704,-3.5704,-3.5704,-3.5704,-3.5476,-3.533,-3.5315,-3.5187,-3.5105,-3.5088,-3.4963,-3.4908,-3.4908,-3.5018,-3.5018,-3.4889,-3.5018,-3.5088,-3.5088,-3.5105,-3.5155,-3.5266,-3.5281,-3.5374,-3.5502,-3.5502,-3.5584,-3.5704,-3.5704,-3.5201,-3.4505,-3.4505,-3.3944,-3.3198,-3.339,-3.3604,-3.3856,-3.4187,-3.4245,-3.4245,-3.4245,-3.4245,-3.4245,-3.4245,-3.4245,-3.4245,-3.4245,-3.4245,-3.4245,-3.4245,-3.4245,-3.4459,-3.4964,-3.4536,-3.4711,-3.576,-3.5799,-3.5799,-3.5799,-3.5815,-3.5857,-3.5905,-3.5908,-3.5904,-3.5904,-3.5962,-3.5988,-3.5939,-3.5988,-3.5991,-3.5994,-3.6001,-3.6009,-3.5995,-3.5996,-3.5974,-3.5964,-3.5989,-3.5987,-3.5964,-3.5964,-3.5987,-3.5991,-3.5966,-3.5987,-3.5992,-3.5996,-3.5996,-3.5898,-3.5345,-3.5198,-3.4884,-3.3465,-3.3877,-3.45,-3.3612,-3.3398,-3.3534,-3.4081,-3.4463,-3.4843,-3.5388,-3.5318,-3.5142,-3.51,-3.509,-3.509,-3.5098,0.0,-3.5791,-3.5773,-3.5718,-3.5704,-3.5704,-3.5704,-3.5704,-3.5704,-3.5704,-3.5704,-3.5704,-3.5596,-3.5515,-3.543,-3.5219,-3.5105,-3.5105,-3.5053,-3.4982,-3.4908,-3.4945,-3.4982,-3.5018,-3.507,-3.5138,-3.5219,-3.5311,-3.5326,-3.5315,-3.5476,-3.5528,-3.5515,-3.5596,-3.5353,-3.4891,-3.4891,-3.435,-3.3596,-3.3596,-3.3035,-3.229,-3.2749,-3.306,-3.3293,-3.3293,-3.3293,-3.3293,-3.3293,-3.3293,-3.3293,-3.3293,-3.3293,-3.3293,-3.3293,-3.3293,-3.3293,-3.3293,-3.3293,-3.3526,-3.4089,-3.3837,-3.4187,-3.5333,-3.5663,-3.5799,-3.5799,-3.5799,-3.5815,-3.5864,-3.5898,-3.5903,-3.5889,-3.5951,-3.5962,-3.5935,-3.5988,-3.5991,-3.5991,-3.5991,-3.6001,-3.5991,-3.5991,-3.5995,-3.5995,-3.5996,-3.5996,-3.5995,-3.5995,-3.5819,-3.5625,-3.5917,-3.582,-3.5644,-3.5915,-3.5815,-3.5423,-3.4554,-3.4295,-3.3964,-3.25,-3.3163,-3.4081,-3.3202,-3.2988,-3.33,-3.4432,-3.4691,-3.4954,-3.582,-3.5502,-3.4984,-3.469,-3.4613,-3.4603,-3.4603,-3.5061,-3.5504,-3.576,-3.5747,-3.5706,-3.5704,-3.5704,-3.5704,-3.5704,-3.5704,-3.5588,-3.5298,-3.5256,-3.5191,-3.5098,-3.4879,-3.4901,-3.5219,-3.5187,-3.5122,-3.5018,-3.507,-3.5105,-3.5105,-3.5187,-3.5266,-3.5374,-3.5457,-3.547,-3.5449,-3.5608,-3.5651,-3.5546,-3.5372,-3.493,-3.4369,-3.4098,-3.346,-3.2676,-3.2676,-3.2145,-3.1429,-3.4303,-3.3837,-3.3274,-3.3274,-3.3274,-3.3274,-3.3274,-3.3274,-3.3274,-3.3274,-3.3274,-3.3274,-3.3274,-3.3274,-3.3274,-3.3274,-3.3274,-3.3274,-3.3274,-3.4031,-3.4478,-3.4478,-3.5333,-3.5799,-3.5799,-3.5799,-3.5799,-3.5799,-3.5864,-3.5898,-3.5908,-3.5895,-3.5939,-3.5991,-3.5991,-3.5991,-3.5991,-3.5991,-3.5991,-3.5971,-3.5991,-3.5986,-3.5994,-3.6001,-3.6005,-3.5995,-3.5995,-3.5442,-3.4825,-3.5699,-3.5403,-3.4842,-3.572,-3.5389,-3.451,-3.3651,-3.3398,-3.3202,-3.2343,-3.2734,-3.3183,-3.2324,-3.2129,-3.2578,-3.4315,-3.4718,-3.496,-3.5819,-3.593,-3.565,-3.483,-3.4632,-3.4583,-3.4583,-3.46,-3.4873,-3.5682,-3.5736,-3.5708,-3.5695,-3.5704,-3.5704,-3.5704,-3.5704,-3.5336,-3.4466,-3.428,-3.4199,-3.4199,-3.4074,-3.4457,-3.5464,-3.5374,-3.5296,-3.5296,-3.543,-3.5374,-3.5105,-3.5369,-3.5515,-3.5496,-3.5496,-3.5565,-3.5704,-3.5704,-3.5704,-3.5626,-3.4756,-3.4389,-3.4292,-3.3441,-3.256,-3.1797,-3.1797,-3.1294,-3.0598,-3.1778,-3.1642,-3.1487,-3.1487,-3.1487,-3.1487,-3.1487,-3.1487,-3.1487,-3.1487,-3.1487,-3.1487,-3.1487,-3.1487,-3.1487,-3.1487,-3.1487,-3.1487,-3.1487,-3.2846,-3.3662,-3.3662,-3.5041,-3.5799,-3.5799,-3.5197,-3.5197,-3.5799,-3.5254,-3.5301,-3.5898,-3.5909,-3.5912,-3.5935,-3.5988,-3.5662,-3.5096,-3.5096,-3.4725,-3.4237,-3.4842,-3.5101,-3.5144,-3.5762,-3.5996,-3.6001,-3.6001,-3.5447,-3.4732,-3.5003,-3.451,-3.3835,-3.4098,-3.4003,-3.3749,-3.3476,-3.3398,-3.3202,-3.2343,-3.2734,-3.3339,-3.3085,-3.3476,-3.4217,-3.5349,-3.5606,-3.5693,-3.5955,-3.5508,-3.4802,-3.3941,-3.3773,-3.3563,-3.2952,-3.3841,-3.4678,-3.4866,-3.5368,-3.5708,-3.5695,-3.5704,-3.5704,-3.5704,-3.5704,-3.5588,-3.5336,-3.4715,-3.4033,-3.3333,-3.3827,-3.4289,-3.4584,-3.5149,-3.5443,-3.5443,-3.5388,-3.5374,-3.5369,-3.5457,-3.554,-3.5651,-3.5651,-3.5662,-3.5704,-3.5704,-3.5704,-3.5626,-3.4756,-3.404,-3.3402,-3.2532,-3.1681,-3.0965,-3.0965,-3.081,-3.0598,-3.1215,-3.1215,-3.1118,-3.0749,-3.069,-3.069,-3.069,-3.069,-3.069,-3.069,-3.069,-3.069,-3.069,-3.069,-3.069,-3.069,-3.069,-3.069,-3.069,-3.2011,-3.2788,-3.2788,-3.4089,-3.4964,-3.5274,-3.4459,-3.4284,-3.4808,-3.4326,-3.4522,-3.5399,-3.5396,-3.5403,-3.542,-3.547,-3.4992,-3.4198,-3.4198,-3.3886,-3.3456,-3.3964,-3.4198,-3.4237,-3.4764,-3.4973,-3.497,-3.497,-3.4417,-3.3727,-3.4069,-3.3835,-3.3347,-3.2985,-3.289,-3.2812,-3.248,-3.2617,-3.2695,-3.1816,-3.248,-3.3398,-3.3398,-3.4061,-3.494,-3.5798,-3.5991,-3.5996,-3.6007,-3.5582,-3.4941,-3.4077,-3.3634,-3.3227,-3.2701,-3.3181,-3.3706,-3.3954,-3.4706,-3.5224,-3.5192,-3.5491,-3.5549,-3.522,-3.5182,-3.4891,-3.4214,-3.3363,-3.2763,-3.2486,-3.2968,-3.3412,-3.3759,-3.4619,-3.5063,-3.5063,-3.5329,-3.5457,-3.5515,-3.5553,-3.562,-3.5704,-3.5704,-3.5704,-3.5704,-3.5704,-3.5704,-3.5607,-3.4389,-3.3576,-3.2966,-3.1797,-3.1023,-3.0598,-3.0598,-3.0598,-3.0598,-3.1875,-3.1875,-3.1623,-3.0846,-3.069,-3.069,-3.069,-3.069,-3.069,-3.069,-3.069,-3.069,-3.069,-3.069,-3.069,-3.069,-3.069,-3.069,-3.069,-3.1448,-3.1914,-3.2004,-3.2691,-3.3448,-3.4264,-3.3565,-3.3215,-3.3293,-3.3215,-3.3626,-3.4478,-3.4484,-3.452,-3.4581,-3.4585,-3.4105,-3.328,-3.328,-3.3241,-3.3163,-3.3241,-3.328,-3.33,-3.3378,-3.3409,-3.3395,-3.3395,-3.2845,-3.2218,-3.2923,-3.3168,-3.3027,-3.2226,-3.1973,-3.1836,-3.1133,-3.1485,-3.1934,-3.1133,-3.2129,-3.3378,-3.33,-3.4003,-3.494,-3.5798,-3.5932,-3.5876,-3.5876,-3.589,-3.5623,-3.4744,-3.3941,-3.3375,-3.3292,-3.2627,-3.2327,-3.299,-3.3829,-3.4378,-3.4409,-3.5027,-3.5182,-3.4466,-3.4331,-3.3596,-3.1932,-3.1197,-3.1081,-3.1661,-3.1913,-3.2358,-3.3082,-3.4021,-3.4524,-3.4524,-3.5298,-3.5651,-3.5528,-3.5651,-3.5704,-3.5704,-3.5704,-3.5665,-3.5568,-3.5568,-3.553,-3.5336,-3.3673,-3.2986,-3.2812,-3.1217,-3.0598,-3.0598,-3.0598,-3.0598,-3.0598,-3.0982,-3.0982,-3.0923,-3.0729,-3.069,-3.069,-3.069,-3.069,-3.069,-3.069,-3.069,-3.069,-3.069,-3.069,-3.069,-3.069,-3.069,-3.069,-3.069,-3.0884,-3.1292,-3.1972,-3.1525,-3.1661,-3.2516,-3.238,-3.2613,-3.3293,-3.2613,-3.2732,-3.3583,-3.3574,-3.3619,-3.3688,-3.3679,-3.32,-3.2383,-3.2383,-3.1992,-3.1426,-3.2109,-3.2383,-3.2461,-3.3144,-3.3409,-3.3395,-3.3395,-3.2838,-3.2021,-3.1534,-3.1363,-3.1326,-3.1139,-3.1086,-3.1172,-3.166,-3.1953,-3.2051,-3.1875,-3.2597,-3.3241,-3.2558,-3.3554,-3.494,-3.5798,-3.5467,-3.4979,-3.4979,-3.4984,-3.4715,-3.3845,-3.3534,-3.3182,-3.2497,-3.2212,-3.2143,-3.2259,-3.2982,-3.3708,-3.4332,-3.3963,-3.3866,-3.435,-3.3789,-3.2938,-3.1894,-3.228,-3.2068,-3.0926,-3.2745,-3.3615,-3.3121,-3.4601,-3.5414,-3.5414,-3.5607,-3.5693,-3.5662,-3.5693,-3.5704,-3.5704,-3.5704,-3.5336,-3.4679,-3.4679,-3.4292,-3.3576,-3.2532,-3.2087,-3.199,-3.0984,-3.0598,-3.0598,-3.0598,-3.0598,-3.0598,-3.069,-3.069,-3.069,-3.069,-3.069,-3.069,-3.069,-3.069,-3.069,-3.069,-3.069,-3.069,-3.069,-3.069,-3.069,-3.069,-3.069,-3.069,-3.069,-3.069,-3.0904,-3.137,-3.0943,-3.0904,-3.137,-3.139,-3.1603,-3.205,-3.1603,-3.1824,-3.2681,-3.2681,-3.2717,-3.2771,-3.2783,-3.231,-3.1485,-3.1485,-3.1211,-3.0841,-3.1309,-3.1485,-3.1524,-3.1992,-3.2154,-3.2166,-3.2166,-3.187,-3.1408,-3.0953,-3.0801,-3.0799,-3.0794,-3.0796,-3.0899,-3.1348,-3.1777,-3.2012,-3.1582,-3.2129,-3.2675,-3.2207,-3.2792,-3.3807,-3.5096,-3.5037,-3.4705,-3.4705,-3.4705,-3.4552,-3.4092,-3.3686,-3.3241,-3.2791,-3.2016,-3.1461,-3.1382,-3.2091,-3.2765,-3.3161,-3.3141,-3.3131,-3.3151,-3.2396,-3.1874,-3.1816,-3.2212,-3.228,-3.1816,-3.3054,-3.3576,-3.3102,-3.4389,-3.5085,-3.5085,-3.5491,-3.5704,-3.5704,-3.5704,-3.5704,-3.5704,-3.5704,-3.5452,-3.4988,-3.4582,-3.4137,-3.3615,-3.2338,-3.1797,-3.1719,-3.0907,-3.0598,-3.0598,-3.0598,-3.0598,-3.0598,-3.069,-3.069,-3.069,-3.069,-3.069,-3.069,-3.069,-3.069,-3.069,-3.069,-3.069,-3.069,-3.069,-3.069,-3.069,-3.069,-3.069,-3.069,-3.069,-3.069,-3.069,-3.069,-3.069,-3.069,-3.069,-3.069,-3.069,-3.069,-3.069,-3.1079,-3.1778,-3.1778,-3.1819,-3.1865,-3.1875,-3.1473,-3.0796,-3.0799,-3.0801,-3.0801,-3.0801,-3.0801,-3.0801,-3.0801,-3.0801,-3.0799,-3.0799,-3.0799,-3.0779,-3.0806,-3.0804,-3.0796,-3.0794,-3.0796,-3.0801,-3.0801,-3.1309,-3.1719,-3.0997,-3.1328,-3.1875,-3.1875,-3.2109,-3.2656,-3.3964,-3.4256,-3.4295,-3.4452,-3.4471,-3.451,-3.4666,-3.3994,-3.3394,-3.3395,-3.1931,-3.0836,-3.0903,-3.1429,-3.1848,-3.2092,-3.2561,-3.2638,-3.2087,-3.1275,-3.1139,-3.1971,-3.2164,-3.2493,-3.3063,-3.3372,-3.3479,-3.3344,-3.4176,-3.4621,-3.4621,-3.5336,-3.5704,-3.5704,-3.5704,-3.5704,-3.5704,-3.5704,-3.5626,-3.5433,-3.4698,-3.4311,-3.404,-3.2454,-3.1797,-3.1719,-3.0907,-3.0598,-3.0598,-3.0598,-3.0598,-3.0598,-3.069,-3.069,-3.069,-3.069,-3.069,-3.069,-3.069,-3.069,-3.069,-3.069,-3.069,-3.069,-3.069,-3.069,-3.069,-3.069,-3.069,-3.069,-3.069,-3.069,-3.069,-3.069,-3.069,-3.069,-3.069,-3.069,-3.069,-3.069,-3.069,-3.0749,-3.0884,-3.0879,-3.0872,-3.0884,-3.0953,-3.0915,-3.0804,-3.0796,-3.0801,-3.0801,-3.0801,-3.0801,-3.0801,-3.0801,-3.0801,-3.0799,-3.0799,-3.0769,-3.0714,-3.0779,-3.0802,-3.0798,-3.0798,-3.0798,-3.0801,-3.0801,-3.088,-3.0958,-3.0841,-3.0899,-3.0977,-3.0977,-3.2109,-3.3085,-3.2578,-3.2441,-3.2675,-3.3417,-3.3573,-3.3807,-3.4569,-3.3986,-3.3404,-3.3394,-3.1933,-3.1032,-3.1726,-3.1281,-3.1411,-3.2857,-3.2387,-3.2242,-3.285,-3.2145,-3.201,-3.285,-3.3615,-3.377,-3.3121,-3.4524,-3.5007,-3.4253,-3.5065,-3.551,-3.551,-3.5646,-3.5704,-3.5704,-3.5704,-3.5704,-3.5704,-3.5704,-3.5278,-3.4563,-3.4447,-3.3963,-3.3209,-3.2222,-3.1797,-3.1719,-3.0907,-3.0598,-3.0598,-3.0598,-3.0598,-3.0598,-3.069,-3.069,-3.069,-3.069,-3.069,-3.069,-3.069,-3.069,-3.069,-3.069,-3.069,-3.069,-3.069,-3.069,-3.069,-3.069,-3.069,-3.069,-3.069,-3.069,-3.069,-3.069,-3.069,-3.069,-3.069,-3.069,-3.069,-3.069,-3.069,-3.069,-3.069,-3.0711,-3.0704,-3.0703,-3.0765,-3.0806,-3.0801,-3.0796,-3.0801,-3.0801,-3.0801,-3.0801,-3.0799,-3.0794,-3.079,-3.0799,-3.0767,-3.0736,-3.0703,-3.0734,-3.0769,-3.0798,-3.0806,-3.0804,-3.0801,-3.0801,-3.0801,-3.0801,-3.0801,-3.0801,-3.0801,-3.0801,-3.1738,-3.2578,-3.2187,-3.209,-3.2207,-3.2597,-3.3066,-3.3378,-3.3261,-3.2929,-3.2834,-3.3328,-3.2358,-3.164,-3.2005,-3.2111,-3.2414,-3.3117,-3.283,-3.2716,-3.3073,-3.2754,-3.2899,-3.377,-3.4176,-3.4447,-3.4543,-3.5278,-3.551,-3.5143,-3.5491,-3.5704,-3.5704,-3.5704,-3.5704,-3.5704,-3.5704,-3.5704,-3.5723,-3.6168,-3.5916,-3.5123,-3.5123,-3.4621,-3.3712,-3.2358,-3.1797,-3.1719,-3.0907,-3.0598,-3.0598,-3.0598,-3.0598,-3.0598]}]]